[[{"header":{"parameterUnit":"m.s-1","parameterCategory":1,"la1":30.6,"la2":29.2853,"lo1":-89.7004,"lo2":-87.6739,"dy":0.0162,"dx":0.0183,"nx":112,"ny":82,"refTime":"2026-04-22T12:00:00:Z","depth":0,"parameterNumber":2,"parameterNumberName":"U-component_of_WINDS"},"data":[0.0,0.0,0.0,0.0,0.0,0.0,0.0,0.0,0.0,0.0,0.0,0.0,0.0,0.0,0.0,0.0,0.0,0.0,0.0,0.0,0.0,0.0,0.0,0.0,0.0,0.0,0.0,0.0,0.0,0.0,0.0,0.0,0.0,0.0,0.0,0.0,0.0,0.0,0.0,0.0,0.0,0.0,0.0,0.0,0.0,0.0,0.0,0.0,0.0,0.0,0.0,0.0,0.0,0.0,0.0,0.0,0.0,0.0,0.0,0.0,0.0,0.0,0.0,0.0,0.0,0.0,0.0,0.0,0.0,0.0,0.0,0.0,0.0,0.0,0.0,0.0,0.0,0.0,0.0,0.0,0.0,0.0,0.0,0.0,0.0,0.0,0.0,0.0,0.0,0.0,-4.0681,-4.4836,-4.926,-5.2192,-5.2923,-5.0654,-4.7039,-4.2019,0.0,0.0,0.0,0.0,0.0,0.0,0.0,0.0,0.0,0.0,0.0,0.0,0.0,0.0,0.0,0.0,0.0,0.0,0.0,0.0,0.0,0.0,0.0,0.0,0.0,0.0,0.0,0.0,0.0,0.0,0.0,0.0,0.0,0.0,0.0,0.0,0.0,0.0,0.0,0.0,0.0,0.0,0.0,0.0,0.0,0.0,0.0,0.0,0.0,0.0,0.0,0.0,0.0,0.0,0.0,0.0,0.0,0.0,0.0,0.0,0.0,0.0,0.0,0.0,0.0,0.0,0.0,0.0,0.0,0.0,0.0,0.0,0.0,0.0,0.0,0.0,0.0,0.0,0.0,0.0,0.0,0.0,0.0,0.0,0.0,0.0,0.0,0.0,0.0,0.0,0.0,0.0,0.0,0.0,0.0,0.0,0.0,0.0,0.0,0.0,0.0,0.0,0.0,0.0,-4.1162,-4.8903,-5.1029,-5.1932,-5.2007,-4.972,-4.6407,-4.1986,0.0,0.0,0.0,0.0,0.0,0.0,0.0,0.0,0.0,0.0,0.0,0.0,0.0,0.0,0.0,0.0,0.0,0.0,0.0,0.0,0.0,0.0,0.0,0.0,0.0,0.0,0.0,0.0,0.0,0.0,0.0,0.0,0.0,0.0,0.0,0.0,0.0,0.0,0.0,0.0,0.0,0.0,0.0,0.0,0.0,0.0,0.0,0.0,0.0,0.0,0.0,0.0,0.0,0.0,0.0,0.0,0.0,0.0,0.0,0.0,0.0,0.0,0.0,0.0,0.0,0.0,0.0,0.0,0.0,0.0,0.0,0.0,0.0,0.0,0.0,0.0,0.0,0.0,0.0,0.0,0.0,0.0,0.0,0.0,0.0,0.0,0.0,0.0,0.0,0.0,0.0,0.0,0.0,0.0,0.0,0.0,0.0,0.0,0.0,0.0,0.0,0.0,0.0,-3.9277,-4.3316,-5.0,-5.1029,-5.1221,-5.1151,-4.8404,-4.5054,-4.1184,-3.691,0.0,0.0,0.0,0.0,0.0,0.0,0.0,0.0,0.0,0.0,0.0,0.0,0.0,0.0,0.0,0.0,0.0,0.0,0.0,0.0,0.0,0.0,0.0,0.0,0.0,0.0,0.0,0.0,0.0,0.0,0.0,0.0,0.0,0.0,0.0,0.0,0.0,0.0,0.0,0.0,0.0,0.0,0.0,0.0,0.0,0.0,0.0,0.0,0.0,0.0,0.0,0.0,0.0,0.0,0.0,0.0,0.0,0.0,0.0,0.0,0.0,0.0,0.0,0.0,0.0,0.0,0.0,0.0,0.0,0.0,0.0,0.0,0.0,0.0,0.0,0.0,0.0,0.0,0.0,0.0,0.0,0.0,0.0,0.0,0.0,0.0,0.0,0.0,0.0,0.0,0.0,0.0,0.0,0.0,0.0,0.0,0.0,0.0,0.0,0.0,0.0,0.0,-4.2792,-4.5515,-5.0012,-5.0502,-5.0385,-5.0139,-4.6846,-4.3398,-4.0138,-3.5058,0.0,0.0,0.0,0.0,0.0,0.0,0.0,0.0,0.0,0.0,0.0,0.0,0.0,0.0,0.0,0.0,0.0,0.0,0.0,0.0,0.0,0.0,0.0,0.0,0.0,0.0,0.0,0.0,0.0,0.0,0.0,0.0,0.0,0.0,0.0,0.0,0.0,0.0,0.0,0.0,0.0,0.0,0.0,0.0,0.0,0.0,0.0,0.0,0.0,0.0,0.0,0.0,0.0,0.0,0.0,0.0,0.0,0.0,0.0,0.0,0.0,0.0,0.0,0.0,0.0,0.0,0.0,0.0,0.0,0.0,0.0,0.0,0.0,0.0,0.0,0.0,0.0,0.0,0.0,0.0,0.0,0.0,0.0,0.0,0.0,0.0,0.0,0.0,0.0,0.0,0.0,0.0,0.0,0.0,0.0,0.0,0.0,0.0,0.0,0.0,0.0,0.0,-4.3468,-4.6847,-4.9567,-4.987,-4.954,-4.8715,-4.501,-4.1607,-3.8979,-3.3506,0.0,0.0,0.0,0.0,0.0,0.0,0.0,0.0,0.0,0.0,0.0,0.0,0.0,0.0,0.0,0.0,0.0,0.0,0.0,0.0,0.0,0.0,0.0,0.0,0.0,0.0,0.0,0.0,0.0,0.0,0.0,0.0,0.0,0.0,0.0,0.0,0.0,0.0,0.0,0.0,0.0,0.0,0.0,0.0,0.0,0.0,0.0,0.0,0.0,0.0,0.0,0.0,0.0,0.0,0.0,0.0,0.0,0.0,0.0,0.0,0.0,0.0,0.0,0.0,0.0,0.0,0.0,0.0,0.0,0.0,0.0,0.0,0.0,0.0,0.0,0.0,0.0,0.0,0.0,0.0,0.0,0.0,0.0,0.0,0.0,0.0,0.0,0.0,0.0,0.0,0.0,0.0,0.0,0.0,0.0,0.0,0.0,0.0,0.0,0.0,0.0,0.0,-4.2246,-4.5616,-4.8717,-4.8981,-4.8567,-4.7691,-4.4776,-4.1524,-3.806,0.0,0.0,0.0,0.0,0.0,0.0,0.0,0.0,0.0,0.0,0.0,0.0,0.0,0.0,0.0,0.0,0.0,0.0,0.0,0.0,0.0,0.0,0.0,0.0,0.0,0.0,0.0,0.0,0.0,0.0,0.0,0.0,0.0,0.0,0.0,0.0,0.0,0.0,0.0,0.0,0.0,0.0,0.0,0.0,0.0,0.0,0.0,0.0,0.0,0.0,0.0,0.0,0.0,0.0,0.0,0.0,0.0,0.0,0.0,0.0,0.0,0.0,0.0,0.0,0.0,0.0,0.0,0.0,0.0,0.0,0.0,0.0,0.0,0.0,0.0,0.0,0.0,0.0,0.0,0.0,0.0,0.0,0.0,0.0,0.0,0.0,0.0,0.0,0.0,0.0,0.0,0.0,0.0,0.0,0.0,0.0,0.0,0.0,0.0,0.0,0.0,0.0,-3.7926,-4.1964,-4.5447,-4.8046,-4.8474,-4.81,-4.6941,-4.412,-4.0798,-3.6975,0.0,0.0,0.0,0.0,0.0,0.0,0.0,0.0,0.0,0.0,0.0,0.0,0.0,0.0,0.0,0.0,0.0,0.0,0.0,0.0,0.0,0.0,0.0,0.0,0.0,0.0,0.0,0.0,0.0,0.0,0.0,0.0,0.0,0.0,0.0,0.0,0.0,0.0,0.0,0.0,0.0,0.0,0.0,0.0,0.0,0.0,0.0,0.0,0.0,0.0,0.0,0.0,0.0,0.0,0.0,0.0,0.0,0.0,0.0,0.0,0.0,0.0,0.0,0.0,0.0,0.0,0.0,0.0,0.0,0.0,0.0,0.0,0.0,0.0,0.0,0.0,0.0,0.0,0.0,0.0,0.0,0.0,0.0,0.0,0.0,0.0,0.0,0.0,0.0,0.0,0.0,0.0,0.0,0.0,0.0,0.0,0.0,0.0,0.0,0.0,0.0,0.0,-3.7841,-4.3044,-4.6791,-4.759,-4.8389,-4.817,-4.6434,-4.2731,-3.9069,0.0,0.0,0.0,0.0,0.0,0.0,0.0,0.0,0.0,0.0,0.0,0.0,0.0,0.0,0.0,0.0,0.0,0.0,0.0,0.0,0.0,0.0,0.0,0.0,0.0,0.0,0.0,0.0,0.0,0.0,0.0,0.0,0.0,0.0,0.0,0.0,0.0,0.0,0.0,0.0,0.0,0.0,0.0,0.0,0.0,0.0,0.0,0.0,0.0,0.0,0.0,0.0,0.0,0.0,0.0,0.0,0.0,0.0,0.0,0.0,0.0,0.0,0.0,0.0,0.0,0.0,0.0,0.0,0.0,0.0,0.0,0.0,0.0,0.0,0.0,0.0,0.0,0.0,0.0,0.0,0.0,0.0,0.0,0.0,0.0,0.0,0.0,0.0,0.0,0.0,0.0,0.0,0.0,0.0,0.0,0.0,0.0,0.0,0.0,0.0,0.0,0.0,0.0,-3.6813,-4.204,-4.5597,-4.5838,-4.6496,-4.6483,-4.5396,-4.2094,-3.8722,-3.5552,0.0,0.0,0.0,0.0,0.0,0.0,0.0,0.0,0.0,0.0,0.0,0.0,0.0,0.0,0.0,0.0,0.0,0.0,0.0,0.0,0.0,0.0,0.0,0.0,0.0,0.0,0.0,0.0,0.0,0.0,0.0,0.0,0.0,0.0,0.0,0.0,0.0,0.0,0.0,0.0,0.0,0.0,0.0,0.0,0.0,0.0,0.0,0.0,0.0,0.0,0.0,0.0,0.0,0.0,0.0,0.0,0.0,0.0,0.0,0.0,0.0,0.0,0.0,0.0,0.0,0.0,0.0,0.0,0.0,0.0,0.0,0.0,0.0,0.0,0.0,0.0,0.0,0.0,0.0,0.0,0.0,0.0,0.0,0.0,0.0,0.0,0.0,0.0,0.0,0.0,0.0,0.0,0.0,0.0,0.0,0.0,0.0,0.0,0.0,0.0,0.0,0.0,-3.6332,-4.1334,-4.4733,-4.5033,-4.5707,-4.5786,-4.4959,-4.1852,-3.8574,-3.5388,0.0,0.0,0.0,0.0,0.0,0.0,0.0,0.0,0.0,0.0,0.0,0.0,0.0,0.0,0.0,0.0,0.0,0.0,0.0,0.0,0.0,0.0,0.0,0.0,0.0,0.0,0.0,0.0,0.0,0.0,0.0,0.0,0.0,0.0,0.0,0.0,0.0,0.0,0.0,0.0,0.0,0.0,0.0,0.0,0.0,0.0,0.0,0.0,0.0,0.0,0.0,0.0,0.0,0.0,0.0,0.0,0.0,0.0,0.0,0.0,0.0,0.0,0.0,0.0,0.0,0.0,0.0,0.0,0.0,0.0,0.0,0.0,0.0,0.0,0.0,0.0,0.0,0.0,0.0,0.0,0.0,0.0,0.0,0.0,0.0,0.0,0.0,0.0,0.0,0.0,0.0,0.0,0.0,0.0,0.0,0.0,0.0,0.0,0.0,0.0,0.0,0.0,-3.6266,-4.0733,-4.3978,-4.4801,-4.5523,-4.5599,-4.4739,-4.1719,-3.8486,-3.5206,0.0,0.0,0.0,0.0,0.0,0.0,0.0,0.0,0.0,0.0,0.0,0.0,0.0,0.0,0.0,0.0,0.0,0.0,0.0,0.0,0.0,0.0,0.0,0.0,0.0,0.0,0.0,0.0,0.0,0.0,0.0,0.0,0.0,0.0,0.0,0.0,0.0,0.0,0.0,0.0,0.0,0.0,0.0,0.0,0.0,0.0,0.0,0.0,0.0,0.0,0.0,0.0,0.0,0.0,0.0,0.0,0.0,0.0,0.0,0.0,-3.7401,-3.5534,0.0,0.0,0.0,0.0,0.0,0.0,0.0,0.0,0.0,0.0,0.0,0.0,0.0,0.0,0.0,0.0,0.0,0.0,0.0,0.0,0.0,0.0,0.0,0.0,0.0,0.0,0.0,0.0,0.0,0.0,0.0,0.0,0.0,0.0,0.0,0.0,0.0,0.0,0.0,0.0,-3.6196,-3.9675,-4.2355,-4.388,-4.4074,-4.3733,-4.2926,-4.0464,-3.7841,-3.5169,-3.15,0.0,0.0,0.0,0.0,0.0,0.0,0.0,0.0,0.0,0.0,0.0,0.0,0.0,0.0,0.0,0.0,0.0,0.0,0.0,0.0,0.0,0.0,0.0,0.0,0.0,0.0,0.0,0.0,0.0,0.0,0.0,0.0,0.0,0.0,0.0,0.0,0.0,0.0,0.0,0.0,0.0,0.0,0.0,0.0,0.0,0.0,0.0,0.0,0.0,0.0,0.0,0.0,0.0,0.0,0.0,0.0,0.0,0.0,0.0,-4.0167,-3.8629,0.0,0.0,0.0,0.0,0.0,0.0,0.0,0.0,0.0,0.0,0.0,0.0,0.0,0.0,0.0,0.0,0.0,0.0,0.0,0.0,0.0,0.0,0.0,0.0,0.0,0.0,0.0,0.0,0.0,0.0,0.0,0.0,0.0,0.0,0.0,0.0,0.0,0.0,0.0,0.0,-3.5506,-3.8364,-4.067,-4.2327,-4.241,-4.2176,-4.1772,-3.9882,-3.7826,-3.5738,-3.221,0.0,0.0,0.0,0.0,0.0,0.0,0.0,0.0,0.0,0.0,0.0,0.0,0.0,0.0,0.0,0.0,0.0,0.0,0.0,0.0,0.0,0.0,0.0,0.0,0.0,0.0,0.0,0.0,0.0,0.0,0.0,0.0,0.0,0.0,0.0,0.0,0.0,0.0,0.0,0.0,0.0,0.0,0.0,0.0,0.0,0.0,0.0,0.0,0.0,0.0,0.0,0.0,0.0,-4.5918,-4.6221,-4.5895,-4.5673,-4.6104,-4.6863,-4.32,-4.2332,-4.319,-3.9319,0.0,0.0,0.0,0.0,0.0,0.0,0.0,0.0,0.0,0.0,0.0,0.0,0.0,0.0,0.0,0.0,0.0,0.0,0.0,0.0,0.0,0.0,-3.4976,-3.5597,-3.6846,-3.6791,-3.2665,0.0,0.0,0.0,0.0,0.0,0.0,0.0,0.0,0.0,0.0,0.0,-3.5014,-3.7288,-3.924,-4.0944,-4.0983,-4.0875,-4.0875,-3.9423,-3.7863,-3.6376,-3.2852,-3.0044,0.0,0.0,0.0,0.0,0.0,0.0,0.0,0.0,0.0,0.0,0.0,0.0,0.0,0.0,0.0,0.0,0.0,0.0,0.0,0.0,0.0,0.0,0.0,0.0,0.0,0.0,0.0,0.0,0.0,0.0,0.0,0.0,-3.6131,-3.7326,0.0,0.0,0.0,0.0,0.0,0.0,0.0,0.0,0.0,0.0,0.0,0.0,0.0,-4.5269,-4.7,-4.8663,-4.9255,-4.8884,-5.0955,-5.1357,-5.0258,-5.0229,-5.0896,-5.1954,-5.0307,0.0,-4.5215,-4.257,0.0,0.0,0.0,0.0,0.0,0.0,0.0,0.0,0.0,0.0,0.0,0.0,0.0,0.0,0.0,0.0,0.0,0.0,0.0,0.0,0.0,0.0,-3.8602,-3.8625,-3.9128,-3.9237,-3.7881,-3.4798,-3.1782,-3.0017,-2.804,-2.6321,0.0,0.0,0.0,0.0,0.0,0.0,-3.5893,-3.7145,-3.8569,-4.0933,-4.0517,-4.0065,-4.0065,-3.8594,-3.7272,-3.6358,-3.4431,-3.2284,-2.9989,-2.8246,0.0,0.0,0.0,0.0,0.0,0.0,0.0,0.0,0.0,0.0,0.0,0.0,0.0,0.0,0.0,0.0,0.0,0.0,0.0,0.0,0.0,0.0,0.0,0.0,0.0,0.0,0.0,0.0,0.0,-3.6073,-3.8007,-3.8844,-3.9159,-3.8783,0.0,0.0,0.0,0.0,0.0,0.0,0.0,0.0,0.0,-4.5922,-4.7818,-4.9252,-5.0187,-5.15,-5.198,-5.1593,-5.2628,-5.2677,-5.1902,-5.1902,-5.2146,-5.2507,-5.1946,-5.061,-4.8583,-4.6002,-4.3313,-4.0637,0.0,0.0,0.0,0.0,-3.7648,-3.7506,-3.9067,-3.9119,-3.8355,-3.7782,0.0,0.0,0.0,0.0,0.0,0.0,0.0,-3.4654,-3.6007,-3.7971,-3.9677,-4.0107,-4.0706,-4.098,-4.0167,-3.7874,-3.5178,-3.2507,-3.1138,-2.9759,-2.7695,-2.7288,0.0,0.0,0.0,-3.2643,-3.5398,-3.6775,-3.8095,-3.9635,-3.905,-3.8557,-3.8557,-3.7492,-3.6391,-3.5356,-3.4178,-3.2634,-3.0672,-2.904,-2.7143,0.0,0.0,0.0,0.0,0.0,0.0,0.0,0.0,0.0,0.0,0.0,0.0,0.0,0.0,0.0,0.0,0.0,0.0,0.0,0.0,0.0,0.0,0.0,0.0,0.0,0.0,0.0,0.0,-3.8143,-3.9901,-4.0588,-4.1506,-4.1453,0.0,0.0,0.0,0.0,0.0,0.0,-4.5735,-4.7207,-4.8505,-4.9621,-5.1772,-5.3105,-5.3482,-5.4278,-5.4426,-5.3946,-5.3993,-5.3702,-5.3125,-5.3125,-5.3034,-5.2883,-5.2883,-5.23,-5.1166,-4.8591,-4.5942,-4.3439,-4.2282,-4.1237,-4.0462,-4.1279,-4.1067,-4.0639,-4.2591,-4.271,-4.1876,-4.1131,-4.0008,-3.8461,-3.5775,0.0,0.0,0.0,0.0,-3.6201,-3.7627,-3.8958,-4.0142,-4.0925,-4.1668,-4.1984,-4.1161,-3.9912,-3.8006,-3.4945,-3.3906,-3.2708,-3.0193,-2.952,0.0,-2.9867,-3.1516,-3.33,-3.4936,-3.6352,-3.7434,-3.8036,-3.7578,-3.714,-3.6936,-3.6173,-3.5339,-3.4424,-3.3436,-3.2267,-3.0864,-2.9463,-2.7784,-2.5816,0.0,0.0,0.0,0.0,0.0,0.0,0.0,0.0,0.0,0.0,0.0,0.0,0.0,0.0,0.0,0.0,0.0,0.0,0.0,0.0,0.0,0.0,0.0,0.0,0.0,0.0,0.0,0.0,0.0,-4.2621,-4.4724,0.0,0.0,0.0,0.0,-4.5352,-4.6478,-4.8021,-5.0061,-5.1221,-5.2588,-5.4308,-5.5228,-5.6299,-5.7487,-5.757,-5.7145,-5.6243,-5.6243,-5.5768,-5.487,-5.487,-5.4795,-5.4676,-5.4676,-5.3718,-5.1964,-4.9666,-4.7814,-4.627,-4.4929,-4.3482,-4.2271,-4.3071,-4.2862,-4.2258,-4.2975,-4.2694,-4.222,-4.3619,-4.2185,-3.966,-3.8237,-3.6913,0.0,0.0,-3.7323,-3.8211,-3.9292,-3.9983,-4.0555,-4.131,-4.1849,-4.1984,-4.1161,-4.0342,-3.9236,-3.7522,-3.5402,-3.3602,-3.2735,0.0,-3.1421,-3.1646,-3.2263,-3.3328,-3.5069,-3.5915,-3.6399,-3.6505,-3.6486,-3.6146,-3.5376,-3.4573,-3.4092,-3.404,-3.261,-3.1395,-3.0561,-2.9701,-2.8491,-2.6871,-2.5457,0.0,0.0,0.0,0.0,0.0,0.0,0.0,0.0,0.0,0.0,0.0,0.0,0.0,0.0,0.0,0.0,0.0,0.0,0.0,0.0,0.0,0.0,0.0,0.0,0.0,0.0,0.0,0.0,-4.5817,-4.8158,0.0,-4.6964,-4.7736,-4.8699,-4.9501,-5.0414,-5.169,-5.3439,-5.4382,-5.5321,-5.6326,-5.7142,-5.7747,-5.8106,-5.7912,-5.7355,-5.6523,-5.6309,-5.574,-5.4855,-5.4855,-5.4762,-5.4623,-5.4623,-5.3711,-5.2136,-5.1309,-4.9792,-4.7976,-4.7489,-4.6686,-4.5753,-4.5546,-4.5304,-4.5027,-4.4725,-4.444,-4.4044,-4.3113,-4.1781,-4.0297,-3.8829,-3.8065,-3.785,-3.8508,-3.8907,-3.9336,-4.0227,-4.0597,-4.0787,-4.1065,-4.1232,-4.1141,-4.0337,-3.9569,-3.873,-3.7658,-3.6197,-3.487,-3.4094,-3.3706,-3.3422,-3.3237,-3.424,-3.5241,-3.5864,-3.6595,-3.6899,-3.6452,-3.5935,-3.531,-3.4505,-3.3255,-3.2642,-3.2892,-3.1462,-3.0472,-3.0194,-2.9415,-2.8322,-2.6925,-2.5927,-2.4008,0.0,0.0,0.0,0.0,0.0,0.0,0.0,0.0,0.0,0.0,0.0,0.0,0.0,0.0,0.0,0.0,0.0,0.0,0.0,0.0,0.0,0.0,0.0,0.0,0.0,-4.4887,-4.7474,-4.8399,-5.0977,-5.2001,-5.0274,-5.1565,-5.2707,-5.3242,-5.4036,-5.5027,-5.6302,-5.69,-5.7469,-5.8167,-5.8683,-5.9064,-5.923,-5.8714,-5.8003,-5.718,-5.6645,-5.5894,-5.5026,-5.4978,-5.4855,-5.4652,-5.433,-5.3422,-5.217,-5.1912,-5.0774,-4.9189,-4.9189,-4.8723,-4.7965,-4.7251,-4.682,-4.6493,-4.5673,-4.5397,-4.5104,-4.3337,-4.2275,-4.1429,-4.0152,-3.9583,-3.9497,-3.9957,-4.0095,-4.0239,-4.0774,-4.0912,-4.0912,-4.0912,-4.0705,-4.0359,-3.9819,-3.8922,-3.8099,-3.7599,-3.6672,-3.5723,-3.4936,-3.4795,-3.4645,-3.4111,-3.5135,-3.5946,-3.5946,-3.6617,-3.6724,-3.5719,-3.5153,-3.4412,-3.3352,-3.2327,-3.1858,-3.2109,-3.0678,-2.9823,-2.9824,-2.8568,-2.7504,-2.6654,-2.5597,-2.4033,-2.1959,0.0,0.0,0.0,0.0,0.0,0.0,0.0,0.0,0.0,0.0,0.0,0.0,0.0,0.0,0.0,0.0,0.0,0.0,0.0,0.0,0.0,0.0,0.0,-4.5088,-4.7368,-4.9265,-5.0343,-5.3202,-5.4252,-5.2118,-5.467,-5.6472,-5.6472,-5.715,-5.7917,-5.8656,-5.8692,-5.9066,-5.988,-5.9933,-6.0308,-6.1093,-6.0149,-5.9201,-5.8285,-5.7317,-5.6364,-5.5478,-5.5277,-5.5109,-5.4939,-5.3992,-5.3078,-5.2166,-5.1425,-5.0683,-5.0011,-5.0011,-4.9528,-4.8741,-4.7965,-4.7234,-4.6458,-4.5673,-4.5397,-4.5276,-4.4552,-4.3793,-4.3051,-4.224,-4.1481,-4.0912,-4.0912,-4.0912,-4.0912,-4.0912,-4.0912,-4.0912,-4.0912,-4.0308,-3.9681,-3.9664,-3.8508,-3.7495,-3.7478,-3.6818,-3.6077,-3.5352,-3.5232,-3.499,-3.4286,-3.4766,0.0,-3.5232,-3.5835,-3.5714,-3.4268,-3.4079,-3.3457,-3.1921,-3.1783,-3.1765,-3.1765,-3.0317,-2.9489,-2.9506,-2.7351,-2.6128,-2.6128,-2.4643,-2.3672,-2.3324,0.0,0.0,0.0,0.0,0.0,0.0,0.0,0.0,0.0,0.0,0.0,0.0,0.0,0.0,0.0,0.0,0.0,0.0,0.0,0.0,0.0,-4.5067,-4.7565,-4.7911,-4.9586,-5.1702,-5.4278,-5.5934,-5.6855,-5.6766,-5.755,-5.8067,-5.8067,-5.7774,-5.7917,-5.8656,-5.8692,-5.9066,-5.988,-6.0469,-6.0879,-6.1093,-5.9764,-5.8756,-5.8071,-5.6627,-5.5661,-5.5131,-5.4838,-5.4745,-5.479,-5.3873,-5.3082,-5.2364,-5.1454,-5.0725,-5.0149,-5.0022,-4.9873,-4.9528,-4.8172,-4.6845,-4.569,-4.5483,-4.5397,-4.5276,-4.4552,-4.3793,-4.3051,-4.224,-4.1481,-4.0912,-4.0912,-4.0912,-4.0912,-4.0912,-4.0912,-4.0912,-4.0912,-4.0308,-3.9543,-3.9008,-3.8168,-3.734,-3.6732,-3.6456,-3.6232,-3.6025,-3.6008,-3.5921,-3.5732,-3.587,-3.6008,-3.6008,-3.5714,-3.5128,-3.4199,-3.3576,-3.2835,-3.1869,-3.13,-3.1007,-3.1007,-2.9558,-2.8937,-2.9489,-2.7868,-2.6971,-2.6971,-2.5597,-2.457,0.0,0.0,0.0,0.0,0.0,0.0,0.0,0.0,0.0,0.0,0.0,0.0,0.0,0.0,0.0,0.0,0.0,0.0,0.0,0.0,0.0,0.0,-4.846,-5.0873,-5.1505,-5.2428,-5.3975,-5.6486,-5.754,-5.8238,-5.8656,-5.9298,-5.9423,-5.8745,-5.8631,-5.8756,-5.9173,-5.9191,-5.9577,-6.038,-6.0861,-6.0873,-6.0398,-5.9148,-5.811,-5.7324,-5.597,-5.5223,-5.4992,-5.4731,-5.4496,-5.4243,-5.3297,-5.2537,-5.1867,-5.0989,-5.0448,-5.0092,0.0,0.0,0.0,0.0,-4.6707,-4.5397,-4.5397,-4.5397,-4.5328,-4.4906,-4.4069,-4.3103,-4.2637,-4.1757,-4.0912,-4.0912,-4.0912,-4.0912,-4.0912,-4.0912,-4.0912,-4.0912,-4.0066,-3.9112,-3.8681,-3.7771,-3.6853,-3.6387,-3.6301,0.0,-3.6301,-3.6301,-3.6301,-3.6301,-3.6301,-3.6301,-3.6301,-3.5663,-3.4921,-3.4182,-3.3369,-3.261,-3.1852,-3.1403,0.0,0.0,0.0,-2.9127,-2.861,-2.7437,0.0,0.0,0.0,0.0,0.0,0.0,0.0,0.0,-2.3529,-2.3394,0.0,0.0,0.0,0.0,0.0,0.0,0.0,0.0,0.0,0.0,0.0,0.0,0.0,0.0,0.0,0.0,-5.1404,-5.3512,-5.4982,-5.5294,-5.5937,-5.7525,-5.831,-5.8763,-5.8941,-6.0183,-6.038,-5.8941,-5.9405,-5.9773,-5.9773,-5.9862,0.0,0.0,0.0,-6.0416,-5.94,-5.8323,-5.7311,-5.6388,-5.5388,-5.4961,-5.4961,-5.4738,-5.4277,-5.355,-5.252,-5.1718,-5.1045,-5.0304,-5.0011,-4.9993,-4.9907,-4.9821,-4.9562,-4.8114,-4.6638,-4.5397,-4.5397,0.0,0.0,-4.5397,-4.4406,-4.3189,-4.3189,-4.212,-4.0912,-4.0912,-4.0912,-4.0912,-4.0912,-4.0912,-4.0912,-4.0912,-3.9738,-3.8594,-3.8594,-3.7387,-3.6301,-3.6301,-3.6301,-3.6301,-3.6301,-3.6301,-3.6301,-3.6301,-3.6301,-3.6301,-3.6301,-3.5576,-3.4818,-3.4182,-3.33,0.0,-3.1852,-3.18,-3.1765,-3.1679,-3.1058,-2.9748,-2.7627,-2.6954,-2.6592,-2.6488,-2.6473,-2.7161,-2.8523,-2.8523,-2.8523,-2.8437,-2.5359,-2.5031,0.0,0.0,0.0,0.0,0.0,0.0,0.0,0.0,0.0,0.0,0.0,0.0,0.0,0.0,0.0,-5.0036,-5.2771,-5.4839,-5.5169,-5.5758,-5.674,-5.8281,-5.8602,-5.9191,-6.0504,-6.0344,-6.0005,-5.9701,-5.9191,-5.8923,-5.8923,-5.9559,-5.9987,-6.013,-5.9858,-5.962,-5.94,-5.7509,-5.6435,-5.6234,-5.5109,0.0,-5.4824,-5.4015,-5.3635,-5.3515,-5.1985,-5.1294,-5.1205,-5.0362,-5.0011,-4.9942,-4.9304,-4.8654,-4.8045,-4.7148,-4.6207,-4.5397,-4.5397,-4.5397,-4.5397,-4.5397,-4.4406,-4.3189,-4.3189,-4.212,0.0,-4.0912,-4.0912,-4.0912,-4.0912,-4.0912,-4.0912,-4.0912,-3.9738,-3.8594,-3.8594,-3.7387,-3.6301,-3.6301,-3.6301,-3.6301,-3.6301,-3.6301,-3.6301,-3.6301,-3.6301,-3.6301,-3.6301,-3.5128,-3.4268,-3.413,-3.2835,-3.1955,-3.18,-3.18,-3.1541,-3.0938,-3.0783,-3.0196,-2.9127,-2.9541,-2.9506,-2.8868,-2.8851,-2.8989,-2.9299,-2.9299,-2.9299,-2.9265,-2.8589,-2.8329,0.0,0.0,0.0,0.0,0.0,0.0,0.0,0.0,0.0,0.0,0.0,-4.4007,-4.6029,0.0,-5.103,-5.26,-5.4509,-5.5794,-5.5794,-5.6151,-5.6829,-5.8006,-5.8149,-5.8613,-5.9809,-5.953,-5.9166,-5.8774,-5.8738,-5.8692,-5.8692,-5.9441,-5.981,-5.9675,-5.949,-5.886,-5.7816,-5.6741,-5.5918,-5.5348,-5.4779,-5.4353,-5.4084,-5.3611,-5.3007,-5.2304,-5.1472,-5.092,-5.0627,-5.0178,-4.9769,-4.9309,-4.8534,-4.8017,-4.7603,-4.6889,-4.6086,-4.5397,-4.5397,-4.5397,-4.5328,-4.4975,-4.4096,-4.312,-4.2723,-4.1809,-4.0912,-4.0912,-4.0912,-4.0912,-4.0912,-4.0912,-4.0912,-4.0912,-3.9738,-3.8594,-3.8594,-3.7387,-3.6301,-3.6301,-3.6301,-3.6301,-3.6301,-3.6301,-3.6301,-3.6301,-3.6301,-3.6301,-3.6301,-3.5007,-3.4113,-3.4113,-3.2714,-3.18,-3.18,-3.18,-3.1627,-3.1265,-3.0886,-3.0506,-3.011,-3.0093,-2.992,-2.9506,-2.9506,-2.9696,-3.0093,-3.0093,-3.0282,-3.0644,-3.0644,-3.0335,0.0,0.0,0.0,0.0,0.0,0.0,0.0,-4.1607,-4.2162,-4.441,-4.5124,-4.6284,-4.9424,-5.1298,-5.2993,-5.4902,-5.5883,-5.6401,-5.6401,-5.6401,-5.6633,-5.7275,-5.7517,-5.7882,-5.862,-5.8567,-5.831,-5.7846,-5.8381,-5.8692,-5.8692,-5.9412,-5.9603,-5.9188,-5.8908,-5.7934,-5.622,-5.6001,-5.54,-5.4512,-5.4356,-5.3977,-5.3391,-5.3097,-5.2287,-5.1097,-5.0959,-5.0562,-4.9993,-4.9838,-4.939,-4.8706,-4.781,-4.751,-4.7407,-4.6648,-4.5949,-4.5397,-4.5397,-4.5397,-4.5276,-4.4552,-4.3793,-4.3051,-4.224,-4.1481,-4.0912,-4.0912,-4.0912,-4.0912,-4.0912,-4.0912,-4.0912,-4.0912,-3.9842,-3.8767,-3.8629,-3.7508,-3.649,-3.6335,-3.6301,-3.6301,-3.6301,-3.6301,-3.6301,-3.6301,-3.6301,-3.6301,-3.6301,-3.5007,-3.4113,-3.4113,-3.2714,-3.18,-3.18,-3.18,-3.18,-3.18,-3.1231,-3.0903,-3.0903,-3.03,-2.9955,-2.9955,-2.9955,-3.0265,-3.0903,-3.0903,-3.1214,-3.18,-3.18,-3.1472,-3.9182,-3.8611,-3.9182,-4.1234,-4.1895,-4.3126,0.0,-4.7729,-4.7752,-4.9388,-5.0852,-5.1983,-5.2429,-5.376,-5.4902,-5.5169,-5.5883,-5.6401,-5.6401,-5.6401,-5.6418,-5.6508,-5.715,-5.7882,-5.862,-5.8113,-5.7953,-5.8513,-5.8638,-5.8692,-5.8692,-5.9171,-5.9129,-5.8426,-5.7197,-5.6439,-5.6203,-5.5199,-5.4629,-5.4494,-5.3839,-5.3477,-5.3356,-5.1994,-5.1269,-5.108,-5.0424,-5.008,-4.9942,-4.9252,-4.8879,-4.8654,-4.7286,-4.6734,-4.6648,-4.5828,-4.5483,-4.5397,-4.5397,-4.5397,-4.5276,-4.4552,-4.3793,-4.3051,-4.224,-4.1481,-4.0912,-4.0912,-4.0912,-4.0912,-4.0912,-4.0912,-4.0912,-4.0912,-4.0215,-3.9388,-3.8732,-3.7961,-3.7146,-3.6439,-3.6301,-3.6301,-3.6301,-3.6301,-3.6301,-3.6301,-3.6301,-3.6301,-3.6301,-3.5007,-3.4113,-3.4113,-3.2714,-3.18,-3.18,-3.18,-3.18,-3.18,-3.1714,-3.1679,-3.1679,-3.1593,-3.1541,-3.1541,-3.1541,-3.1593,-3.1679,-3.1679,-3.1714,-3.18,-3.18,-3.1765,-4.168,-4.1859,-4.2516,-4.3964,-4.5057,-4.6485,-4.9353,-4.9763,-5.0102,-5.2111,-5.2725,-5.3179,-5.4063,-5.4777,-5.5348,-5.583,-5.6186,-5.6401,-5.6401,-5.599,-5.5705,-5.5705,-5.599,-5.6508,-5.7293,-5.7079,-5.7025,-5.7346,-5.781,-5.806,-5.806,-5.8572,-5.845,-5.75,-5.6746,-5.6024,-5.5372,-5.4793,-5.4287,-5.3873,-5.3546,-5.2925,-5.2046,-5.1407,-5.0873,-5.0442,-5.0131,-4.9735,-4.9275,-4.893,-4.8275,-4.7448,-4.6855,-4.6293,-4.5845,-4.5518,-4.5397,-4.5397,-4.5397,-4.513,-4.463,-4.3897,-4.3138,-4.2361,-4.1602,-4.1153,-4.0912,-4.0912,-4.0912,-4.0912,-4.0912,-4.0912,-4.0912,-4.0912,-4.0308,-3.9491,-3.875,-3.803,-3.7271,-3.6456,-3.6301,-3.6301,-3.6301,-3.6301,-3.6301,-3.6301,-3.6301,-3.6301,-3.6301,-3.5007,-3.3768,-3.2852,-3.2179,-3.18,-3.18,-3.18,-3.18,-3.18,-3.18,-3.18,-3.18,-3.18,-3.18,-3.18,-3.18,-3.18,-3.18,-3.18,-3.18,-3.18,-3.18,-3.18,-4.3358,-4.4193,-4.5227,-4.6462,-4.7979,-4.9573,-5.1119,-5.1315,-5.1708,-5.3609,-5.3403,-5.3296,-5.4634,-5.4884,-5.5134,-5.5937,-5.6062,-5.6151,-5.6365,-5.5705,-5.5205,-5.5205,-5.5009,-5.5205,-5.599,-5.6276,-5.649,-5.6704,-5.7285,-5.7606,-5.7606,-5.7925,-5.767,-5.6676,-5.6267,-5.572,-5.4917,-5.47,-5.4195,-5.3452,-5.3197,-5.239,-5.1097,-5.0907,-5.0528,-5.0011,-5.0011,-4.9545,-4.8775,-4.8568,-4.7741,-4.6596,-4.6372,-4.5897,-4.5397,-4.5397,-4.5397,-4.5397,-4.5397,-4.4923,-4.4173,-4.3431,-4.281,-4.2154,-4.1205,-4.105,-4.117,-4.0963,-4.0912,-4.0912,-4.0912,-4.0912,-4.0912,-4.0912,-4.044,-3.9819,-3.906,-3.8301,-3.7581,-3.6766,-3.6456,-3.6301,-3.6301,-3.6301,-3.6301,-3.6301,-3.6301,-3.6301,-3.6301,-3.5007,-3.3596,-3.2248,-3.1921,-3.18,-3.18,-3.18,-3.18,-3.18,-3.18,-3.18,-3.18,-3.18,-3.18,-3.18,-3.18,-3.18,-3.18,-3.18,-3.18,-3.18,-3.18,-3.18,-4.3479,-4.4624,-4.632,-4.8615,-5.0405,-5.1993,-5.3538,-5.3332,-5.3046,-5.3823,-5.3403,-5.3118,-5.3894,-5.4037,-5.4287,-5.5116,-5.5241,-5.5508,-5.6294,-5.5705,-5.5205,-5.5205,-5.4501,-5.434,-5.5169,-5.5937,-5.6704,-5.7517,-5.7606,-5.7606,-5.7606,-5.7295,-5.6768,-5.5943,-5.5472,-5.5217,-5.5199,-5.4917,-5.4381,-5.3584,-5.2658,-5.1856,-5.1097,-5.0373,-5.0028,-5.0011,-5.0011,-4.9545,-4.8741,-4.8017,-4.7303,-4.6527,-4.5742,-4.5414,-4.5397,-4.5397,-4.5397,-4.5397,-4.5397,-4.4923,-4.4173,-4.3431,-4.3172,-4.2879,-4.136,-4.1412,-4.1826,-4.1101,-4.0912,-4.0912,-4.0912,-4.0912,-4.0912,-4.0912,-4.0877,-4.0653,-3.9836,-3.9077,-3.8358,-3.7616,-3.6818,-3.6301,-3.6301,-3.6301,-3.6301,-3.6301,-3.6301,-3.6301,-3.6301,-3.5007,-3.3766,-3.2955,-3.2231,-3.18,-3.18,-3.18,-3.18,-3.18,-3.18,-3.18,-3.18,-3.18,-3.18,-3.18,-3.18,-3.18,-3.18,-3.18,-3.18,-3.18,-3.18,-3.18,-4.4749,-4.6551,-4.8562,-5.0441,-5.169,-5.2761,-5.3752,-5.3805,-5.3564,-5.3314,-5.309,-5.2822,-5.2529,-5.2903,-5.3528,-5.4269,-5.4866,-5.5491,-5.6294,-5.5705,-5.5009,-5.4465,-5.4162,-5.4108,-5.4376,-5.4643,-5.5366,-5.6686,-5.6311,-5.624,-5.6775,-5.6598,-5.6361,-5.6095,-5.5735,-5.5514,-5.5514,-5.462,-5.3766,-5.2984,-5.1457,-5.0614,-5.0373,-5.0114,-5.0011,-4.9976,-4.9459,-4.8758,-4.8,-4.7258,-4.6527,-4.5776,-4.55,-4.5397,-4.5397,-4.5397,-4.5096,-4.4665,-4.4665,-4.4207,-4.3448,-4.2654,-4.2413,-4.2223,-4.1205,-4.1429,-4.1861,-4.1119,-4.0912,-4.0912,-4.0912,-4.0912,-4.0912,-4.0912,-4.0912,-4.0687,-3.9871,-3.9508,-3.8957,-3.7754,-3.7288,-3.6943,-3.6387,-3.6301,-3.6301,-3.6301,-3.6301,-3.6111,-3.5628,-3.4717,-3.3783,-3.299,-3.2231,-3.18,-3.18,-3.18,-3.18,-3.18,-3.18,-3.18,-3.18,-3.18,-3.18,-3.18,-3.18,-3.18,-3.18,-3.18,-3.18,-3.18,-3.18,-3.18,-4.698,-4.88,-5.062,-5.2475,-5.3332,-5.3849,-5.4331,-5.401,-5.3385,-5.2618,-5.1804,-5.1073,-5.053,-5.0388,-5.0976,-5.2886,-5.3385,-5.4188,-5.6133,-5.5705,-5.5027,-5.4483,-5.3956,-5.3831,-5.4376,-5.3689,-5.4081,-5.624,-5.5919,-5.5847,-5.6365,-5.6318,-5.6263,-5.6263,-5.6011,-5.5727,-5.5444,-5.4425,-5.3304,-5.2113,-5.0667,-5.0011,-5.0011,-5.0011,-4.9855,-4.9545,-4.9016,-4.8224,-4.7258,-4.6803,-4.6148,-4.5397,-4.5397,-4.5397,-4.5397,-4.5397,-4.4941,-4.4311,-4.4311,-4.3638,-4.2689,-4.2171,-4.2206,-4.224,-4.1222,-4.1619,-4.2223,-4.1188,-4.0912,-4.0912,-4.0912,-4.0912,-4.0912,-4.0912,-4.0912,-4.0774,-4.0233,-3.9888,-3.9336,-3.8134,-3.7685,-3.7254,-3.6439,-3.6301,-3.6301,-3.6301,-3.6301,-3.6128,-3.5645,-3.4938,-3.418,-3.3404,-3.2645,-3.2093,-3.1817,-3.18,-3.18,-3.18,-3.18,-3.18,-3.18,-3.18,-3.18,-3.18,-3.18,-3.18,-3.18,-3.18,-3.18,-3.18,-3.18,-3.1938,-4.9888,-5.1173,-5.2404,-5.4652,-5.5205,-5.5187,-5.5098,-5.3885,-5.2519,-5.1583,-4.9591,-4.7984,-4.7859,-4.6712,-4.7051,-5.0834,-5.0994,-5.1958,-5.574,-5.5669,-5.5187,-5.5098,-5.3813,-5.3528,-5.5009,-5.3153,-5.3135,-5.6169,-5.6311,-5.6311,-5.6401,-5.6401,-5.6401,-5.6401,-5.6227,-5.5771,-5.5024,-5.4341,-5.3002,-5.1045,-5.0338,-5.0011,-5.0011,-4.9959,-4.9528,-4.8792,-4.8706,-4.7879,-4.6613,-4.6562,-4.6069,-4.5397,-4.5397,-4.5397,-4.5397,-4.5363,-4.4889,-4.4242,-4.4207,-4.3224,-4.1974,-4.1964,-4.2516,-4.2913,-4.1378,-4.1981,-4.2879,-4.1343,-4.0912,-4.0912,-4.0912,-4.0912,-4.0912,-4.0912,-4.0912,-4.0912,-4.0912,-4.0284,-3.9526,-3.8784,-3.8047,-3.7254,-3.6439,-3.6301,-3.6301,-3.6301,-3.6301,-3.6301,-3.6301,-3.5663,-3.4921,-3.4182,-3.3369,-3.261,-3.1852,-3.18,-3.18,-3.18,-3.18,-3.18,-3.18,-3.18,-3.18,-3.18,-3.18,-3.18,-3.18,-3.18,-3.18,-3.18,-3.1834,-3.2231,-5.0264,-5.2368,-5.4456,-5.5062,-5.5205,-5.4902,-5.3742,-5.2243,-5.0388,-4.7836,-4.6355,-4.4981,-4.3233,-4.4482,-4.6337,-4.7925,-5.0519,-5.2814,-5.4402,-5.4955,-5.4777,-5.3617,-5.3617,-5.3859,-5.4269,-5.4313,-5.4884,-5.6294,-5.5294,-5.5152,-5.6329,-5.6401,-5.6401,-5.6401,-5.5802,-5.5365,-5.5169,-5.3407,-5.1793,-5.0287,-5.0097,-5.0011,-4.9993,-4.939,-4.8982,-4.8741,-4.762,-4.6958,-4.6562,-4.5949,-4.5587,-4.5397,-4.5397,-4.5397,-4.5328,-4.4785,-4.4121,-4.3396,-4.2792,-4.2344,-4.1912,-4.136,-4.2102,-4.2913,-4.1378,-4.1981,-4.2879,-4.1343,-4.0912,-4.0912,-4.0912,-4.0912,-4.0912,-4.0912,-4.0912,-4.0912,-4.0912,-4.0739,-4.0377,-3.956,-3.8392,-3.7254,-3.6439,-3.6301,-3.6301,-3.6301,-3.6301,-3.6301,-3.6301,-3.5663,-3.4921,-3.4182,-3.3369,-3.261,-3.1852,-3.18,-3.18,-3.18,-3.18,-3.18,-3.18,-3.18,-3.18,-3.18,-3.18,-3.18,-3.18,-3.18,-3.18,-3.18,-3.2369,-3.2714,-5.2509,-5.4493,-5.6117,-5.5612,-5.5564,-5.4965,-5.2202,-5.0617,-4.8693,-4.5136,-4.3403,-4.2058,-4.0496,-4.1848,-4.3929,-4.6123,-4.9192,-5.2065,-5.4215,-5.4937,-5.4884,-5.401,-5.3974,-5.4126,-5.4483,-5.4608,-5.5152,-5.6311,-5.5562,-5.5455,-5.6347,-5.6401,-5.624,-5.5883,-5.5455,-5.4732,-5.3778,-5.214,-5.0861,-5.0011,-5.0011,-5.0011,-4.9976,-4.9154,-4.862,-4.8241,-4.7113,-4.6406,-4.6035,-4.5587,-4.5397,-4.5397,-4.5397,-4.5397,-4.5311,-4.4561,-4.3828,-4.3086,-4.2292,-4.1792,-4.1464,-4.1032,-4.1705,-4.2447,-4.1257,-4.174,-4.243,-4.124,-4.0912,-4.0912,-4.0912,-4.0912,-4.0912,-4.0912,-4.0912,-4.0912,-4.0912,-4.0912,-4.0584,-3.9439,-3.8306,-3.7254,-3.6439,-3.6301,-3.6301,-3.6301,-3.6301,-3.6301,-3.6301,-3.5939,-3.5387,-3.4645,-3.3886,-3.311,-3.2352,-3.199,-3.18,-3.18,-3.18,-3.18,-3.18,-3.18,-3.18,-3.18,-3.18,-3.18,-3.18,-3.18,-3.1972,-3.2283,-3.2714,-3.3266,-5.5395,-5.6721,-5.7328,-5.6161,-5.591,-5.4901,-5.0737,-4.889,-4.6952,-4.2956,-4.0733,-3.9259,-3.8582,-3.921,-4.1066,-4.48,-4.7548,-5.0544,-5.4428,-5.4928,-5.4902,-5.4902,-5.4384,-5.4269,-5.4991,-5.459,-5.4902,-5.6294,-5.6401,-5.6401,-5.6401,-5.6401,-5.599,-5.508,-5.4884,-5.3877,-5.1866,-5.0896,-5.0263,-5.0011,-5.0011,-4.9942,-4.9821,-4.8999,-4.8241,-4.75,-4.6741,-4.6035,-4.5397,-4.5397,-4.5397,-4.5397,-4.5397,-4.5328,-4.5156,-4.4449,-4.369,-4.293,-4.2137,-4.1447,-4.0912,-4.0912,-4.1412,-4.1861,-4.1119,-4.1429,-4.1861,-4.1119,-4.0912,-4.0912,-4.0912,-4.0912,-4.0912,-4.0912,-4.0912,-4.0912,-4.0912,-4.0912,-4.048,-3.9026,-3.8151,-3.7392,-3.6594,-3.637,-3.6301,-3.6301,-3.6301,-3.6301,-3.6301,-3.6301,-3.6025,-3.5266,-3.4628,-3.3869,-3.299,-3.2317,-3.1903,-3.18,-3.18,-3.18,-3.18,-3.18,-3.18,-3.18,-3.18,-3.18,-3.18,-3.1903,-3.2265,-3.2904,-3.311,-3.3921,-5.6111,-5.6933,-5.7376,-5.6466,-5.527,-5.3413,-5.0016,-4.6941,-4.385,-4.0473,-3.8473,-3.6839,-3.5253,-3.7499,-4.0401,-4.2912,-4.6362,-4.9896,-5.323,-5.3465,-5.3304,-5.3304,-5.3724,-5.4037,-5.418,-5.5294,-5.6097,-5.6383,-5.6401,-5.6401,-5.6401,-5.6401,-5.574,-5.4251,-5.3345,-5.228,-5.1013,-5.0589,-5.0263,-5.0011,-5.0011,-4.9666,-4.8965,-4.8224,-4.751,-4.6751,-4.5949,-4.5518,-4.5397,-4.5397,-4.5397,-4.5397,-4.5397,-4.5044,-4.4414,-4.3655,-4.2896,-4.2102,-4.136,-4.1015,-4.0912,-4.0912,-4.1412,-4.1861,-4.1119,-4.1429,-4.1861,-4.1119,-4.0912,-4.0912,-4.0912,-4.0912,-4.0912,-4.0912,-4.0912,-4.0912,-4.0912,-4.0912,-4.0636,-3.9681,-3.8905,-3.8163,-3.7426,-3.6732,-3.6301,-3.6301,-3.6301,-3.6301,-3.6301,-3.6301,-3.6025,-3.5266,-3.5076,-3.4438,-3.3024,-3.2783,-3.2455,-3.1834,-3.18,-3.18,-3.18,-3.18,-3.18,-3.18,-3.18,-3.18,-3.18,-3.2403,-3.2766,-3.2938,-3.4214,-3.4938,-5.7046,-5.7716,-5.7825,-5.6355,-5.4898,-5.2633,-4.7974,-4.4657,-4.1372,-3.7294,-3.5711,-3.4727,-3.3582,-3.596,-3.8751,-4.0762,-4.3824,-4.7232,-5.095,-5.1208,-5.1637,-5.3278,-5.3769,-5.4162,-5.4572,-5.5705,-5.6401,-5.6401,-5.6008,-5.5955,-5.6383,-5.5616,-5.4536,-5.3211,-5.2121,-5.127,-5.062,-5.0331,-5.0138,-4.9993,-4.9597,-4.9154,-4.8758,-4.762,-4.6941,-4.6562,-4.5742,-4.5397,-4.5397,-4.5397,-4.5397,-4.5397,-4.5397,-4.4958,-4.4207,-4.3465,-4.2689,-4.1895,-4.117,-4.0912,-4.0912,-4.0912,-4.1153,-4.1429,-4.1464,-4.1723,-4.1947,-4.1585,-4.1481,-4.1395,-4.0998,-4.0912,-4.0912,-4.0912,-4.0912,-4.0912,-4.0912,-4.0912,-4.067,-3.9853,-3.9094,-3.8375,-3.7633,-3.6818,-3.6301,-3.6301,-3.6301,-3.6301,-3.6301,-3.6301,-3.6163,-3.5801,-3.5421,-3.4887,-3.4162,-3.3369,-3.2748,-3.2386,-3.2007,-3.18,-3.18,-3.18,-3.1972,-3.2369,-3.2369,-3.2576,-3.3009,-3.3352,-3.3714,-3.4111,-3.4852,-3.5404,-5.7617,-5.8209,-5.8023,-5.6269,-5.4544,-5.1825,-4.6257,-4.2758,-3.9396,-3.4838,-3.346,-3.2981,-3.2669,-3.4458,-3.678,-3.9219,-4.1505,-4.453,-4.8946,-4.9475,-5.0497,-5.3421,-5.3894,-5.4304,-5.5134,-5.5937,-5.6329,-5.6151,-5.5401,-5.5223,-5.5847,-5.4545,-5.3344,-5.244,-5.1369,-5.0684,-5.0397,-5.012,-4.9924,-4.9752,-4.9085,-4.862,-4.8275,-4.7148,-4.651,-4.632,-4.5673,-4.5397,-4.5397,-4.5397,-4.5397,-4.538,-4.5225,-4.4716,-4.3966,-4.3224,-4.2447,-4.1688,-4.1101,-4.0912,-4.0912,-4.0912,-4.0912,-4.105,-4.1792,-4.2016,-4.2016,-4.2016,-4.2016,-4.1843,-4.1101,-4.0912,-4.0912,-4.0912,-4.0912,-4.0912,-4.0912,-4.0912,-4.0722,-4.0077,-3.9336,-3.8594,-3.7875,-3.7077,-3.649,-3.6335,-3.6301,-3.6301,-3.6301,-3.6301,-3.6301,-3.6301,-3.5783,-3.537,-3.5197,-3.4093,-3.3335,-3.3162,-3.2455,-3.2041,-3.2041,-3.2041,-3.2317,-3.2886,-3.3076,-3.3455,-3.4113,-3.4268,-3.4628,-3.5197,-3.5352,-3.5749,-5.7115,-5.7581,-5.7377,-5.6466,-5.3923,-5.0506,-4.6236,-4.2035,-3.8048,-3.4613,-3.2728,-3.1825,-3.2265,-3.2893,-3.4801,-3.9227,-4.0708,-4.3158,-4.8418,-4.9495,-5.0545,-5.274,-5.3599,-5.4304,-5.5134,-5.5937,-5.6097,-5.5384,-5.4554,-5.4126,-5.4215,-5.3439,-5.2818,-5.2422,-5.1369,-5.0684,-5.0397,-5.012,-4.9648,-4.8896,-4.8827,-4.8086,-4.6803,-4.6665,-4.619,-4.55,-4.5432,-4.5397,-4.5397,-4.5397,-4.5397,-4.5328,-4.4647,-4.3949,-4.3207,-4.2413,-4.1654,-4.0998,-4.0929,-4.0912,-4.0912,-4.0912,-4.0912,-4.105,-4.1792,-4.2016,-4.2016,-4.2016,-4.2016,-4.1843,-4.1101,-4.0912,-4.0912,-4.0912,-4.0912,-4.0912,-4.0912,-4.0912,-4.0877,-4.0808,-4.017,-3.9353,-3.8634,-3.7892,-3.715,-3.6404,-3.6301,-3.6301,-3.6301,-3.6301,-3.6301,-3.6301,-3.6232,-3.5921,-3.5249,-3.5059,-3.4697,-3.4044,-3.3231,-3.28,-3.28,-3.28,-3.2835,-3.2904,-3.3611,-3.4027,-3.4113,-3.4766,-3.5128,-3.5214,-3.5887,-3.6232,-5.5559,-5.6395,-5.6469,-5.5131,-5.2698,-4.9429,-4.4841,-4.0548,-3.6586,-3.3309,-3.1742,-3.1016,-3.1248,-3.1733,-3.3075,-3.603,-3.6507,-3.812,-4.2668,-4.4183,-4.6273,-5.0251,-5.1851,-5.3492,-5.5705,-5.5776,-5.5152,-5.3903,-5.351,-5.3135,-5.2654,-5.2796,-5.2455,-5.1466,-5.1015,-5.0575,-5.0149,-5.0051,-4.9614,-4.8792,-4.8344,-4.7614,-4.6596,-4.6086,-4.569,-4.5397,-4.5397,-4.5397,-4.5363,-4.4923,-4.4734,-4.4665,-4.3931,-4.3155,-4.2447,-4.2137,-4.1533,-4.0912,-4.0912,-4.0912,-4.0912,-4.0912,-4.1205,-4.1723,-4.2499,-4.2378,-4.2102,-4.2585,-4.2378,-4.1843,-4.1101,-4.0912,-4.0912,-4.0912,-4.0912,-4.0912,-4.0912,-4.0912,-4.0912,-4.0912,-4.0233,-3.9457,-3.8715,-3.7996,-3.7236,-3.6422,-3.6301,-3.6301,-3.6301,-3.6301,-3.6301,-3.6301,-3.6301,-3.618,-3.5887,-3.5456,-3.5059,-3.4766,-3.4024,-3.3611,-3.3611,-3.3611,-3.3835,-3.4283,-3.4594,-3.4973,-3.5421,-3.5714,-3.5852,-3.587,-3.6163,-3.6301,-5.3794,-5.4909,-5.528,-5.4091,-5.1584,-4.824,-4.3801,-3.9435,-3.5491,-3.2425,-3.0976,-3.0326,-3.0549,-3.0957,-3.1892,-3.3876,-3.4079,-3.5393,-3.9416,-4.1053,-4.3492,-4.7908,-4.974,-5.1708,-5.4402,-5.4563,-5.4037,-5.2836,-5.2551,-5.2151,-5.1479,-5.1977,-5.1829,-5.082,-5.0803,-5.0537,-5.0011,-4.9769,-4.9269,-4.8465,-4.7751,-4.6993,-4.6234,-4.5656,-4.5397,-4.5397,-4.5397,-4.5276,-4.5044,-4.4492,-4.4173,-4.3897,-4.3138,-4.2499,-4.1957,-4.1774,-4.136,-4.0912,-4.0912,-4.0912,-4.0912,-4.0912,-4.1412,-4.2154,-4.2965,-4.2792,-4.2482,-4.3034,-4.2465,-4.1567,-4.1032,-4.0912,-4.0912,-4.0912,-4.0912,-4.0912,-4.0912,-4.0912,-4.0912,-4.0912,-4.0446,-3.9733,-3.8767,-3.8163,-3.7495,-3.6456,-3.6301,-3.6301,-3.6301,-3.6301,-3.6301,-3.6301,-3.6301,-3.6301,-3.6301,-3.5818,-3.5525,-3.5525,-3.4818,-3.4441,-3.4441,-3.4441,-3.4683,-3.518,-3.5404,-3.5783,-3.6301,-3.6301,-3.6301,-3.6301,-3.6301,-3.6301,-5.1955,-5.3218,-5.3831,-5.3813,-5.0748,-4.6865,-4.3559,-3.9008,-3.4822,-3.2314,-3.053,-2.9657,-3.0456,-3.0604,-3.1403,-3.3807,-3.4702,-3.6495,-4.0517,-4.1996,-4.3594,-4.6044,-4.7452,-4.8859,-5.0405,-5.1976,-5.2782,-5.2422,-5.1732,-5.1176,-5.0847,-5.082,-5.082,-5.0803,-5.0803,-5.0537,-5.0011,-4.9206,-4.843,-4.7689,-4.6975,-4.6173,-4.5414,-4.5397,-4.5397,-4.5397,-4.5397,-4.4992,-4.4311,-4.4311,-4.388,-4.3138,-4.2327,-4.2016,-4.1912,-4.1188,-4.0912,-4.0912,-4.0912,-4.0912,-4.0912,-4.0912,-4.1412,-4.2154,-4.2965,-4.3189,-4.3189,-4.3189,-4.2085,-4.0912,-4.0912,-4.0912,-4.0912,-4.0912,-4.0912,-4.0912,-4.0912,-4.0912,-4.0912,-4.0912,-4.0894,-4.0411,-3.8853,-3.8577,-3.806,-3.6525,-3.6301,-3.6301,-3.6301,-3.6301,-3.6301,-3.6301,-3.6301,-3.6301,-3.6301,-3.6284,-3.6284,-3.6284,-3.5594,-3.518,-3.518,-3.518,-3.518,-3.5197,-3.5921,-3.6284,-3.6301,-3.6301,-3.6301,-3.6301,-3.6301,-3.6301,-4.6513,-4.8147,-4.9094,-4.6847,-4.5714,-4.4172,-4.0327,-3.7392,-3.4804,-3.2314,-3.0511,-2.9471,-2.9731,-2.9768,-3.0753,-3.3714,-3.4352,-3.5473,-3.8309,-4.0694,-4.2955,-4.516,-4.9394,-5.2154,-5.2136,-5.2392,-5.2307,-5.1696,-5.122,-5.0901,-5.082,-5.0803,-5.0712,-5.0537,-5.0537,-5.0359,-4.9993,-4.9189,-4.843,-4.7672,-4.6958,-4.6173,-4.5397,-4.5397,-4.5397,-4.5397,-4.5397,-4.4992,-4.4259,-4.3759,-4.3086,-4.2309,-4.155,-4.1257,-4.1222,-4.0998,-4.0912,-4.0912,-4.0912,-4.0912,-4.0981,-4.1498,-4.2189,-4.2861,-4.312,-4.2827,-4.2275,-4.1774,-4.1291,-4.0912,-4.0912,-4.0912,-4.0912,-4.0912,-4.0912,-4.0912,-4.0912,-4.0912,-4.0912,-4.0912,-4.0912,-4.0584,-3.9526,-3.9353,-3.8836,-3.7357,-3.7133,-3.6904,-3.637,-3.6301,-3.6301,-3.6301,-3.6301,-3.6301,-3.6301,-3.6301,-3.6301,-3.6301,-3.6077,-3.5956,-3.5956,-3.5956,-3.5956,-3.5956,-3.618,-3.6301,-3.6301,-3.6301,-3.6301,-3.6301,-3.6301,-3.6301,-4.3132,-4.4674,-4.5435,-4.3689,-4.2946,-4.1813,-3.8618,-3.6179,-3.4042,-3.2184,-3.0511,-2.9396,-2.9396,-2.9638,-3.0511,-3.2518,-3.3283,-3.4554,-3.7186,-3.9455,-4.1957,-4.4959,-4.9144,-5.1744,-5.1547,-5.1861,-5.1803,-5.1167,-5.0874,-5.0657,-5.0509,-5.0509,-5.0286,-4.9812,-5.0202,-5.0135,-4.9562,-4.8758,-4.8,-4.7286,-4.65,-4.588,-4.5397,-4.5397,-4.5397,-4.5397,-4.5397,-4.482,0.0,-4.3379,-4.2568,-4.155,-4.1084,-4.0912,-4.0912,-4.0912,-4.0912,-4.0912,-4.0912,-4.0912,-4.1032,-4.1774,-4.2551,-4.3138,-4.2844,-4.2413,-4.1861,-4.1119,-4.0912,-4.0912,-4.0912,-4.0912,-4.0912,-4.0912,-4.0912,-4.0912,-4.0912,-4.0912,-4.0912,-4.0912,-4.0912,-4.0653,-3.9836,-3.9457,-3.887,-3.7685,-3.7254,-3.6853,-3.6353,-3.6301,-3.6301,-3.6301,-3.6301,-3.6301,-3.6301,-3.6301,-3.6301,-3.6301,-3.6301,-3.6301,-3.6301,-3.6301,-3.6301,-3.6301,-3.6301,-3.6301,-3.6301,-3.6301,-3.6301,-3.6301,-3.6301,-3.6301,0.0,-4.2314,-4.2575,-4.3095,-4.1609,-3.9598,-3.7856,-3.5107,0.0,-3.1886,-3.0474,-2.9434,-2.9545,-3.0121,-3.0697,-3.0995,-3.2132,-3.4092,-3.7272,-3.8814,-4.1243,-4.5565,-4.7484,-4.871,-4.9382,-5.0684,-5.1307,-5.083,-5.0667,-5.0408,-5.0022,-4.9959,-4.9579,-4.881,-4.9715,-4.9743,-4.8723,-4.7982,-4.7286,-4.6596,-4.5776,-4.5397,-4.5397,-4.5397,-4.5397,-4.5397,-4.5328,-4.4509,-4.3189,-4.3138,-4.224,-4.0912,-4.0912,-4.0912,-4.0912,-4.0912,-4.0912,-4.0912,-4.0912,-4.0929,-4.1101,-4.1843,-4.2551,-4.2982,-4.224,-4.2016,-4.1861,-4.1119,-4.0912,-4.0912,-4.0912,-4.0912,-4.0912,-4.0912,-4.0912,-4.0912,-4.0912,-4.0912,-4.0912,-4.0912,-4.0912,-4.067,-3.9905,-3.9215,-3.8474,-3.7702,-3.6939,-3.6422,-3.6318,-3.6301,-3.6301,-3.6301,-3.6301,-3.6301,-3.6301,-3.6301,-3.6301,-3.6301,-3.6301,-3.6301,-3.6301,-3.6301,-3.6301,-3.6301,-3.6301,-3.6301,-3.6301,-3.6301,-3.6301,-3.6301,-3.6301,-3.6301,-3.5962,0.0,-3.8488,-3.6166,-3.6123,-3.6049,0.0,-3.2648,-3.1849,-3.105,-3.0084,-2.9768,-3.1013,-3.0883,-3.1626,-3.4767,-3.5546,-3.6695,-3.9351,-4.2661,-4.5852,-4.8537,-5.0038,-5.0941,-5.1119,-5.1249,-5.1184,-5.0847,-5.0575,-5.0331,-5.004,-4.9441,-4.8999,-4.881,-4.8497,-4.8204,-4.7948,-4.7234,-4.6786,-4.6596,-4.5776,-4.5397,-4.5397,-4.5397,-4.5397,-4.5363,-4.4803,-4.4052,-4.3155,-4.2551,-4.174,-4.0912,-4.0912,-4.0912,-4.0912,-4.0912,-4.0912,-4.0912,-4.0912,-4.1274,-4.1878,-4.2654,-4.2637,-4.2258,-4.2068,-4.2016,-4.1861,-4.1119,-4.0912,-4.0912,-4.0912,-4.0912,-4.0912,-4.0912,-4.0912,-4.0912,-4.0912,-4.0912,-4.0912,-4.0912,-4.0912,-4.0843,-4.0653,-4.048,-3.9911,-3.8565,-3.8163,-3.7629,-3.6456,-3.6301,-3.6301,-3.6301,-3.6301,-3.6301,-3.6301,-3.6301,-3.6301,-3.6301,-3.6301,-3.6301,-3.6301,-3.6301,-3.6301,-3.6301,-3.6301,-3.6301,-3.6301,-3.6301,-3.6301,-3.6301,-3.6301,-3.6301,-3.364,-3.5194,-3.6383,-3.4599,-3.4525,-3.4562,-3.3224,-3.2035,-3.1125,-3.0697,-2.9954,-2.9768,-3.1013,-3.1199,-3.1998,-3.4581,-3.5974,-3.7868,-4.1164,-4.4709,-4.7611,-4.9377,-5.0831,-5.169,-5.169,-5.1402,-5.1097,-5.082,-5.0178,-4.9715,-4.9459,-4.8706,-4.8137,-4.7793,-4.7396,-4.7217,-4.7217,-4.6803,-4.6397,-4.6035,-4.5604,-4.5397,-4.5397,-4.5397,-4.5397,-4.5363,-4.4613,-4.388,-4.3138,-4.2344,-4.1585,-4.0912,-4.0912,-4.0912,-4.0912,-4.0912,-4.0912,-4.0963,-4.1291,-4.1912,-4.2516,-4.224,-4.2085,-4.1947,-4.1602,-4.1498,-4.1412,-4.1015,-4.0912,-4.0912,-4.0912,-4.0912,-4.0912,-4.0912,-4.0912,-4.0912,-4.0912,-4.0912,-4.0912,-4.0912,-4.0912,-4.0912,-4.0912,-4.0601,-4.006,-3.9215,-3.8525,-3.7784,-3.6956,-3.6525,-3.6301,-3.6301,-3.6301,-3.6301,-3.6301,-3.6301,-3.6301,-3.6301,-3.6301,-3.6301,-3.6301,-3.6301,-3.6301,-3.6301,-3.6301,-3.6301,-3.6301,-3.6301,-3.6301,-3.6301,-3.6301,-3.6301,-3.3001,-3.4321,-3.5566,-3.5064,-3.455,-3.4141,-3.3881,-3.2258,-3.0772,-3.0772,-3.0233,-3.0047,-3.0976,-3.1812,-3.2667,-3.3596,-3.5937,-3.9009,-4.2994,-4.5929,-4.8087,-4.9257,-5.0751,-5.169,-5.164,-5.1324,-5.0982,-5.0608,-4.9687,-4.8983,-4.8665,-4.7913,-4.7269,-4.6631,-4.6493,-4.6424,-4.6424,-4.6424,-4.6069,-4.5397,-4.5397,-4.5397,-4.5397,-4.5397,-4.5328,-4.5173,-4.444,-4.3707,-4.2965,-4.2171,-4.1464,-4.0912,-4.0912,-4.0912,-4.0912,-4.0912,-4.0981,-4.117,-4.193,-4.2551,-4.2792,-4.1498,-4.1412,-4.1723,-4.1101,-4.0912,-4.0912,-4.0912,-4.0912,-4.0912,-4.0912,-4.0912,-4.0912,-4.0912,-4.0912,-4.0912,-4.0912,-4.0912,-4.0912,-4.0912,-4.0912,-4.0912,-4.0912,-4.0319,-3.9836,-3.9715,-3.8525,-3.7633,-3.7512,-3.6801,-3.6301,-3.6301,-3.6301,-3.6301,-3.6301,-3.6301,-3.6301,-3.6301,-3.6301,-3.6301,-3.6301,-3.6301,-3.6301,-3.6301,-3.6301,-3.6301,-3.6301,-3.6301,-3.6301,-3.6301,-3.6301,-3.6301,-3.3059,-3.4729,-3.5863,-3.3057,-3.3299,-3.3844,-3.2481,-3.1886,-3.1626,-3.1626,-3.1515,-3.1886,-3.3373,-3.4358,-3.5417,-3.6922,-3.9788,-4.2727,-4.522,-4.7449,-4.9049,-4.9645,-5.0886,-5.1615,-5.1384,-5.1324,-5.0779,-4.962,-4.9381,-4.8868,-4.7924,-4.7182,-4.6734,-4.6613,-4.5931,-4.5569,-4.5569,-4.5569,-4.5518,-4.5397,-4.5397,-4.5397,-4.5397,-4.5397,-4.5061,-4.4432,-4.369,-4.2913,-4.2137,-4.1395,-4.1015,-4.0912,-4.0912,-4.0912,-4.0912,-4.0912,-4.1309,-4.1947,-4.2741,-4.2654,-4.2154,-4.1912,-4.1498,-4.105,-4.0929,-4.0912,-4.0912,-4.0912,-4.0912,-4.0912,-4.0912,-4.0912,-4.0912,-4.0912,-4.0912,-4.0912,-4.0912,-4.0912,-4.0912,-4.0912,-4.0912,-4.0912,-4.0912,-4.0808,-4.0498,-3.9802,-3.8974,-3.822,-3.7581,-3.6801,-3.6301,-3.6301,-3.6301,-3.6301,-3.6301,-3.6301,-3.6301,-3.6301,-3.6301,-3.6301,-3.6301,-3.6301,-3.6301,-3.6301,-3.6301,-3.6301,-3.6301,-3.6301,-3.6301,-3.6301,-3.6301,-3.6301,-3.1738,-3.3169,-3.4339,-3.2834,-3.4327,-3.5887,-3.4729,-3.3763,-3.3113,-3.3113,-3.3113,-3.3466,-3.4692,-3.5937,-3.7764,-4.0717,-4.2853,-4.4728,-4.636,-4.7538,-4.8583,-4.9531,-5.0359,-5.0931,-5.1158,-5.0726,-5.011,-4.9346,-4.84,-4.763,-4.7131,-4.6362,-4.5949,-4.5949,-4.5587,-4.5397,-4.5397,-4.5397,-4.5397,-4.5397,-4.5397,-4.5397,-4.538,-4.4992,-4.4613,-4.4242,-4.3069,-4.2344,-4.1947,-4.1205,-4.0912,-4.0912,-4.0912,-4.0912,-4.0963,-4.136,-4.224,-4.3189,-4.2706,-4.2603,-4.2516,-4.1688,-4.1188,-4.0912,-4.0912,-4.0912,-4.0912,-4.0912,-4.0912,-4.0912,-4.0912,-4.0912,-4.0912,-4.0912,-4.0912,-4.0912,-4.0912,-4.0912,-4.0912,-4.0912,-4.0912,-4.0912,-4.0912,-4.0912,-4.0636,-3.9819,-3.906,-3.8341,-3.7599,-3.6801,-3.6301,-3.6301,-3.6301,-3.6301,-3.6301,-3.6301,-3.6301,-3.6301,-3.6301,-3.6301,-3.6301,-3.6301,-3.6301,-3.6301,-3.6301,-3.6301,-3.6301,-3.6301,-3.6301,-3.6301,-3.6301,-3.6301,-3.1163,-3.2072,-3.3045,-3.3231,-3.5163,-3.7021,-3.6983,-3.5832,-3.4884,-3.5274,-3.5497,-3.5751,-3.6012,-3.7541,-4.003,-4.3949,-4.5289,-4.6161,-4.7092,-4.7538,-4.8077,-4.8907,-4.9451,-4.9905,-5.0356,-4.9741,-4.9134,-4.8697,-4.7388,-4.6527,-4.6337,-4.5725,-4.5397,-4.5397,-4.5397,-4.5397,-4.5397,-4.5397,-4.5397,-4.5397,-4.5397,-4.5311,-4.513,-4.457,-4.4104,-4.3707,-4.2516,-4.2016,-4.1947,-4.1205,-4.1015,-4.1153,-4.0981,-4.1015,-4.1274,-4.2206,-4.3189,-4.388,-4.2689,-4.2568,-4.2706,-4.1343,-4.0912,-4.0912,-4.0912,-4.0912,-4.0912,-4.0912,-4.0912,-4.0912,-4.0912,-4.0912,-4.0912,-4.0912,-4.0912,-4.0912,-4.0912,-4.0912,-4.0912,-4.0912,-4.0912,-4.0843,-4.0653,-4.0636,-4.0411,-3.9784,-3.8922,-3.8203,-3.7823,-3.6887,-3.6301,-3.6301,-3.6301,-3.6301,-3.6301,-3.6301,-3.6301,-3.6301,-3.6301,-3.6301,-3.6301,-3.6301,-3.6301,-3.6301,-3.6301,-3.6301,-3.6301,-3.6301,-3.6301,-3.6301,-3.649,-3.6577,-3.2735,-3.2908,-3.3187,-3.3918,-3.429,-3.5052,-3.7299,-3.7132,-3.6941,-3.8432,-3.938,-3.9505,-3.7986,-3.9695,-4.2426,-4.5769,-4.6947,-4.7462,-4.7557,-4.8121,-4.8281,-4.7625,-4.8246,-4.8592,-4.8337,-4.8258,-4.7829,-4.6874,-4.6665,-4.6259,-4.5518,-4.5432,-4.5397,-4.5397,-4.5397,-4.5397,-4.5397,-4.5397,-4.5397,-4.5397,-4.5397,-4.5044,-4.438,-4.4328,-4.3517,-4.2171,-4.2043,-4.2016,-4.1947,-4.1205,-4.1309,-4.1861,-4.117,-4.1326,-4.2102,-4.3603,-4.3776,-4.3258,-4.3155,-4.2654,-4.1964,-4.117,-4.0912,-4.0912,-4.0912,-4.0912,-4.0912,-4.0912,-4.0912,-4.0912,-4.0912,-4.0912,-4.0912,-4.0912,-4.0912,-4.0912,-4.0912,-4.0912,-4.0912,-4.0912,-4.0912,-4.067,-3.9905,-3.9784,-3.9767,-3.9698,-3.8474,-3.7823,-3.8444,-3.7215,-3.6301,-3.6301,-3.6301,-3.6301,-3.6301,-3.6301,-3.6301,-3.6301,-3.6301,-3.6301,-3.6301,-3.6301,-3.6301,-3.6301,-3.6301,-3.6301,-3.6301,-3.6301,-3.6301,-3.6318,-3.7081,-3.7426,-3.0769,-3.1496,-3.2462,-3.3262,-3.4246,-3.5659,-3.8079,-3.9212,-4.0197,-4.1813,-4.2407,-4.2296,-4.1163,-4.2084,-4.3592,-4.5354,-4.6746,-4.7737,-4.8119,-4.7844,-4.7685,-4.7874,-4.7734,-4.7701,-4.7941,-4.7656,-4.7194,-4.6631,-4.6121,-4.5707,-4.5414,-4.5397,-4.5397,-4.5397,-4.5397,-4.5397,-4.5397,-4.5397,-4.5397,-4.5397,-4.5397,-4.5242,-4.4958,-4.4035,-4.3552,-4.3379,-4.243,-4.2292,-4.2689,-4.1912,-4.1757,-4.1981,-4.1705,-4.2344,-4.3448,-4.3569,-4.3724,-4.3741,-4.2792,-4.2258,-4.1895,-4.1153,-4.0912,-4.0912,-4.0912,-4.0912,-4.0912,-4.0912,-4.0912,-4.0912,-4.0912,-4.0912,-4.0912,-4.0912,-4.0912,-4.0912,-4.0912,-4.0912,-4.0912,-4.0912,-4.0912,-4.0808,-4.0515,-4.0463,-4.0267,-3.9767,-3.9215,-3.8629,-3.8013,-3.7426,-3.6853,-3.6353,-3.6301,-3.6301,-3.6301,-3.6301,-3.6301,-3.6301,-3.6301,-3.6301,-3.6301,-3.6301,-3.6301,-3.6301,-3.6301,-3.6301,-3.6301,-3.6301,-3.6301,-3.6318,-3.7133,-3.7512,-3.0014,-3.0772,-3.1998,-3.2797,-3.4445,-3.6536,-3.9226,-4.0758,-4.2114,-4.3926,-4.3923,-4.3568,-4.35,-4.3709,-4.4233,-4.529,-4.681,-4.7978,-4.8251,-4.7656,-4.7281,-4.7535,-4.7083,-4.6839,-4.7096,-4.6733,-4.6429,-4.6234,-4.5707,-4.5397,-4.5397,-4.5397,-4.5397,-4.5397,-4.5397,-4.5397,-4.5397,-4.5397,-4.5397,-4.5397,-4.5397,-4.5276,-4.5027,-4.4018,-4.369,-4.3897,-4.2844,-4.2827,-4.3483,-4.2706,-4.2378,-4.2378,-4.2378,-4.3034,-4.3897,-4.3379,-4.3362,-4.3431,-4.2378,-4.1861,-4.1585,-4.1067,-4.0912,-4.0912,-4.0912,-4.0912,-4.0912,-4.0912,-4.0912,-4.0912,-4.0912,-4.0912,-4.0912,-4.0912,-4.0912,-4.0912,-4.0912,-4.0912,-4.0912,-4.0912,-4.0912,-4.0825,-4.0567,-4.0532,-4.0319,-3.9767,-3.9491,-3.8974,-3.7996,-3.765,-3.718,-3.6387,-3.6301,-3.6301,-3.6301,-3.6301,-3.6301,-3.6301,-3.6301,-3.6301,-3.6301,-3.6301,-3.6301,-3.6301,-3.6301,-3.6301,-3.6301,-3.6301,-3.6301,-3.6318,-3.7353,-3.7858,-3.1134,-3.118,-3.1998,-3.2816,-3.4841,-3.7475,-4.0696,-4.1531,-4.2288,-4.4558,-4.3814,-4.3217,-4.4726,-4.4406,-4.442,-4.5963,-4.7481,-4.8324,-4.7875,-4.7692,-4.727,-4.6315,-4.6211,-4.5988,-4.5476,-4.5397,-4.5397,-4.538,-4.5397,-4.5397,-4.538,-4.5397,-4.5397,-4.5397,-4.5397,-4.5397,-4.5397,-4.5397,-4.5397,-4.5397,-4.5397,-4.5027,-4.4311,-4.4311,-4.3914,-4.3224,-4.3207,-4.3621,-4.4259,-4.35,-4.3207,-4.3207,-4.3207,-4.3207,-4.3207,-4.3189,-4.2689,-4.2016,-4.1974,-4.1516,-4.0912,-4.0912,-4.0912,-4.0912,-4.0912,-4.0912,-4.0912,-4.0912,-4.0912,-4.0912,-4.0912,-4.0912,-4.0912,-4.0912,-4.0912,-4.0912,-4.0912,-4.0912,-4.0912,-4.0912,-4.0912,-4.0653,-3.9836,-3.9715,-3.9715,-3.9715,-3.9077,-3.8612,-3.8594,-3.7961,-3.718,-3.6404,-3.6301,-3.6301,-3.6301,-3.6301,-3.6301,-3.6301,-3.6301,-3.6301,-3.6301,-3.6301,-3.6301,-3.6301,-3.6301,-3.6301,-3.6301,-3.6301,-3.6301,-3.6353,-3.7887,-3.8594,-3.0255,-3.1233,-3.2829,-3.3586,-3.647,-3.9797,-4.2352,-4.349,-4.4683,-4.7035,-4.6686,-4.5913,-4.5874,-4.5635,-4.5582,-4.599,-4.6966,-4.7776,-4.8098,-4.7836,-4.7506,-4.7226,-4.6607,-4.6137,-4.598,-4.5615,-4.5173,-4.4665,-4.5113,-4.5156,-4.4647,-4.513,-4.5397,-4.5397,-4.5397,-4.5397,-4.5397,-4.5397,-4.5397,-4.5397,-4.5397,-4.5276,-4.5061,-4.4552,-4.4458,-4.4734,-4.4207,-4.4389,-4.5027,-4.4294,-4.3966,-4.3966,-4.3966,-4.3966,-4.3914,-4.3379,-4.2689,-4.1947,-4.1412,-4.1084,-4.0912,-4.0912,-4.0912,-4.0912,-4.0912,-4.0912,-4.0912,-4.0912,-4.0912,-4.0912,-4.0912,-4.0912,-4.0912,-4.0912,-4.0912,-4.0912,-4.0912,-4.0912,-4.0912,-4.0912,-4.0912,-4.0825,-4.0601,-4.0549,-4.0549,-4.0549,-4.0359,-4.0014,-3.9439,-3.8289,-3.7409,-3.7185,-3.6628,-3.6301,-3.6301,-3.6301,-3.6301,-3.6301,-3.6301,-3.6301,-3.6301,-3.6301,-3.6301,-3.6301,-3.6301,-3.6301,-3.6301,-3.6301,-3.6594,-3.7185,-3.8146,-3.887,-3.0656,-3.2166,-3.4204,-3.5264,-3.7863,-4.0905,-4.3839,-4.52,-4.6358,-4.8163,-4.761,-4.6745,-4.658,-4.6285,-4.6157,-4.6415,-4.7151,-4.783,-4.8233,-4.8055,-4.7688,-4.7177,-4.6454,-4.5811,-4.5291,-4.5076,-4.4768,-4.4328,-4.4992,-4.5207,-4.4751,-4.5156,-4.5397,-4.5397,-4.5397,-4.5397,-4.5397,-4.5397,-4.5397,-4.5397,-4.5397,-4.5397,-4.538,-4.4941,-4.4992,-4.538,-4.4941,-4.4992,-4.5363,-4.4923,-4.4734,-4.4665,-4.4104,-4.3862,-4.3724,-4.2672,-4.1981,-4.1516,-4.105,-4.0912,-4.0912,-4.0912,-4.0912,-4.0912,-4.0912,-4.0912,-4.0912,-4.0912,-4.0912,-4.0912,-4.0912,-4.0912,-4.0912,-4.0912,-4.0912,-4.0912,-4.0912,-4.0912,-4.0912,-4.0912,-4.0912,-4.0912,-4.0912,-4.0912,-4.0912,-4.0912,-4.0636,-4.0256,-3.975,-3.8663,-3.7823,-3.753,-3.7081,-3.6646,-3.6335,-3.6301,-3.6301,-3.6301,-3.6301,-3.6301,-3.6301,-3.6301,-3.6301,-3.6301,-3.6301,-3.6301,-3.6301,-3.6301,-3.6715,-3.753,-3.8272,-3.8991,-3.1823,-3.358,-3.5869,-3.7414,-3.9176,-4.1438,-4.4983,-4.6416,-4.726,-4.8181,-4.7095,-4.6195,-4.6874,-4.6434,-4.6213,-4.6893,-4.759,-4.8086,-4.8086,-4.8086,-4.7675,-4.6585,-4.6043,-4.5334,-4.4185,-4.4317,-4.4397,-4.4207,-4.4889,-4.5225,-4.5087,-4.5156,-4.5225,-4.5294,-4.5294,-4.5328,-4.5397,-4.5397,-4.5363,-4.5294,-4.5363,-4.5363,-4.5294,-4.5363,-4.5397,-4.5397,-4.5397,-4.5397,-4.5397,-4.5328,-4.5294,-4.5156,-4.3759,-4.3155,-4.2913,-4.1516,-4.0963,-4.0912,-4.0912,-4.0912,-4.0912,-4.0912,-4.0912,-4.0912,-4.0912,-4.0912,-4.0912,-4.0912,-4.0912,-4.0912,-4.0912,-4.0912,-4.0912,-4.0912,-4.0912,-4.0912,-4.0912,-4.0912,-4.0912,-4.0912,-4.0912,-4.0912,-4.0912,-4.0912,-4.0912,-4.0912,-4.0267,-3.9802,-3.9802,-3.9146,-3.8444,-3.7771,-3.765,-3.7284,-3.6559,-3.6508,-3.6508,-3.6508,-3.6439,-3.6404,-3.6404,-3.6335,-3.6301,-3.6301,-3.6301,-3.6301,-3.6301,-3.6301,-3.6749,-3.7616,-3.8306,-3.9026,-3.2117,-3.413,-3.6639,-3.8177,-4.1156,-4.3936,-4.4764,-4.559,-4.6397,-4.7242,-4.6599,-4.5975,-4.6122,-4.603,-4.5975,-4.6122,-4.6305,-4.6416,-4.6416,-4.6416,-4.6544,-4.6907,-4.6533,-4.6241,-4.6242,-4.5963,-4.513,-4.3542,-4.4121,-4.3992,-4.2785,-4.332,-4.3949,-4.4535,-4.4552,-4.482,-4.5397,-4.5397,-4.5104,-4.4552,-4.513,-4.5113,-4.457,-4.5147,-4.5397,-4.5397,-4.5397,-4.5397,-4.5363,-4.4768,-4.4552,-4.4466,-4.3552,-4.281,-4.2223,-4.1895,-4.1412,-4.0912,-4.0912,-4.0912,-4.0912,-4.0912,-4.0912,-4.0912,-4.0912,-4.0912,-4.0912,-4.0912,-4.0912,-4.0912,-4.0912,-4.0912,-4.0912,-4.0912,-4.0912,-4.0912,-4.0912,-4.0912,-4.0912,-4.0912,-4.0912,-4.0912,-4.0912,-4.0912,-4.0912,-4.0912,-4.0756,-4.0653,-4.0653,-3.9939,-3.9388,-3.9232,-3.8698,-3.8284,-3.8112,-3.8094,-3.8094,-3.8094,-3.756,-3.7254,-3.7254,-3.6628,-3.6301,-3.6301,-3.6301,-3.6301,-3.6301,-3.6301,-3.7008,-3.8375,-3.8525,-3.9341,-3.2768,-3.4494,-3.6528,-3.9271,-4.2336,-4.4691,-4.4691,-4.5021,-4.5443,-4.5847,-4.592,-4.5902,-4.5902,-4.5902,-4.5902,-4.5902,-4.5902,-4.5902,-4.5902,-4.5902,-4.592,-4.5938,-4.5544,-4.5208,-4.5018,-4.4706,-4.4084,-4.3036,-4.3469,-4.3414,-4.262,-4.2965,-4.3379,-4.3759,-4.3776,-4.3966,-4.4337,-4.4354,-4.4147,-4.3776,-4.4147,-4.4147,-4.381,-4.4906,-4.5397,-4.5397,-4.5397,-4.5397,-4.5363,-4.4992,-4.4613,-4.4225,-4.3483,-4.2706,-4.1964,-4.1602,-4.124,-4.0912,-4.0912,-4.0912,-4.0912,-4.0912,-4.0912,-4.0912,-4.0912,-4.0912,-4.0912,-4.0912,-4.0912,-4.0912,-4.0912,-4.0912,-4.0912,-4.0912,-4.0912,-4.0912,-4.0912,-4.0912,-4.0912,-4.0912,-4.0912,-4.0912,-4.0912,-4.0912,-4.0912,-4.0912,-4.0912,-4.0912,-4.0912,-4.0549,-4.0112,-3.9733,-3.9353,-3.8974,-3.8629,-3.8594,-3.8594,-3.8594,-3.8254,-3.8047,-3.8047,-3.7267,-3.668,-3.6301,-3.6301,-3.6301,-3.6301,-3.668,-3.7456,-3.8617,-3.8957,-3.975,-3.2728,-3.4377,-3.6325,-4.0212,-4.2759,-4.4306,-4.447,-4.4488,-4.4488,-4.4488,-4.5021,-4.548,-4.548,-4.548,-4.548,-4.548,-4.548,-4.548,-4.548,-4.548,-4.5296,-4.4746,-4.44,-4.3936,-4.3239,-4.3088,-4.2896,-4.259,-4.284,-4.2948,-4.281,-4.2792,-4.2861,-4.2982,-4.2982,-4.3051,-4.3189,-4.3189,-4.3138,-4.2982,-4.2982,-4.3069,-4.3241,-4.4458,-4.5087,-4.519,-4.507,-4.5087,-4.5173,-4.4914,-4.4458,-4.3828,-4.3086,-4.2396,-4.1757,-4.1136,-4.0912,-4.0912,-4.0912,-4.0912,-4.0912,-4.0912,-4.0912,-4.0912,-4.0912,-4.0912,-4.0912,-4.0912,-4.0912,-4.0912,-4.0912,-4.0912,-4.0912,-4.0912,-4.0912,-4.0912,-4.0912,-4.0912,-4.0912,-4.0912,-4.0912,-4.0912,-4.0912,-4.0912,-4.0912,-4.0912,-4.0912,-4.0912,-4.0912,-4.0912,-4.0653,-3.9974,-3.9905,-3.9646,-3.9043,-3.8991,-3.8991,-3.8991,-3.8876,-3.8784,-3.8784,-3.8099,-3.737,-3.6715,-3.6439,-3.6301,-3.6301,-3.7116,-3.7892,-3.8612,-3.9353,-4.0129,-3.0133,-3.3121,-3.6942,-4.0267,-4.1864,-4.28,-4.3497,-4.3644,-4.3644,-4.3644,-4.3736,-4.3827,-4.3827,-4.3827,-4.3827,-4.3827,-4.3827,-4.3827,-4.3827,-4.3827,-4.403,-4.4635,-4.4655,-4.4544,-4.4313,-4.4264,-4.3673,-4.2196,-4.2127,-4.1895,-4.124,-4.1205,-4.1498,-4.2154,-4.2171,-4.2499,-4.3189,-4.3189,-4.2844,-4.2171,-4.2171,-4.2534,-4.3207,-4.3396,-4.3845,-4.4414,-4.3776,-4.3862,-4.4345,-4.2992,-4.2388,-4.224,-4.1498,-4.1153,-4.1032,-4.0946,-4.0912,-4.0912,-4.0912,-4.0912,-4.0912,-4.0912,-4.0912,-4.0912,-4.0912,-4.0912,-4.0912,-4.0912,-4.0912,-4.0912,-4.0912,-4.0912,-4.0912,-4.0912,-4.0912,-4.0912,-4.0912,-4.0912,-4.0912,-4.0912,-4.0912,-4.0912,-4.0912,-4.0912,-4.0912,-4.0912,-4.0912,-4.0912,-4.0912,-4.0912,-4.086,-4.0756,-4.0739,-4.0705,-4.0601,-4.0601,-4.0601,-4.0601,-3.9922,-3.9543,-3.9543,-3.8836,-3.841,-3.8284,-3.6973,-3.6301,-3.6301,-3.7116,-3.7892,-3.8612,-3.9353,-4.0129,-3.0169,-3.3124,-3.639,-3.9071,-4.0359,-4.1277,-4.2543,-4.2818,-4.2947,-4.3423,-4.3515,-4.3515,-4.3515,-4.3515,-4.3515,-4.3515,-4.3515,-4.3515,-4.3515,-4.3515,-4.3643,-4.3993,-4.403,-4.3998,-4.3938,-4.3504,-4.2903,-4.2172,-4.1667,-4.1257,-4.0929,-4.0912,-4.105,-4.1378,-4.1395,-4.155,-4.1912,-4.1912,-4.174,-4.1395,-4.1395,-4.1585,-4.1912,-4.1912,-4.2568,-4.3672,-4.3345,-4.3379,-4.3638,-4.2948,-4.2413,-4.1981,-4.1654,-4.1274,-4.0912,-4.0912,-4.0912,-4.0912,-4.0912,-4.0912,-4.0912,-4.0912,-4.0912,-4.0912,-4.0912,-4.0912,-4.0912,-4.0912,-4.0912,-4.0912,-4.0912,-4.0912,-4.0912,-4.0912,-4.0912,-4.0912,-4.0912,-4.0912,-4.0912,-4.0912,-4.0912,-4.0912,-4.0912,-4.0912,-4.0912,-4.0912,-4.0912,-4.0912,-4.0912,-4.0912,-4.0912,-4.0912,-4.0912,-4.0912,-4.0912,-4.0912,-4.0912,-4.0912,-4.0584,-4.0353,-4.0353,-3.9629,-3.9215,-3.9215,-3.8129,-3.7577,-3.7577,-3.8353,-3.8888,-3.9232,-4.0008,-4.0567,-2.9791,-3.2096,-3.4305,-3.6828,-3.8377,-3.9698,-4.1313,-4.1846,-4.2213,-4.302,-4.3185,-4.3259,-4.346,-4.3515,-4.3515,-4.3515,-4.3515,-4.3515,-4.3515,-4.3515,-4.3515,-4.3515,-4.3515,-4.3444,-4.3357,-4.2655,-4.2136,-4.2032,-4.1323,-4.0912,-4.0912,-4.0912,-4.0912,-4.0912,-4.0912,-4.0912,-4.0912,-4.0912,-4.0912,-4.0912,-4.0912,-4.0912,-4.0912,-4.0912,-4.1533,-4.262,-4.262,-4.2723,-4.2879,-4.2689,-4.2258,-4.1723,-4.1723,-4.1395,-4.0912,-4.0912,-4.0912,-4.0912,-4.0912,-4.0912,-4.0912,-4.0912,-4.0912,-4.0912,-4.0912,-4.0912,-4.0912,-4.0912,-4.0912,-4.0912,-4.0912,-4.0912,-4.0912,-4.0912,-4.0912,-4.0912,-4.0912,-4.0912,-4.0912,-4.0912,-4.0912,-4.0912,-4.0912,-4.0912,-4.0912,-4.0912,-4.0912,-4.0912,-4.0912,-4.0912,-4.0912,-4.0912,-4.0912,-4.0912,-4.0912,-4.0912,-4.0912,-4.0912,-4.0912,-4.0912,-4.0912,-4.0325,-3.9991,-3.9991,-3.9457,-3.8996,-3.8594,-3.9336,-3.9698,-3.9715,-4.0532,-4.0912,-2.7593,-2.879,-3.0081,-3.3256,-3.5844,-3.8043,-3.9659,-4.0616,-4.1389,-4.2194,-4.2359,-4.2598,-4.3368,-4.3515,-4.3515,-4.3515,-4.3515,-4.3515,-4.3515,-4.3515,-4.3515,-4.3515,-4.3515,-4.3357,-4.2957,-4.2478,-4.2011,-4.1561,-4.114,-4.0912,-4.0912,-4.0912,-4.0912,-4.0912,-4.0912,-4.0912,-4.0912,-4.0912,-4.0912,-4.0912,-4.0912,-4.0912,-4.0912,-4.0912,-4.0946,-4.1015,-4.1015,-4.1429,-4.2016,-4.1309,-4.0998,-4.0963,-4.0963,-4.0929,-4.0912,-4.0912,-4.0912,-4.0912,-4.0912,-4.0912,-4.0912,-4.0912,-4.0912,-4.0912,-4.0912,-4.0912,-4.0912,-4.0912,-4.0912,-4.0912,-4.0912,-4.0912,-4.0912,-4.0912,-4.0912,-4.0912,-4.0912,-4.0912,-4.0912,-4.0912,-4.0912,-4.0912,-4.0912,-4.0912,-4.0912,-4.0912,-4.0912,-4.0912,-4.0912,-4.0912,-4.0912,-4.0912,-4.0912,-4.0912,-4.0912,-4.0912,-4.0912,-4.0912,-4.0912,-4.0912,-4.0912,-4.086,-4.0843,-4.0843,-4.0808,-4.0066,-3.8594,-3.9336,-3.9698,-3.9715,-4.0532,-4.0912,-2.6786,-2.7735,-2.8979,-3.1605,-3.3311,-3.4926,-3.7092,-3.8615,-3.979,-4.0598,-4.1167,-4.1625,-4.1919,-4.28,-4.3515,-4.3515,-4.3515,-4.3515,-4.3515,-4.3515,-4.3515,-4.3515,-4.3515,-4.3444,-4.3304,-4.2902,-4.2458,-4.199,-4.1534,-4.1186,-4.0894,-4.0912,-4.0912,-4.0912,-4.0912,-4.0912,-4.0912,-4.0912,-4.0912,-4.0912,-4.0912,-4.0912,-4.0912,-4.0912,-4.0912,-4.0912,-4.0912,-4.105,-4.1274,-4.1015,-4.0912,-4.0912,-4.0912,-4.0912,-4.0912,-4.0912,-4.0912,-4.0912,-4.0912,-4.0912,-4.0912,-4.0912,-4.0912,-4.0912,-4.0912,-4.0912,-4.0912,-4.0912,-4.0912,-4.0912,-4.0912,-4.0912,-4.0912,-4.0912,-4.0912,-4.0912,-4.0912,-4.0912,-4.0912,-4.0912,-4.0912,-4.0912,-4.0912,-4.0912,-4.0912,-4.0912,-4.0912,-4.0912,-4.0912,-4.0912,-4.0912,-4.0912,-4.0912,-4.0912,-4.0912,-4.0912,-4.0912,-4.0912,-4.0912,-4.0912,-4.0912,-4.0912,-4.0912,-4.0912,-4.0912,-4.0636,-4.0083,-4.0342,-4.0457,-4.0498,-4.0774,-4.0912,-2.567,-2.6651,-2.8012,-3.008,-3.0999,-3.2179,-3.5183,-3.6486,-3.7514,-3.9166,-3.9918,-4.0453,-4.1003,-4.1974,-4.2782,-4.3039,-4.3331,-4.3515,-4.3515,-4.3515,-4.3515,-4.3515,-4.3515,-4.3515,-4.3515,-4.3142,-4.2692,-4.2257,-4.1756,-4.1311,-4.0918,-4.0912,-4.0912,-4.0912,-4.0912,-4.0912,-4.0912,-4.0912,-4.0912,-4.0912,-4.0912,-4.0912,-4.0912,-4.0912,-4.0912,-4.0912,-4.0912,-4.0912,-4.0912,-4.0912,-4.0912,-4.0912,-4.0912,-4.0912,-4.0912,-4.0912,-4.0912,-4.0912,-4.0912,-4.0912,-4.0912,-4.0912,-4.0912,-4.0912,-4.0912,-4.0912,-4.0912,-4.0912,-4.0912,-4.0912,-4.0912,-4.0912,-4.0912,-4.0912,-4.0912,-4.0912,-4.0912,-4.0912,-4.0912,-4.0912,-4.0912,-4.0912,-4.0912,-4.0912,-4.0912,-4.0912,-4.0912,-4.0912,-4.0912,-4.0912,-4.0912,-4.0912,-4.0912,-4.0912,-4.0912,-4.0912,-4.0912,-4.0912,-4.0912,-4.0912,-4.0912,-4.0912,-4.0912,-4.0912,-4.0912,-4.0912,-4.0912,-4.0912,-4.0912,-4.0912,-4.0912,-4.0912,0.0,0.0,0.0,-2.851,-2.8913,-2.9959,-3.3922,-3.4234,-3.4614,-3.7881,-3.856,-3.9056,-4.0691,-4.1003,-4.1279,-4.2103,-4.2892,-4.3441,-4.3441,-4.3441,-4.3441,-4.3441,-4.3441,-4.3441,-4.346,-4.3087,-4.2657,-4.2203,-4.1743,-4.1298,-4.0866,-4.086,-4.0877,-4.0912,-4.0912,-4.0912,-4.0912,-4.0912,-4.0912,-4.0912,-4.0912,-4.0912,-4.0912,-4.0912,-4.0912,-4.0912,-4.0912,-4.0912,-4.0912,-4.0912,-4.0912,-4.0912,-4.0912,-4.0912,-4.0912,-4.0912,-4.0912,-4.0912,-4.0912,-4.0912,-4.0912,-4.0912,-4.0912,-4.0912,-4.0912,-4.0912,-4.0912,-4.0912,-4.0912,-4.0912,-4.0912,-4.0912,-4.0912,-4.0912,-4.0912,-4.0912,-4.0912,-4.0912,-4.0912,-4.0912,-4.0912,-4.0912,-4.0912,-4.0912,-4.0912,-4.0912,-4.0912,-4.0912,-4.0912,-4.0912,-4.0912,-4.0912,-4.0912,-4.0912,-4.0912,-4.0912,-4.0912,-4.0912,-4.0912,-4.0912,-4.0912,-4.0912,-4.0912,-4.0912,-4.0912,-4.0912,-4.0912,-4.0912,-4.0912,-4.0912,-4.0912,-4.0912,-2.452,0.0,0.0,0.0,0.0,0.0,-3.0143,-3.0931,-3.1953,-3.4614,-3.5165,-3.5844,-3.8065,-3.8964,-3.9643,-4.0432,-4.124,-4.1772,-4.1772,-4.1772,-4.1772,-4.1772,-4.1772,-4.1992,-4.258,-4.2001,-4.1542,-4.1421,-4.1238,-4.0595,-3.9295,-3.9733,-4.0284,-4.0877,-4.0912,-4.0912,-4.0912,-4.0912,-4.0912,-4.0912,-4.0912,-4.0912,-4.0912,-4.0912,-4.0912,-4.0912,-4.0912,-4.0912,-4.0912,-4.0912,-4.0912,-4.0912,-4.0912,-4.0912,-4.0912,-4.0912,-4.0912,-4.0912,-4.0912,-4.0912,-4.0912,-4.0912,-4.0912,-4.0912,-4.0912,-4.0912,-4.0912,-4.0912,-4.0912,-4.0912,-4.0912,-4.0912,-4.0912,-4.0912,-4.0912,-4.0912,-4.0912,-4.0912,-4.0912,-4.0912,-4.0912,-4.0912,-4.0912,-4.0912,-4.0912,-4.0912,-4.0912,-4.0912,-4.0912,-4.0912,-4.0912,-4.0912,-4.0912,-4.0912,-4.0912,-4.0912,-4.0912,-4.0912,-4.0912,-4.0912,-4.0912,-4.0912,-4.0912,-4.0912,-4.0912,-4.0912,-4.0912,-4.0912,-4.0912,-4.0912,-4.0912,-4.0912,-2.5136,-2.5878,-2.6998,-2.6513,0.0,0.0,-2.8968,-2.9347,-3.0063,-3.3164,-3.3807,-3.4449,-3.6611,-3.7367,-3.7845,-3.8322,-3.9074,-3.9955,-4.0948,-4.1095,-4.1095,-4.1095,-4.1095,-4.1279,-4.1754,-4.137,-4.0955,-4.0618,-4.0538,-3.9926,-3.8679,-3.9008,-3.9457,-3.9928,-4.0256,-4.0411,-4.0411,-4.0739,-4.0912,-4.0912,-4.0912,-4.0912,-4.0912,-4.0912,-4.0912,-4.0912,-4.0912,-4.0912,-4.0912,-4.0912,-4.0912,-4.0912,-4.0912,-4.0912,-4.0912,-4.0912,-4.0912,-4.0912,-4.0912,-4.0912,-4.0912,-4.0912,-4.0912,-4.0912,-4.0912,-4.0912,-4.0912,-4.0912,-4.0912,-4.0912,-4.0912,-4.0912,-4.0912,-4.0912,-4.0912,-4.0912,-4.0912,-4.0912,-4.0912,-4.0912,-4.0912,-4.0912,-4.0912,-4.0912,-4.0912,-4.0912,-4.0912,-4.0912,-4.0912,-4.0864,-4.084,-4.0894,-4.0864,-4.084,-4.0912,-4.0912,-4.0912,-4.0912,-4.0912,-4.0912,-4.0912,-4.0912,-4.0912,-4.0912,-4.0912,-4.0912,-4.0912,-4.0912,-4.0912,-4.0912,-4.0912,-4.0912,-2.609,-2.6843,-2.7989,-2.7732,-2.6733,0.0,-2.9072,-2.8631,-2.8705,-3.2375,-3.3054,-3.3532,-3.5293,-3.5697,-3.5789,-3.5862,-3.6648,-3.8043,-4.0361,-4.0783,-4.082,-4.082,-4.082,-4.0857,-4.0948,-4.0893,-4.0554,-3.9888,-3.9611,-3.9214,-3.8644,-3.8508,-3.853,-3.8594,-3.9232,-3.9612,-3.9698,-4.0411,-4.0825,-4.0912,-4.0912,-4.0912,-4.0912,-4.0912,-4.0912,-4.0912,-4.0912,-4.0912,-4.0912,-4.0912,-4.0912,-4.0912,-4.0912,-4.0912,-4.0912,-4.0912,-4.0912,-4.0912,-4.0912,-4.0912,-4.0912,-4.0912,-4.0912,-4.0912,-4.0912,-4.0912,-4.0912,-4.0912,-4.0912,-4.0912,-4.0912,-4.0912,-4.0912,-4.0912,-4.0912,-4.0912,-4.0912,-4.0912,-4.0912,-4.0912,-4.0912,-4.0912,-4.0912,-4.0912,-4.0912,-4.0912,-4.0912,-4.0912,-4.0912,-4.0793,-4.0745,-4.0864,-4.0769,-4.0721,-4.0864,-4.0888,-4.0871,-4.0912,-4.0912,-4.0912,-4.0912,-4.0912,-4.0912,-4.0912,-4.0912,-4.0912,-4.0912,-4.0912,-4.0912,-4.0912,-4.0912,-4.0912,-2.778,-2.8503,-2.9274,-2.7328,-2.7567,0.0,-2.6641,-2.6594,-2.7236,-2.8686,-2.8466,-2.8705,-3.098,-3.1916,-3.2559,-3.322,-3.4546,-3.6105,-3.7936,-3.8762,-3.9184,-3.9184,-3.9184,-3.9423,-4.0065,-3.9551,-3.923,-3.9407,-3.8215,-3.7799,-3.857,-3.8047,-3.7996,-3.8577,-3.8732,-3.9094,-3.9681,-3.9853,-4.025,-4.0912,-4.0912,-4.0912,-4.0912,-4.0912,-4.0912,-4.0912,-4.0912,-4.0912,-4.0912,-4.0912,-4.0912,-4.0912,-4.0912,-4.0912,-4.0912,-4.0912,-4.0912,-4.0912,-4.0912,-4.0912,-4.0912,-4.0912,-4.0912,-4.0912,-4.0912,-4.0912,-4.0912,-4.0912,-4.0912,-4.0912,-4.0912,-4.0912,-4.0912,-4.0912,-4.0912,-4.0912,-4.0912,-4.0912,-4.0912,-4.0912,-4.0912,-4.0912,-4.0912,-4.0912,-4.0912,-4.0912,-4.0912,-4.0912,-4.0912,-4.0793,-4.0697,-4.0745,-4.0607,-4.0583,-4.0721,-4.0745,-4.0793,-4.0894,-4.0912,-4.0912,-4.0912,-4.0912,-4.0912,-4.0912,-4.0912,-4.0912,-4.0912,-4.0912,-4.0912,-4.0912,-4.0912,-4.0912,-2.8349,-2.8962,-2.9806,-2.8198,-2.8088,0.0,0.0,-2.6292,-2.6576,-2.8576,-2.8044,-2.7934,-3.0356,-3.0797,-3.1054,-3.1861,-3.3335,-3.4688,-3.5546,-3.6725,-3.7496,-3.7496,-3.7496,-3.7826,-3.8631,-3.8355,-3.8193,-3.8383,-3.7286,-3.6842,-3.7426,-3.7094,-3.706,-3.7439,-3.7836,-3.8237,-3.8594,-3.9319,-3.9888,-4.0325,-4.0722,-4.0912,-4.0912,-4.0912,-4.0912,-4.0912,-4.0912,-4.0912,-4.0912,-4.0912,-4.0912,-4.0912,-4.0912,-4.0912,-4.0912,-4.0912,-4.0912,-4.0912,-4.0912,-4.0912,-4.0912,-4.0912,-4.0912,-4.0912,-4.0912,-4.0912,-4.0912,-4.0912,-4.0912,-4.0871,-4.0817,-4.0864,-4.0871,-4.0817,-4.0864,-4.0912,-4.0912,-4.0912,-4.0912,-4.0912,-4.0912,-4.0912,-4.0912,-4.0912,-4.0912,-4.0912,-4.0912,-4.0912,-4.0912,-4.0728,-4.0624,-4.0697,-4.0527,-4.0485,-4.0673,-4.0697,-4.0745,-4.0888,-4.0912,-4.0912,-4.0912,-4.0912,-4.0912,-4.0912,-4.0912,-4.0912,-4.0912,-4.0912,-4.0912,-4.0912,-4.0912,-4.0912,-2.9292,-2.9898,-3.0785,-2.9354,-2.887,-2.8429,0.0,0.0,0.0,-2.8576,-2.8007,-2.7706,-2.9652,-2.9604,-2.9494,-3.0148,-3.1715,-3.2889,-3.2889,-3.4174,-3.5349,-3.5973,-3.6193,-3.656,-3.7217,-3.6978,-3.6856,-3.7041,-3.6299,-3.591,-3.6077,-3.6215,-3.6301,-3.6301,-3.6922,-3.734,-3.7512,-3.8663,-3.9422,-3.9698,-4.0377,-4.0756,-4.0912,-4.0912,-4.0912,-4.0912,-4.0912,-4.0912,-4.0912,-4.0912,-4.0871,-4.0847,-4.0888,-4.0912,-4.0912,-4.0912,-4.0912,-4.0912,-4.0864,-4.0888,-4.0894,-4.084,-4.084,-4.0864,-4.0864,-4.0888,-4.0912,-4.0912,-4.0912,-4.0864,-4.0721,-4.0793,-4.0864,-4.0721,-4.0793,-4.0912,-4.0912,-4.0912,-4.0912,-4.0912,-4.0912,-4.0912,-4.0912,-4.0912,-4.0912,-4.0912,-4.0912,-4.0912,-4.0912,-4.068,-4.0534,-4.0648,-4.0429,-4.0355,-4.06,-4.0624,-4.0697,-4.0864,-4.0864,-4.0871,-4.0912,-4.0912,-4.0912,-4.0912,-4.0912,-4.0912,-4.0912,-4.0912,-4.0912,-4.0912,-4.0912,-4.0912,-3.2307,-3.3225,-3.3573,-2.9904,-3.0546,-3.076,-2.575,0.0,-2.6172,-2.5107,0.0,-2.4685,-2.4961,0.0,0.0,-2.6072,-2.8026,-2.9555,-2.9555,-3.0308,-3.194,-3.4821,-3.5844,-3.634,-3.6431,-3.5092,-3.4564,-3.5398,-3.4657,-3.4514,-3.5272,-3.5939,-3.6301,-3.6301,-3.6387,-3.6766,-3.7495,-3.7668,-3.8427,-3.9698,-3.9784,-4.0221,-4.0912,-4.0912,-4.0912,-4.0912,-4.0912,-4.0912,-4.0912,-4.0912,-4.084,-4.0721,-4.0847,-4.0912,-4.0912,-4.0912,-4.0912,-4.0871,-4.0769,-4.0793,-4.0847,-4.0631,-4.0648,-4.0721,-4.0721,-4.0817,-4.0912,-4.0912,-4.0912,-4.0864,-4.0721,-4.0793,-4.0864,-4.0721,-4.0793,-4.0912,-4.0912,-4.0912,-4.0912,-4.0912,-4.0912,-4.0912,-4.0912,-4.0912,-4.0912,-4.0912,-4.0912,-4.0912,-4.0912,-4.068,-4.051,-4.0534,-4.0288,-4.0188,-4.033,-4.0355,-4.0453,-4.0697,-4.0721,-4.0769,-4.0912,-4.0912,-4.0912,-4.0912,-4.0912,-4.0912,-4.0912,-4.0912,-4.0912,-4.0912,-4.0912,-4.0912,-3.2118,-3.3091,-3.3555,-3.0473,-3.0454,-3.0216,-2.6447,-2.5383,-2.5273,-2.5548,0.0,0.0,0.0,0.0,0.0,0.0,-2.764,-2.8143,-2.7666,-2.8693,-3.0344,-3.2651,-3.2816,-3.3311,-3.4706,-3.3894,-3.3805,-3.5096,-3.3635,-3.3222,-3.4493,-3.5249,-3.5663,-3.5663,-3.6077,-3.6456,-3.6801,-3.7271,-3.7823,-3.8422,-3.9284,-3.9871,-4.0215,-4.0687,-4.0912,-4.0912,-4.0817,-4.0793,-4.0793,-4.0704,-4.0631,-4.0583,-4.0655,-4.0704,-4.0793,-4.0864,-4.0912,-4.0888,-4.0745,-4.0745,-4.0769,-4.0558,-4.0534,-4.0583,-4.0583,-4.0607,-4.068,-4.068,-4.0728,-4.0745,-4.0527,-4.0624,-4.0721,-4.0527,-4.0558,-4.068,-4.068,-4.068,-4.068,-4.0769,-4.0793,-4.0817,-4.0888,-4.0912,-4.0912,-4.0912,-4.0912,-4.0864,-4.0793,-4.0607,-4.0485,-4.0387,-4.0196,-4.0163,-4.0305,-4.0305,-4.0429,-4.0673,-4.0769,-4.0752,-4.068,-4.0823,-4.0847,-4.0793,-4.0864,-4.0912,-4.0912,-4.0912,-4.0912,-4.0912,-4.0912,-4.0912,-3.2339,-3.3238,-3.3733,-3.065,-3.0044,-2.9457,-2.6594,-2.5548,-2.5456,-2.641,-2.6209,0.0,0.0,0.0,-2.6612,-2.7346,0.0,-2.7438,-2.641,-2.7291,-2.8613,-3.0222,-3.0467,-3.1219,-3.2963,-3.2155,-3.2244,-3.4079,-3.2248,-3.1843,-3.3682,-3.468,-3.5197,-3.5197,-3.5921,-3.6301,-3.6301,-3.687,-3.7288,-3.7512,-3.8599,-3.9279,-3.9669,-4.0255,-4.0634,-4.0776,-4.0697,-4.0648,-4.0648,-4.0534,-4.0485,-4.0461,-4.0485,-4.0534,-4.06,-4.0728,-4.0776,-4.0776,-4.0648,-4.0576,-4.0527,-4.0461,-4.0436,-4.0436,-4.0436,-4.0485,-4.051,-4.051,-4.0558,-4.06,-4.0355,-4.0478,-4.06,-4.0355,-4.0387,-4.051,-4.051,-4.051,-4.0534,-4.0624,-4.0648,-4.0673,-4.0776,-4.0847,-4.0912,-4.0912,-4.0864,-4.0817,-4.0721,-4.0534,-4.0412,-4.0305,-4.0188,-4.0138,-4.0238,-4.0238,-4.0337,-4.0576,-4.0721,-4.0704,-4.051,-4.0728,-4.0793,-4.0697,-4.084,-4.0912,-4.0912,-4.0912,-4.0912,-4.0912,-4.0912,-4.0912,-3.4174,-3.4945,-3.5055,-3.0234,-2.961,-2.9163,-2.5181,-2.6043,-2.7475,-2.6759,-2.8429,-2.9787,-2.9097,-2.8932,-2.84,-2.6877,-2.7291,0.0,0.0,-2.5485,-2.6109,-2.7725,-2.9946,-3.1397,-3.147,-2.9354,-2.9009,-3.1528,-3.0133,-3.0264,-3.2802,-3.4369,-3.5197,-3.5197,-3.5921,-3.6301,-3.6301,-3.6335,-3.6715,-3.7512,-3.7564,-3.8234,-3.9506,-3.9523,-3.9905,-4.051,-4.051,-4.051,-4.051,-4.051,-4.0412,-4.033,-4.0461,-4.0412,-4.033,-4.0461,-4.051,-4.0485,-4.0362,-4.0213,-4.0138,-4.028,-4.0305,-4.0305,-4.0305,-4.0387,-4.051,-4.051,-4.051,-4.0485,-4.0355,-4.0387,-4.0485,-4.0337,-4.0387,-4.051,-4.051,-4.051,-4.051,-4.051,-4.051,-4.051,-4.051,-4.0728,-4.0912,-4.0912,-4.0793,-4.0697,-4.0697,-4.0478,-4.0288,-4.0305,-4.0188,-4.0096,-4.0113,-4.0113,-4.0163,-4.0288,-4.0436,-4.051,-4.051,-4.0648,-4.0697,-4.0697,-4.084,-4.0912,-4.0912,-4.0912,-4.0912,-4.0912,-4.0912,-4.0912,-3.5512,-3.6124,-3.6051,-3.2248,-3.1113,-3.0027,-2.6573,-2.6833,-2.7567,-2.6778,-2.8521,-3.0118,-2.9831,-2.9354,-2.8822,-2.829,-2.7519,-2.6264,0.0,-2.3355,-2.3814,-2.5962,-2.8338,-2.9812,-2.9812,-2.8711,-2.8779,-3.0662,-2.9423,-2.9591,-3.1931,-3.3089,-3.3845,-3.4202,-3.5002,-3.5637,-3.6088,-3.6191,-3.6328,-3.6521,-3.7084,-3.7813,-3.8653,-3.9207,-3.9816,-4.051,-4.0412,-4.0362,-4.0362,-4.0288,-4.0213,-4.0163,-4.0238,-4.0213,-4.0188,-4.0412,-4.051,-4.0485,-4.0355,-4.0213,-4.0113,-4.0163,-4.0163,-4.0163,-4.0163,-4.0213,-4.0238,-4.0238,-4.0313,-4.0337,-4.0213,-4.0263,-4.0337,-4.0188,-4.0213,-4.0238,-4.0238,-4.0238,-4.0246,-4.0337,-4.0362,-4.0387,-4.0468,-4.0583,-4.0655,-4.0769,-4.0631,-4.0558,-4.0558,-4.0412,-4.028,-4.0188,-4.0138,-4.0096,-4.0096,-4.0188,-4.0213,-4.0163,-4.0387,-4.0436,-4.0246,-4.0461,-4.0558,-4.0558,-4.0697,-4.0817,-4.0912,-4.0912,-4.0912,-4.0912,-4.0912,-4.0912,-3.603,-3.6528,-3.6565,-3.3611,-3.2497,-3.136,-2.8489,-2.8915,-2.9667,-2.886,-3.0406,-3.1891,-3.184,-3.0986,-2.9984,-2.9117,-2.7875,-2.618,0.0,-2.2933,-2.3281,-2.5112,-2.6738,-2.7941,-2.851,-2.7459,-2.7605,-2.9781,-2.8583,-2.8761,-3.1048,-3.2238,-3.313,-3.3686,-3.4521,-3.5292,-3.598,-3.6101,-3.6101,-3.6014,-3.6581,-3.7153,-3.7769,-3.8536,-3.9303,-3.9988,-4.0144,-4.0213,-4.0213,-4.0138,-4.0096,-4.0096,-4.0096,-4.0096,-4.0121,-4.0296,-4.0362,-4.0362,-4.0263,-4.0163,-4.0096,-4.0096,-4.0096,-4.0096,-4.0096,-4.0096,-4.0096,-4.0096,-4.0163,-4.0213,-4.0138,-4.0163,-4.0213,-4.0138,-4.0096,-4.0096,-4.0096,-4.0096,-4.0138,-4.0213,-4.0213,-4.0263,-4.032,-4.0362,-4.0412,-4.0583,-4.051,-4.0436,-4.0436,-4.0313,-4.0188,-4.0113,-4.0096,-4.0096,-4.0096,-4.0188,-4.0188,-4.0113,-4.0246,-4.0271,-4.0113,-4.0313,-4.0461,-4.051,-4.0648,-4.0769,-4.0912,-4.0912,-4.0912,-4.0912,-4.0912,-4.0912]},{"header":{"parameterUnit":"m.s-1","parameterCategory":1,"la1":30.6,"la2":29.2853,"lo1":-89.7004,"lo2":-87.6739,"dy":0.0162,"dx":0.0183,"nx":112,"ny":82,"refTime":"2026-04-22T12:00:00:Z","depth":0,"parameterNumber":3,"parameterNumberName":"V-component_of_WINDS"},"data":[0.0,0.0,0.0,0.0,0.0,0.0,0.0,0.0,0.0,0.0,0.0,0.0,0.0,0.0,0.0,0.0,0.0,0.0,0.0,0.0,0.0,0.0,0.0,0.0,0.0,0.0,0.0,0.0,0.0,0.0,0.0,0.0,0.0,0.0,0.0,0.0,0.0,0.0,0.0,0.0,0.0,0.0,0.0,0.0,0.0,0.0,0.0,0.0,0.0,0.0,0.0,0.0,0.0,0.0,0.0,0.0,0.0,0.0,0.0,0.0,0.0,0.0,0.0,0.0,0.0,0.0,0.0,0.0,0.0,0.0,0.0,0.0,0.0,0.0,0.0,0.0,0.0,0.0,0.0,0.0,0.0,0.0,0.0,0.0,0.0,0.0,0.0,0.0,0.0,0.0,0.7173,0.7906,0.8686,0.9262,0.9391,0.8989,0.8453,0.7788,0.0,0.0,0.0,0.0,0.0,0.0,0.0,0.0,0.0,0.0,0.0,0.0,0.0,0.0,0.0,0.0,0.0,0.0,0.0,0.0,0.0,0.0,0.0,0.0,0.0,0.0,0.0,0.0,0.0,0.0,0.0,0.0,0.0,0.0,0.0,0.0,0.0,0.0,0.0,0.0,0.0,0.0,0.0,0.0,0.0,0.0,0.0,0.0,0.0,0.0,0.0,0.0,0.0,0.0,0.0,0.0,0.0,0.0,0.0,0.0,0.0,0.0,0.0,0.0,0.0,0.0,0.0,0.0,0.0,0.0,0.0,0.0,0.0,0.0,0.0,0.0,0.0,0.0,0.0,0.0,0.0,0.0,0.0,0.0,0.0,0.0,0.0,0.0,0.0,0.0,0.0,0.0,0.0,0.0,0.0,0.0,0.0,0.0,0.0,0.0,0.0,0.0,0.0,0.0,0.7258,0.8568,0.8998,0.9274,0.9522,0.9103,0.8549,0.8066,0.0,0.0,0.0,0.0,0.0,0.0,0.0,0.0,0.0,0.0,0.0,0.0,0.0,0.0,0.0,0.0,0.0,0.0,0.0,0.0,0.0,0.0,0.0,0.0,0.0,0.0,0.0,0.0,0.0,0.0,0.0,0.0,0.0,0.0,0.0,0.0,0.0,0.0,0.0,0.0,0.0,0.0,0.0,0.0,0.0,0.0,0.0,0.0,0.0,0.0,0.0,0.0,0.0,0.0,0.0,0.0,0.0,0.0,0.0,0.0,0.0,0.0,0.0,0.0,0.0,0.0,0.0,0.0,0.0,0.0,0.0,0.0,0.0,0.0,0.0,0.0,0.0,0.0,0.0,0.0,0.0,0.0,0.0,0.0,0.0,0.0,0.0,0.0,0.0,0.0,0.0,0.0,0.0,0.0,0.0,0.0,0.0,0.0,0.0,0.0,0.0,0.0,0.0,0.6926,0.7638,0.876,0.8998,0.9147,0.9423,0.8917,0.8452,0.8099,0.7258,0.0,0.0,0.0,0.0,0.0,0.0,0.0,0.0,0.0,0.0,0.0,0.0,0.0,0.0,0.0,0.0,0.0,0.0,0.0,0.0,0.0,0.0,0.0,0.0,0.0,0.0,0.0,0.0,0.0,0.0,0.0,0.0,0.0,0.0,0.0,0.0,0.0,0.0,0.0,0.0,0.0,0.0,0.0,0.0,0.0,0.0,0.0,0.0,0.0,0.0,0.0,0.0,0.0,0.0,0.0,0.0,0.0,0.0,0.0,0.0,0.0,0.0,0.0,0.0,0.0,0.0,0.0,0.0,0.0,0.0,0.0,0.0,0.0,0.0,0.0,0.0,0.0,0.0,0.0,0.0,0.0,0.0,0.0,0.0,0.0,0.0,0.0,0.0,0.0,0.0,0.0,0.0,0.0,0.0,0.0,0.0,0.0,0.0,0.0,0.0,0.0,0.0,0.8221,0.8847,0.9665,0.9702,0.9794,1.003,0.9265,0.8682,0.844,0.7252,0.0,0.0,0.0,0.0,0.0,0.0,0.0,0.0,0.0,0.0,0.0,0.0,0.0,0.0,0.0,0.0,0.0,0.0,0.0,0.0,0.0,0.0,0.0,0.0,0.0,0.0,0.0,0.0,0.0,0.0,0.0,0.0,0.0,0.0,0.0,0.0,0.0,0.0,0.0,0.0,0.0,0.0,0.0,0.0,0.0,0.0,0.0,0.0,0.0,0.0,0.0,0.0,0.0,0.0,0.0,0.0,0.0,0.0,0.0,0.0,0.0,0.0,0.0,0.0,0.0,0.0,0.0,0.0,0.0,0.0,0.0,0.0,0.0,0.0,0.0,0.0,0.0,0.0,0.0,0.0,0.0,0.0,0.0,0.0,0.0,0.0,0.0,0.0,0.0,0.0,0.0,0.0,0.0,0.0,0.0,0.0,0.0,0.0,0.0,0.0,0.0,0.0,1.0285,1.1518,1.2072,1.2146,1.218,1.2259,1.0806,0.9749,0.9403,0.7505,0.0,0.0,0.0,0.0,0.0,0.0,0.0,0.0,0.0,0.0,0.0,0.0,0.0,0.0,0.0,0.0,0.0,0.0,0.0,0.0,0.0,0.0,0.0,0.0,0.0,0.0,0.0,0.0,0.0,0.0,0.0,0.0,0.0,0.0,0.0,0.0,0.0,0.0,0.0,0.0,0.0,0.0,0.0,0.0,0.0,0.0,0.0,0.0,0.0,0.0,0.0,0.0,0.0,0.0,0.0,0.0,0.0,0.0,0.0,0.0,0.0,0.0,0.0,0.0,0.0,0.0,0.0,0.0,0.0,0.0,0.0,0.0,0.0,0.0,0.0,0.0,0.0,0.0,0.0,0.0,0.0,0.0,0.0,0.0,0.0,0.0,0.0,0.0,0.0,0.0,0.0,0.0,0.0,0.0,0.0,0.0,0.0,0.0,0.0,0.0,0.0,0.0,1.0435,1.1532,1.209,1.2326,1.2447,1.2556,1.1736,1.0739,0.9622,0.0,0.0,0.0,0.0,0.0,0.0,0.0,0.0,0.0,0.0,0.0,0.0,0.0,0.0,0.0,0.0,0.0,0.0,0.0,0.0,0.0,0.0,0.0,0.0,0.0,0.0,0.0,0.0,0.0,0.0,0.0,0.0,0.0,0.0,0.0,0.0,0.0,0.0,0.0,0.0,0.0,0.0,0.0,0.0,0.0,0.0,0.0,0.0,0.0,0.0,0.0,0.0,0.0,0.0,0.0,0.0,0.0,0.0,0.0,0.0,0.0,0.0,0.0,0.0,0.0,0.0,0.0,0.0,0.0,0.0,0.0,0.0,0.0,0.0,0.0,0.0,0.0,0.0,0.0,0.0,0.0,0.0,0.0,0.0,0.0,0.0,0.0,0.0,0.0,0.0,0.0,0.0,0.0,0.0,0.0,0.0,0.0,0.0,0.0,0.0,0.0,0.0,0.9985,1.1441,1.255,1.3043,1.3329,1.3509,1.3515,1.2651,1.1554,1.0211,0.0,0.0,0.0,0.0,0.0,0.0,0.0,0.0,0.0,0.0,0.0,0.0,0.0,0.0,0.0,0.0,0.0,0.0,0.0,0.0,0.0,0.0,0.0,0.0,0.0,0.0,0.0,0.0,0.0,0.0,0.0,0.0,0.0,0.0,0.0,0.0,0.0,0.0,0.0,0.0,0.0,0.0,0.0,0.0,0.0,0.0,0.0,0.0,0.0,0.0,0.0,0.0,0.0,0.0,0.0,0.0,0.0,0.0,0.0,0.0,0.0,0.0,0.0,0.0,0.0,0.0,0.0,0.0,0.0,0.0,0.0,0.0,0.0,0.0,0.0,0.0,0.0,0.0,0.0,0.0,0.0,0.0,0.0,0.0,0.0,0.0,0.0,0.0,0.0,0.0,0.0,0.0,0.0,0.0,0.0,0.0,0.0,0.0,0.0,0.0,0.0,0.0,1.1299,1.352,1.5203,1.5463,1.5722,1.5826,1.5537,1.373,1.2225,0.0,0.0,0.0,0.0,0.0,0.0,0.0,0.0,0.0,0.0,0.0,0.0,0.0,0.0,0.0,0.0,0.0,0.0,0.0,0.0,0.0,0.0,0.0,0.0,0.0,0.0,0.0,0.0,0.0,0.0,0.0,0.0,0.0,0.0,0.0,0.0,0.0,0.0,0.0,0.0,0.0,0.0,0.0,0.0,0.0,0.0,0.0,0.0,0.0,0.0,0.0,0.0,0.0,0.0,0.0,0.0,0.0,0.0,0.0,0.0,0.0,0.0,0.0,0.0,0.0,0.0,0.0,0.0,0.0,0.0,0.0,0.0,0.0,0.0,0.0,0.0,0.0,0.0,0.0,0.0,0.0,0.0,0.0,0.0,0.0,0.0,0.0,0.0,0.0,0.0,0.0,0.0,0.0,0.0,0.0,0.0,0.0,0.0,0.0,0.0,0.0,0.0,0.0,1.1651,1.371,1.5146,1.5226,1.5783,1.6062,1.5797,1.4648,1.3286,1.168,0.0,0.0,0.0,0.0,0.0,0.0,0.0,0.0,0.0,0.0,0.0,0.0,0.0,0.0,0.0,0.0,0.0,0.0,0.0,0.0,0.0,0.0,0.0,0.0,0.0,0.0,0.0,0.0,0.0,0.0,0.0,0.0,0.0,0.0,0.0,0.0,0.0,0.0,0.0,0.0,0.0,0.0,0.0,0.0,0.0,0.0,0.0,0.0,0.0,0.0,0.0,0.0,0.0,0.0,0.0,0.0,0.0,0.0,0.0,0.0,0.0,0.0,0.0,0.0,0.0,0.0,0.0,0.0,0.0,0.0,0.0,0.0,0.0,0.0,0.0,0.0,0.0,0.0,0.0,0.0,0.0,0.0,0.0,0.0,0.0,0.0,0.0,0.0,0.0,0.0,0.0,0.0,0.0,0.0,0.0,0.0,0.0,0.0,0.0,0.0,0.0,0.0,1.1936,1.373,1.5022,1.5232,1.5794,1.6101,1.5921,1.4924,1.3707,1.2228,0.0,0.0,0.0,0.0,0.0,0.0,0.0,0.0,0.0,0.0,0.0,0.0,0.0,0.0,0.0,0.0,0.0,0.0,0.0,0.0,0.0,0.0,0.0,0.0,0.0,0.0,0.0,0.0,0.0,0.0,0.0,0.0,0.0,0.0,0.0,0.0,0.0,0.0,0.0,0.0,0.0,0.0,0.0,0.0,0.0,0.0,0.0,0.0,0.0,0.0,0.0,0.0,0.0,0.0,0.0,0.0,0.0,0.0,0.0,0.0,0.0,0.0,0.0,0.0,0.0,0.0,0.0,0.0,0.0,0.0,0.0,0.0,0.0,0.0,0.0,0.0,0.0,0.0,0.0,0.0,0.0,0.0,0.0,0.0,0.0,0.0,0.0,0.0,0.0,0.0,0.0,0.0,0.0,0.0,0.0,0.0,0.0,0.0,0.0,0.0,0.0,0.0,1.2134,1.3679,1.4875,1.5426,1.573,1.5868,1.5843,1.4774,1.3723,1.2857,0.0,0.0,0.0,0.0,0.0,0.0,0.0,0.0,0.0,0.0,0.0,0.0,0.0,0.0,0.0,0.0,0.0,0.0,0.0,0.0,0.0,0.0,0.0,0.0,0.0,0.0,0.0,0.0,0.0,0.0,0.0,0.0,0.0,0.0,0.0,0.0,0.0,0.0,0.0,0.0,0.0,0.0,0.0,0.0,0.0,0.0,0.0,0.0,0.0,0.0,0.0,0.0,0.0,0.0,0.0,0.0,0.0,0.0,0.0,0.0,1.3567,1.2105,0.0,0.0,0.0,0.0,0.0,0.0,0.0,0.0,0.0,0.0,0.0,0.0,0.0,0.0,0.0,0.0,0.0,0.0,0.0,0.0,0.0,0.0,0.0,0.0,0.0,0.0,0.0,0.0,0.0,0.0,0.0,0.0,0.0,0.0,0.0,0.0,0.0,0.0,0.0,0.0,1.1848,1.3516,1.4791,1.5163,1.5553,1.5756,1.5518,1.4628,1.3726,1.2844,1.1504,0.0,0.0,0.0,0.0,0.0,0.0,0.0,0.0,0.0,0.0,0.0,0.0,0.0,0.0,0.0,0.0,0.0,0.0,0.0,0.0,0.0,0.0,0.0,0.0,0.0,0.0,0.0,0.0,0.0,0.0,0.0,0.0,0.0,0.0,0.0,0.0,0.0,0.0,0.0,0.0,0.0,0.0,0.0,0.0,0.0,0.0,0.0,0.0,0.0,0.0,0.0,0.0,0.0,0.0,0.0,0.0,0.0,0.0,0.0,1.6484,1.5071,0.0,0.0,0.0,0.0,0.0,0.0,0.0,0.0,0.0,0.0,0.0,0.0,0.0,0.0,0.0,0.0,0.0,0.0,0.0,0.0,0.0,0.0,0.0,0.0,0.0,0.0,0.0,0.0,0.0,0.0,0.0,0.0,0.0,0.0,0.0,0.0,0.0,0.0,0.0,0.0,1.188,1.3304,1.4402,1.4989,1.5279,1.5351,1.5204,1.4516,1.3768,1.3052,1.1724,0.0,0.0,0.0,0.0,0.0,0.0,0.0,0.0,0.0,0.0,0.0,0.0,0.0,0.0,0.0,0.0,0.0,0.0,0.0,0.0,0.0,0.0,0.0,0.0,0.0,0.0,0.0,0.0,0.0,0.0,0.0,0.0,0.0,0.0,0.0,0.0,0.0,0.0,0.0,0.0,0.0,0.0,0.0,0.0,0.0,0.0,0.0,0.0,0.0,0.0,0.0,0.0,0.0,1.9787,2.0217,2.0614,2.1056,2.1193,2.0987,2.0259,1.9014,1.745,1.6286,0.0,0.0,0.0,0.0,0.0,0.0,0.0,0.0,0.0,0.0,0.0,0.0,0.0,0.0,0.0,0.0,0.0,0.0,0.0,0.0,0.0,0.0,1.286,1.3265,1.3548,1.33,1.1728,0.0,0.0,0.0,0.0,0.0,0.0,0.0,0.0,0.0,0.0,0.0,1.2056,1.3067,1.3992,1.4852,1.4917,1.4928,1.4928,1.4349,1.3781,1.324,1.1957,1.0935,0.0,0.0,0.0,0.0,0.0,0.0,0.0,0.0,0.0,0.0,0.0,0.0,0.0,0.0,0.0,0.0,0.0,0.0,0.0,0.0,0.0,0.0,0.0,0.0,0.0,0.0,0.0,0.0,0.0,0.0,0.0,0.0,1.6656,1.6036,0.0,0.0,0.0,0.0,0.0,0.0,0.0,0.0,0.0,0.0,0.0,0.0,0.0,1.9566,2.111,2.1602,2.2382,2.3316,2.4509,2.5466,2.6163,2.6217,2.5863,2.5269,2.5771,0.0,1.9543,1.8621,0.0,0.0,0.0,0.0,0.0,0.0,0.0,0.0,0.0,0.0,0.0,0.0,0.0,0.0,0.0,0.0,0.0,0.0,0.0,0.0,0.0,0.0,1.5352,1.5557,1.4971,1.4233,1.3788,1.2665,1.1529,1.0666,0.9929,0.9224,0.0,0.0,0.0,0.0,0.0,0.0,1.214,1.3063,1.3895,1.4596,1.4597,1.4583,1.4583,1.3999,1.352,1.3233,1.2532,1.175,1.0915,1.0281,0.0,0.0,0.0,0.0,0.0,0.0,0.0,0.0,0.0,0.0,0.0,0.0,0.0,0.0,0.0,0.0,0.0,0.0,0.0,0.0,0.0,0.0,0.0,0.0,0.0,0.0,0.0,0.0,0.0,1.8083,1.8129,1.7244,1.764,1.7572,0.0,0.0,0.0,0.0,0.0,0.0,0.0,0.0,0.0,2.0506,2.0854,2.1864,2.367,2.381,2.4308,2.5163,2.5669,2.6407,2.7235,2.7235,2.7146,2.7043,2.7402,2.6206,2.3893,2.2189,2.0659,1.9329,0.0,0.0,0.0,0.0,1.6713,1.6601,1.7701,1.7776,1.7429,1.7318,0.0,0.0,0.0,0.0,0.0,0.0,0.0,1.4933,1.622,1.6757,1.7046,1.7231,1.7122,1.6818,1.6535,1.564,1.4392,1.26,1.1914,1.1312,1.0251,1.0169,0.0,0.0,0.0,1.1559,1.2318,1.3113,1.3771,1.4279,1.4117,1.3986,1.3986,1.36,1.3426,1.3572,1.3205,1.265,1.1928,1.133,1.0385,0.0,0.0,0.0,0.0,0.0,0.0,0.0,0.0,0.0,0.0,0.0,0.0,0.0,0.0,0.0,0.0,0.0,0.0,0.0,0.0,0.0,0.0,0.0,0.0,0.0,0.0,0.0,0.0,1.9226,1.9461,1.8604,1.941,1.9385,0.0,0.0,0.0,0.0,0.0,0.0,1.8711,1.9133,2.034,2.2614,2.3118,2.4201,2.6013,2.5889,2.6033,2.653,2.648,2.6848,2.7508,2.7508,2.7682,2.797,2.797,2.7735,2.7205,2.5093,2.3409,2.1954,2.0281,1.9339,1.8922,1.9249,1.915,1.9004,2.0087,2.02,1.9862,1.9564,1.8923,1.8037,1.6587,0.0,0.0,0.0,0.0,1.6689,1.7746,1.8218,1.8452,1.8759,1.8825,1.8692,1.838,1.7822,1.6773,1.4698,1.4044,1.3465,1.2237,1.2077,0.0,1.0908,1.1744,1.2658,1.3192,1.3863,1.437,1.4601,1.4378,1.421,1.4086,1.384,1.3831,1.4171,1.385,1.3407,1.2863,1.2317,1.1367,0.9974,0.0,0.0,0.0,0.0,0.0,0.0,0.0,0.0,0.0,0.0,0.0,0.0,0.0,0.0,0.0,0.0,0.0,0.0,0.0,0.0,0.0,0.0,0.0,0.0,0.0,0.0,0.0,0.0,0.0,2.0386,2.1332,0.0,0.0,0.0,0.0,2.0489,1.9968,2.0384,2.2158,2.194,2.2866,2.5324,2.5753,2.6552,2.796,2.7923,2.7949,2.7965,2.7965,2.7957,2.7958,2.7958,2.8146,2.8462,2.8462,2.8187,2.7702,2.6408,2.5356,2.4473,2.3202,2.2215,2.1538,2.1946,2.1839,2.1648,2.2431,2.2462,2.2272,2.301,2.196,2.0208,1.8908,1.7656,0.0,0.0,1.8153,1.874,2.0454,2.0263,1.9725,2.0093,1.9459,1.8692,1.838,1.7962,1.7469,1.6853,1.5947,1.5093,1.4446,0.0,1.3989,1.3474,1.4112,1.4795,1.5203,1.5803,1.6111,1.6015,1.5959,1.5811,1.5428,1.5168,1.5001,1.5022,1.4391,1.3855,1.3567,1.3146,1.2648,1.1964,1.0708,0.0,0.0,0.0,0.0,0.0,0.0,0.0,0.0,0.0,0.0,0.0,0.0,0.0,0.0,0.0,0.0,0.0,0.0,0.0,0.0,0.0,0.0,0.0,0.0,0.0,0.0,0.0,0.0,2.1853,2.2521,0.0,2.1094,2.1378,2.1809,2.2169,2.2182,2.2677,2.3792,2.3929,2.4558,2.5892,2.6267,2.6775,2.7482,2.7933,2.8051,2.7797,2.8228,2.8401,2.8328,2.8328,2.8507,2.8815,2.8815,2.8409,2.7794,2.7353,2.6545,2.5509,2.5051,2.4563,2.4072,2.3963,2.3835,2.369,2.3718,2.3629,2.3419,2.2923,2.2099,2.1145,2.0159,1.9552,1.9286,1.9886,2.0092,2.0368,2.1277,2.1246,2.1007,2.115,2.0952,2.0568,2.0166,1.9782,1.9363,1.893,1.7655,1.6539,1.6125,1.6032,1.5718,1.4711,1.5245,1.5829,1.5968,1.6341,1.6428,1.6134,1.5952,1.5675,1.5273,1.4719,1.4704,1.5513,1.4838,1.4372,1.4321,1.3912,1.3207,1.2129,1.1442,1.047,0.0,0.0,0.0,0.0,0.0,0.0,0.0,0.0,0.0,0.0,0.0,0.0,0.0,0.0,0.0,0.0,0.0,0.0,0.0,0.0,0.0,0.0,0.0,0.0,0.0,2.1893,2.2644,2.2698,2.35,2.3561,2.2449,2.2958,2.3467,2.3705,2.3988,2.4499,2.5141,2.5334,2.5737,2.6279,2.6512,2.6761,2.7149,2.7613,2.7744,2.7427,2.7858,2.8097,2.8037,2.8089,2.8328,2.8677,2.866,2.833,2.7813,2.7675,2.7068,2.6223,2.6223,2.5975,2.5571,2.5124,2.4895,2.4721,2.4349,2.4202,2.4045,2.3043,2.2419,2.197,2.1293,2.0991,2.0946,2.1245,2.1319,2.1339,2.1623,2.1696,2.1696,2.1696,2.1586,2.1403,2.1172,2.0695,2.0204,1.9939,1.8887,1.7908,1.7561,1.7538,1.7226,1.627,1.6665,1.7097,1.7097,1.7368,1.7369,1.6846,1.6626,1.6275,1.573,1.5246,1.5324,1.614,1.5421,1.4991,1.5033,1.44,1.3601,1.2714,1.2209,1.1175,0.9548,0.0,0.0,0.0,0.0,0.0,0.0,0.0,0.0,0.0,0.0,0.0,0.0,0.0,0.0,0.0,0.0,0.0,0.0,0.0,0.0,0.0,0.0,0.0,2.1748,2.2593,2.3104,2.3009,2.4176,2.451,2.3205,2.4341,2.5143,2.5143,2.5445,2.5786,2.6192,2.6208,2.6375,2.666,2.6684,2.6851,2.72,2.7253,2.7214,2.7101,2.7186,2.7187,2.7133,2.7409,2.7702,2.7993,2.7957,2.7852,2.7737,2.7343,2.6949,2.6591,2.6591,2.6334,2.5984,2.5571,2.5115,2.4702,2.4349,2.4202,2.4137,2.3627,2.3224,2.2831,2.24,2.1998,2.1696,2.1696,2.1696,2.1696,2.1696,2.1696,2.1696,2.1696,2.1376,2.1099,2.1089,2.0475,1.9884,1.9875,1.9577,1.9182,1.8797,1.8733,1.8605,1.8182,1.8485,0.0,1.8733,1.9054,1.899,1.8173,1.8072,1.7743,1.6972,1.6899,1.689,1.689,1.612,1.568,1.5689,1.4543,1.3929,1.3929,1.3103,1.2094,1.0845,0.0,0.0,0.0,0.0,0.0,0.0,0.0,0.0,0.0,0.0,0.0,0.0,0.0,0.0,0.0,0.0,0.0,0.0,0.0,0.0,0.0,2.1015,2.1991,2.2405,2.2925,2.3698,2.4736,2.5197,2.5388,2.5348,2.5698,2.5929,2.5929,2.5723,2.5786,2.6192,2.6208,2.6375,2.666,2.6922,2.7105,2.72,2.7948,2.8025,2.7465,2.8465,2.8514,2.7788,2.8319,2.8498,2.837,2.8269,2.7928,2.7404,2.7287,2.6829,2.6245,2.6527,2.6518,2.6334,2.5681,2.4973,2.4358,2.4248,2.4202,2.4137,2.3627,2.3224,2.2831,2.24,2.1998,2.1696,2.1696,2.1696,2.1696,2.1696,2.1696,2.1696,2.1696,2.1376,2.1025,2.0741,2.0241,1.9802,1.9531,1.9384,1.9265,1.9155,1.9146,1.91,1.8999,1.9072,1.9146,1.9146,1.899,1.8678,1.8136,1.7853,1.7458,1.6945,1.6642,1.6443,1.6443,1.5716,1.5386,1.568,1.4818,1.4341,1.4341,1.3219,1.2351,0.0,0.0,0.0,0.0,0.0,0.0,0.0,0.0,0.0,0.0,0.0,0.0,0.0,0.0,0.0,0.0,0.0,0.0,0.0,0.0,0.0,0.0,2.2148,2.3117,2.3472,2.3755,2.4314,2.5445,2.5769,2.5929,2.6192,2.6479,2.6534,2.6232,2.6104,2.616,2.6423,2.6431,2.6525,2.6883,2.7097,2.7262,2.7366,2.7975,2.8107,2.7804,2.8595,2.8595,2.802,2.8567,2.8596,2.8237,2.819,2.7788,2.7216,2.704,2.6683,2.6354,0.0,0.0,0.0,0.0,2.49,2.4202,2.4202,2.4202,2.4165,2.3877,2.337,2.2858,2.2611,2.2144,2.1696,2.1696,2.1696,2.1696,2.1696,2.1696,2.1696,2.1696,2.1248,2.0796,2.0567,2.0031,1.9595,1.9347,1.9301,0.0,1.9301,1.9301,1.9301,1.9301,1.9301,1.9301,1.9301,1.8962,1.8568,1.8127,1.7743,1.7339,1.6936,1.6697,0.0,0.0,0.0,1.5487,1.5212,1.4588,0.0,0.0,0.0,0.0,0.0,0.0,0.0,0.0,1.1191,1.06,0.0,0.0,0.0,0.0,0.0,0.0,0.0,0.0,0.0,0.0,0.0,0.0,0.0,0.0,0.0,0.0,2.3223,2.4106,2.4552,2.4619,2.4905,2.5612,2.5961,2.624,2.6319,2.6795,2.6883,2.6319,2.6526,2.6613,2.6613,2.6652,0.0,0.0,0.0,2.7374,2.762,2.7663,2.7875,2.8114,2.8145,2.808,2.808,2.8343,2.8255,2.7876,2.7779,2.7499,2.7141,2.6747,2.6591,2.6582,2.6536,2.649,2.6353,2.5582,2.4863,2.4202,2.4202,0.0,0.0,2.4202,2.3611,2.2904,2.2904,2.2336,2.1696,2.1696,2.1696,2.1696,2.1696,2.1696,2.1696,2.1696,2.1074,2.0521,2.0521,1.9879,1.9301,1.9301,1.9301,1.9301,1.9301,1.9301,1.9301,1.9301,1.9301,1.9301,1.9301,1.8916,1.8513,1.8127,1.7706,0.0,1.6936,1.6908,1.689,1.6844,1.6514,1.5817,1.4689,1.4332,1.4139,1.4084,1.4113,1.4442,1.5166,1.5166,1.5166,1.512,1.2609,1.1806,0.0,0.0,0.0,0.0,0.0,0.0,0.0,0.0,0.0,0.0,0.0,0.0,0.0,0.0,0.0,2.2408,2.3564,2.4488,2.4563,2.4825,2.5262,2.6025,2.6168,2.6431,2.6938,2.6867,2.6716,2.6581,2.6431,2.6311,2.6311,2.6517,2.6708,2.6771,2.7279,2.7564,2.762,2.8049,2.8368,2.8421,2.8688,0.0,2.8388,2.8419,2.8219,2.7858,2.7496,2.713,2.6798,2.6637,2.6591,2.6554,2.6215,2.5938,2.5546,2.5069,2.4633,2.4202,2.4202,2.4202,2.4202,2.4202,2.3611,2.2904,2.2904,2.2336,0.0,2.1696,2.1696,2.1696,2.1696,2.1696,2.1696,2.1696,2.1074,2.0521,2.0521,1.9879,1.9301,1.9301,1.9301,1.9301,1.9301,1.9301,1.9301,1.9301,1.9301,1.9301,1.9301,1.8678,1.8173,1.81,1.7458,1.6991,1.6908,1.6908,1.6771,1.645,1.6325,1.6056,1.5487,1.5707,1.5689,1.5349,1.534,1.5414,1.5579,1.5579,1.5579,1.556,1.5041,1.4396,0.0,0.0,0.0,0.0,0.0,0.0,0.0,0.0,0.0,0.0,0.0,1.9766,2.0554,0.0,2.272,2.3419,2.4269,2.4841,2.4841,2.5,2.5302,2.5826,2.589,2.6096,2.6628,2.6582,2.6342,2.6168,2.6152,2.6208,2.6208,2.6542,2.6864,2.7117,2.7425,2.776,2.8043,2.8368,2.8568,2.8736,2.8897,2.8824,2.8455,2.8431,2.811,2.7518,2.7296,2.7003,2.6636,2.661,2.6463,2.6287,2.5874,2.5598,2.5378,2.4931,2.4569,2.4202,2.4202,2.4202,2.4165,2.3914,2.3446,2.2867,2.2657,2.2172,2.1696,2.1696,2.1696,2.1696,2.1696,2.1696,2.1696,2.1696,2.1074,2.0521,2.0521,1.9879,1.9301,1.9301,1.9301,1.9301,1.9301,1.9301,1.9301,1.9301,1.9301,1.9301,1.9301,1.8614,1.8091,1.8091,1.7394,1.6908,1.6908,1.6908,1.6817,1.6624,1.6422,1.6221,1.601,1.6001,1.5909,1.5689,1.5689,1.579,1.6001,1.6001,1.6101,1.6294,1.6294,1.5918,0.0,0.0,0.0,0.0,0.0,0.0,0.0,1.8579,1.8772,1.9773,2.0091,2.0607,2.2005,2.2839,2.3594,2.4444,2.4881,2.5111,2.5111,2.5111,2.5214,2.55,2.5533,2.5771,2.6176,2.6152,2.5961,2.5755,2.5993,2.6208,2.6208,2.6607,2.7084,2.7521,2.7704,2.8022,2.8491,2.8534,2.8763,2.8984,2.8902,2.87,2.8388,2.8232,2.7801,2.7169,2.7095,2.6885,2.6582,2.6499,2.6261,2.5966,2.5488,2.5262,2.5207,2.4803,2.4496,2.4202,2.4202,2.4202,2.4137,2.3627,2.3224,2.2831,2.24,2.1998,2.1696,2.1696,2.1696,2.1696,2.1696,2.1696,2.1696,2.1696,2.1129,2.0613,2.0539,1.9943,1.9402,1.932,1.9301,1.9301,1.9301,1.9301,1.9301,1.9301,1.9301,1.9301,1.9301,1.8614,1.8091,1.8091,1.7394,1.6908,1.6908,1.6908,1.6908,1.6908,1.6606,1.6431,1.6431,1.6111,1.5927,1.5927,1.5927,1.6092,1.6431,1.6431,1.6597,1.6908,1.6908,1.6734,1.7445,1.7191,1.7445,1.8359,1.8653,1.9201,0.0,2.125,2.1198,2.1989,2.2641,2.3076,2.3275,2.3935,2.4444,2.4563,2.4881,2.5111,2.5111,2.5111,2.5119,2.5159,2.5445,2.5771,2.6176,2.5874,2.5802,2.6128,2.6184,2.6208,2.6208,2.7044,2.7415,2.7167,2.7974,2.8448,2.8482,2.8811,2.8971,2.8975,2.8627,2.8434,2.837,2.7646,2.726,2.716,2.6811,2.6628,2.6554,2.6188,2.6058,2.5938,2.5142,2.4849,2.4803,2.4431,2.4248,2.4202,2.4202,2.4202,2.4137,2.3627,2.3224,2.2831,2.24,2.1998,2.1696,2.1696,2.1696,2.1696,2.1696,2.1696,2.1696,2.1696,2.1383,2.0943,2.0594,2.0131,1.9751,1.9375,1.9301,1.9301,1.9301,1.9301,1.9301,1.9301,1.9301,1.9301,1.9301,1.8614,1.8091,1.8091,1.7394,1.6908,1.6908,1.6908,1.6908,1.6908,1.6862,1.6844,1.6844,1.6798,1.6771,1.6771,1.6771,1.6798,1.6844,1.6844,1.6862,1.6908,1.6908,1.689,1.8557,1.8637,1.8985,1.9574,2.0002,2.0636,2.1973,2.2156,2.2307,2.3269,2.3475,2.3607,2.407,2.4388,2.4642,2.4857,2.5016,2.5111,2.5111,2.4928,2.4801,2.4801,2.4928,2.5159,2.5508,2.5413,2.5389,2.5532,2.5739,2.585,2.585,2.6616,2.7023,2.7119,2.783,2.8315,2.8519,2.8828,2.8865,2.8645,2.8471,2.8141,2.7673,2.7334,2.705,2.682,2.6655,2.6444,2.6269,2.6085,2.5736,2.5295,2.4913,2.4679,2.444,2.4266,2.4202,2.4202,2.4202,2.3996,2.373,2.3279,2.2876,2.2465,2.2062,2.1824,2.1696,2.1696,2.1696,2.1696,2.1696,2.1696,2.1696,2.1696,2.1376,2.0998,2.0604,2.0168,1.9765,1.9384,1.9301,1.9301,1.9301,1.9301,1.9301,1.9301,1.9301,1.9301,1.9301,1.8614,1.7908,1.7468,1.711,1.6908,1.6908,1.6908,1.6908,1.6908,1.6908,1.6908,1.6908,1.6908,1.6908,1.6908,1.6908,1.6908,1.6908,1.6908,1.6908,1.6908,1.6908,1.6908,1.9304,1.9734,2.0195,2.0686,2.1362,2.2007,2.276,2.2847,2.3022,2.3938,2.3777,2.3729,2.4325,2.4436,2.4547,2.4905,2.496,2.5,2.5095,2.4801,2.4579,2.4579,2.4492,2.4579,2.4928,2.5056,2.5151,2.5246,2.543,2.5573,2.5573,2.6246,2.6662,2.6806,2.7519,2.8009,2.8208,2.8627,2.8664,2.8272,2.8211,2.7856,2.7169,2.7068,2.6866,2.6591,2.6591,2.6344,2.6002,2.5892,2.5451,2.4776,2.4656,2.4468,2.4202,2.4202,2.4202,2.4202,2.4202,2.3886,2.3425,2.3032,2.2702,2.2355,2.1851,2.1769,2.1833,2.1723,2.1696,2.1696,2.1696,2.1696,2.1696,2.1696,2.1502,2.1172,2.0769,2.0365,1.993,1.9549,1.9384,1.9301,1.9301,1.9301,1.9301,1.9301,1.9301,1.9301,1.9301,1.8614,1.7816,1.7147,1.6972,1.6908,1.6908,1.6908,1.6908,1.6908,1.6908,1.6908,1.6908,1.6908,1.6908,1.6908,1.6908,1.6908,1.6908,1.6908,1.6908,1.6908,1.6908,1.6908,1.9415,1.9868,2.0623,2.1709,2.2442,2.3149,2.3906,2.3745,2.3618,2.4034,2.3777,2.3649,2.4066,2.4129,2.4241,2.4539,2.4595,2.4714,2.5063,2.4801,2.4579,2.4579,2.4337,2.4265,2.4563,2.4905,2.5246,2.5533,2.5573,2.5573,2.5573,2.6262,2.6471,2.6161,2.7056,2.753,2.7521,2.8208,2.8309,2.7894,2.7852,2.7572,2.7169,2.6784,2.66,2.6591,2.6591,2.6344,2.5984,2.5598,2.5152,2.4739,2.4385,2.4211,2.4202,2.4202,2.4202,2.4202,2.4202,2.3886,2.3425,2.3032,2.2895,2.2739,2.1934,2.1961,2.2181,2.1797,2.1696,2.1696,2.1696,2.1696,2.1696,2.1696,2.1678,2.1559,2.1181,2.0778,2.0342,1.9948,1.9577,1.9301,1.9301,1.9301,1.9301,1.9301,1.9301,1.9301,1.9301,1.8614,1.7954,1.7523,1.7138,1.6908,1.6908,1.6908,1.6908,1.6908,1.6908,1.6908,1.6908,1.6908,1.6908,1.6908,1.6908,1.6908,1.6908,1.6908,1.6908,1.6908,1.6908,1.6908,1.9924,2.0726,2.1685,2.2458,2.3014,2.3491,2.4002,2.4026,2.3848,2.3737,2.3568,2.3449,2.3387,2.3554,2.3832,2.4233,2.4428,2.4706,2.5063,2.4801,2.4492,2.4321,2.4185,2.4161,2.4281,2.44,2.465,2.5238,2.5071,2.504,2.5278,2.5719,2.5908,2.5786,2.651,2.6926,2.6926,2.7456,2.7543,2.7142,2.7073,2.6912,2.6784,2.6646,2.6591,2.6573,2.6298,2.5993,2.5589,2.5194,2.4739,2.4404,2.4257,2.4202,2.4202,2.4202,2.3978,2.3749,2.3749,2.3444,2.3041,2.262,2.2492,2.2391,2.1851,2.197,2.2199,2.1806,2.1696,2.1696,2.1696,2.1696,2.1696,2.1696,2.1696,2.1577,2.12,2.1007,2.0714,2.0021,1.9774,1.9591,1.9347,1.9301,1.9301,1.9301,1.9301,1.9201,1.8944,1.8411,1.7963,1.7541,1.7138,1.6908,1.6908,1.6908,1.6908,1.6908,1.6908,1.6908,1.6908,1.6908,1.6908,1.6908,1.6908,1.6908,1.6908,1.6908,1.6908,1.6908,1.6908,1.6908,2.0917,2.1727,2.2537,2.3363,2.3745,2.3975,2.419,2.4047,2.3769,2.3427,2.2997,2.2672,2.2498,2.2434,2.2696,2.3546,2.3769,2.4126,2.4992,2.4801,2.4499,2.4329,2.4023,2.3967,2.4281,2.3904,2.4078,2.504,2.4897,2.4865,2.5095,2.5296,2.5418,2.5418,2.597,2.6208,2.6075,2.684,2.716,2.6912,2.6728,2.6591,2.6591,2.6591,2.6509,2.6344,2.6131,2.5708,2.5194,2.4886,2.4537,2.4202,2.4202,2.4202,2.4202,2.4202,2.3895,2.3499,2.3499,2.3142,2.2638,2.2364,2.2382,2.24,2.1861,2.2071,2.2391,2.1842,2.1696,2.1696,2.1696,2.1696,2.1696,2.1696,2.1696,2.1623,2.1392,2.1209,2.0915,2.0223,1.9985,1.9756,1.9375,1.9301,1.9301,1.9301,1.9301,1.921,1.8953,1.8577,1.8174,1.7761,1.7358,1.7064,1.6917,1.6908,1.6908,1.6908,1.6908,1.6908,1.6908,1.6908,1.6908,1.6908,1.6908,1.6908,1.6908,1.6908,1.6908,1.6908,1.6908,1.6982,2.2212,2.2784,2.3332,2.4333,2.4579,2.4571,2.4531,2.3991,2.3314,2.2966,2.2015,2.1301,2.1246,2.0798,2.0948,2.2633,2.2704,2.3133,2.4817,2.4785,2.4571,2.4531,2.3959,2.3832,2.4492,2.3665,2.3657,2.5008,2.5071,2.5071,2.5111,2.5111,2.5111,2.5111,2.5402,2.5416,2.5076,2.6211,2.6933,2.7141,2.6765,2.6591,2.6591,2.6564,2.6334,2.6012,2.5966,2.5525,2.4785,2.4757,2.456,2.4202,2.4202,2.4202,2.4202,2.4183,2.3868,2.3462,2.3444,2.2922,2.2318,2.2254,2.2547,2.2757,2.1943,2.2263,2.2739,2.1925,2.1696,2.1696,2.1696,2.1696,2.1696,2.1696,2.1696,2.1696,2.1696,2.142,2.1016,2.0622,2.0177,1.9756,1.9375,1.9301,1.9301,1.9301,1.9301,1.9301,1.9301,1.8962,1.8568,1.8127,1.7743,1.7339,1.6936,1.6908,1.6908,1.6908,1.6908,1.6908,1.6908,1.6908,1.6908,1.6908,1.6908,1.6908,1.6908,1.6908,1.6908,1.6908,1.6927,1.7138,2.2182,2.3316,2.4245,2.4515,2.4579,2.4444,2.3927,2.326,2.2434,2.1298,2.0639,2.0027,1.9248,1.9805,2.0631,2.1338,2.2427,2.3514,2.4221,2.4468,2.4388,2.3872,2.3872,2.405,2.4233,2.4182,2.4436,2.5063,2.4619,2.4555,2.5079,2.5111,2.5111,2.5111,2.4918,2.4795,2.4707,2.5402,2.6035,2.6738,2.6637,2.6591,2.6582,2.6261,2.6113,2.5984,2.5387,2.4968,2.4757,2.4496,2.4303,2.4202,2.4202,2.4202,2.4165,2.3813,2.3398,2.3014,2.2693,2.2455,2.2227,2.1934,2.2327,2.2757,2.1943,2.2263,2.2739,2.1925,2.1696,2.1696,2.1696,2.1696,2.1696,2.1696,2.1696,2.1696,2.1696,2.1604,2.1412,2.1034,2.036,1.9756,1.9375,1.9301,1.9301,1.9301,1.9301,1.9301,1.9301,1.8962,1.8568,1.8127,1.7743,1.7339,1.6936,1.6908,1.6908,1.6908,1.6908,1.6908,1.6908,1.6908,1.6908,1.6908,1.6908,1.6908,1.6908,1.6908,1.6908,1.6908,1.7211,1.7394,2.2356,2.3131,2.3604,2.3893,2.3657,2.3119,2.2428,2.1812,2.1046,1.9626,1.9154,1.867,1.7661,1.8468,1.9558,2.0535,2.1902,2.3181,2.4209,2.446,2.4436,2.4047,2.4031,2.4169,2.4329,2.4384,2.4555,2.5071,2.4738,2.469,2.5087,2.5111,2.504,2.4881,2.469,2.4727,2.4934,2.529,2.5845,2.6591,2.6591,2.6591,2.6573,2.6205,2.592,2.5718,2.5051,2.4675,2.4542,2.4303,2.4202,2.4202,2.4202,2.4202,2.4156,2.3694,2.3242,2.2849,2.2428,2.2163,2.1989,2.176,2.2117,2.251,2.1879,2.2135,2.2501,2.187,2.1696,2.1696,2.1696,2.1696,2.1696,2.1696,2.1696,2.1696,2.1696,2.1696,2.1522,2.097,2.0314,1.9756,1.9375,1.9301,1.9301,1.9301,1.9301,1.9301,1.9301,1.9109,1.8815,1.8421,1.8018,1.7605,1.7202,1.7009,1.6908,1.6908,1.6908,1.6908,1.6908,1.6908,1.6908,1.6908,1.6908,1.6908,1.6908,1.6908,1.7,1.7165,1.7394,1.7688,2.2381,2.2486,2.2222,2.2833,2.2306,2.135,2.0564,2.0126,1.9448,1.8068,1.7606,1.7223,1.6377,1.6896,1.8016,1.9713,2.0984,2.2371,2.402,2.4384,2.4444,2.4444,2.4213,2.4233,2.4484,2.4376,2.4444,2.5063,2.5111,2.5111,2.5111,2.5111,2.4928,2.4523,2.458,2.4766,2.5227,2.5515,2.6026,2.6591,2.6591,2.6554,2.649,2.6122,2.5718,2.5323,2.4918,2.4542,2.4202,2.4202,2.4202,2.4202,2.4202,2.4165,2.4073,2.3572,2.3169,2.2767,2.2346,2.198,2.1696,2.1696,2.1961,2.2199,2.1806,2.197,2.2199,2.1806,2.1696,2.1696,2.1696,2.1696,2.1696,2.1696,2.1696,2.1696,2.1696,2.1696,2.1467,2.075,2.0232,1.9829,1.9457,1.9338,1.9301,1.9301,1.9301,1.9301,1.9301,1.9301,1.9155,1.8751,1.8412,1.8009,1.7541,1.7183,1.6963,1.6908,1.6908,1.6908,1.6908,1.6908,1.6908,1.6908,1.6908,1.6908,1.6908,1.6963,1.7156,1.7495,1.7605,1.8036,2.1469,2.1997,2.2097,2.1959,2.1424,2.0704,1.9576,1.8906,1.8107,1.6868,1.6133,1.5685,1.5466,1.5628,1.6272,1.7665,1.9441,2.1115,2.2458,2.3247,2.3663,2.3663,2.392,2.4129,2.4193,2.4619,2.4976,2.5103,2.5111,2.5111,2.5111,2.5111,2.4817,2.4225,2.4381,2.4587,2.4881,2.543,2.6026,2.6591,2.6591,2.6408,2.6104,2.5708,2.5262,2.4858,2.4496,2.4266,2.4202,2.4202,2.4202,2.4202,2.4202,2.395,2.3553,2.3151,2.2748,2.2327,2.1934,2.1751,2.1696,2.1696,2.1961,2.2199,2.1806,2.197,2.2199,2.1806,2.1696,2.1696,2.1696,2.1696,2.1696,2.1696,2.1696,2.1696,2.1696,2.1696,2.1549,2.1099,2.0686,2.0292,1.9847,1.9531,1.9301,1.9301,1.9301,1.9301,1.9301,1.9301,1.9155,1.8751,1.865,1.8311,1.7559,1.7431,1.7257,1.6927,1.6908,1.6908,1.6908,1.6908,1.6908,1.6908,1.6908,1.6908,1.6908,1.7229,1.7422,1.7513,1.8192,1.8577,2.0693,2.0793,2.0548,2.0651,1.9914,1.8768,1.758,1.6752,1.5829,1.4409,1.4112,1.3943,1.344,1.4438,1.5558,1.6263,1.8321,2.0292,2.143,2.2266,2.299,2.3721,2.401,2.4185,2.4368,2.4801,2.5111,2.5111,2.4936,2.4913,2.5103,2.4762,2.4495,2.425,2.4512,2.4799,2.5238,2.5852,2.6309,2.6582,2.6371,2.6205,2.5993,2.5387,2.4959,2.4757,2.4385,2.4202,2.4202,2.4202,2.4202,2.4202,2.4202,2.3904,2.3444,2.305,2.2638,2.2217,2.1833,2.1696,2.1696,2.1696,2.1824,2.197,2.1989,2.2126,2.2245,2.2053,2.1998,2.1952,2.1742,2.1696,2.1696,2.1696,2.1696,2.1696,2.1696,2.1696,2.1568,2.119,2.0787,2.0351,1.9957,1.9577,1.9301,1.9301,1.9301,1.9301,1.9301,1.9301,1.9228,1.9036,1.8834,1.855,1.8164,1.7743,1.7413,1.722,1.7018,1.6908,1.6908,1.6908,1.7,1.7211,1.7211,1.7321,1.7505,1.7734,1.7926,1.8137,1.8531,1.8825,1.9839,1.9618,1.9063,1.9375,1.8383,1.7027,1.5758,1.488,1.3903,1.238,1.2344,1.2454,1.1891,1.3184,1.4488,1.5006,1.698,1.8959,2.0399,2.1256,2.2285,2.3785,2.4066,2.4249,2.4547,2.4905,2.5079,2.5,2.4666,2.4587,2.4865,2.4285,2.41,2.4384,2.4639,2.5064,2.5679,2.63,2.6545,2.6454,2.6168,2.592,2.5736,2.5069,2.473,2.4629,2.4349,2.4202,2.4202,2.4202,2.4202,2.4192,2.411,2.3776,2.3316,2.2922,2.251,2.2108,2.1797,2.1696,2.1696,2.1696,2.1696,2.1769,2.2163,2.2282,2.2282,2.2282,2.2282,2.219,2.1797,2.1696,2.1696,2.1696,2.1696,2.1696,2.1696,2.1696,2.1595,2.131,2.0915,2.0521,2.0085,1.9714,1.9402,1.932,1.9301,1.9301,1.9301,1.9301,1.9301,1.9301,1.9026,1.8806,1.8715,1.8128,1.7724,1.7633,1.7257,1.7037,1.7037,1.7037,1.7183,1.7486,1.7587,1.7789,1.8091,1.8173,1.8412,1.8715,1.8797,1.9008,1.8696,1.8779,1.8712,1.8483,1.7586,1.641,1.5079,1.4218,1.338,1.2257,1.167,1.1583,1.2305,1.1729,1.1771,1.3795,1.4816,1.6243,1.889,2.0249,2.1585,2.3344,2.3864,2.4249,2.4547,2.4905,2.4976,2.4658,2.436,2.4169,2.4209,2.3792,2.3793,2.4375,2.4639,2.5064,2.5679,2.63,2.6399,2.6067,2.603,2.5635,2.4886,2.4812,2.4624,2.4257,2.422,2.4202,2.4202,2.4202,2.4202,2.4165,2.3739,2.3306,2.2913,2.2492,2.2089,2.1742,2.1705,2.1696,2.1696,2.1696,2.1696,2.1769,2.2163,2.2282,2.2282,2.2282,2.2282,2.219,2.1797,2.1696,2.1696,2.1696,2.1696,2.1696,2.1696,2.1696,2.1678,2.1641,2.1302,2.0924,2.0488,2.0095,1.9701,1.9356,1.9301,1.9301,1.9301,1.9301,1.9301,1.9301,1.9265,1.91,1.8742,1.8641,1.8449,1.8054,1.7669,1.744,1.744,1.744,1.7458,1.7495,1.7871,1.8045,1.8091,1.8485,1.8678,1.8724,1.9081,1.9265,1.8052,1.8324,1.8348,1.7913,1.7123,1.606,1.457,1.3371,1.2286,1.1185,1.0698,1.0528,1.0874,1.0965,1.1268,1.2099,1.3107,1.449,1.6593,1.7963,1.9701,2.2308,2.3085,2.3816,2.4801,2.4833,2.4555,2.3999,2.3824,2.3657,2.3443,2.3506,2.3836,2.4617,2.4744,2.5284,2.6245,2.6473,2.638,2.6012,2.5773,2.5317,2.4776,2.4569,2.4358,2.4202,2.4202,2.4202,2.4183,2.3886,2.3785,2.3749,2.3297,2.2885,2.251,2.2346,2.2025,2.1696,2.1696,2.1696,2.1696,2.1696,2.1851,2.2126,2.2538,2.2474,2.2327,2.2584,2.2474,2.219,2.1797,2.1696,2.1696,2.1696,2.1696,2.1696,2.1696,2.1696,2.1696,2.1696,2.1392,2.0979,2.0585,2.0149,1.9747,1.9366,1.9301,1.9301,1.9301,1.9301,1.9301,1.9301,1.9301,1.9237,1.9081,1.8852,1.8641,1.8485,1.8091,1.7871,1.7871,1.7871,1.799,1.8229,1.8394,1.8595,1.8834,1.899,1.9063,1.9072,1.9228,1.9301,1.7479,1.7841,1.7962,1.7575,1.6761,1.5674,1.4232,1.2813,1.1489,1.0497,1.0027,0.9817,0.9889,1.0396,1.0865,1.1089,1.2068,1.3365,1.4983,1.6534,1.8405,2.0893,2.2016,2.3022,2.4221,2.4293,2.4129,2.3801,2.3672,2.3561,2.3528,2.3756,2.4168,2.4787,2.4778,2.5404,2.6591,2.6463,2.6197,2.5837,2.539,2.4986,2.4583,2.4339,2.4202,2.4202,2.4202,2.4137,2.395,2.3657,2.3425,2.3279,2.2876,2.2538,2.2309,2.2153,2.1934,2.1696,2.1696,2.1696,2.1696,2.1696,2.1961,2.2355,2.2785,2.2693,2.2529,2.2821,2.2519,2.2044,2.176,2.1696,2.1696,2.1696,2.1696,2.1696,2.1696,2.1696,2.1696,2.1696,2.1449,2.1126,2.0613,2.0292,1.9884,1.9384,1.9301,1.9301,1.9301,1.9301,1.9301,1.9301,1.9301,1.9301,1.9301,1.9045,1.8889,1.8889,1.8513,1.8264,1.8264,1.8264,1.8393,1.8705,1.8825,1.9026,1.9301,1.9301,1.9301,1.9301,1.9301,1.9301,1.6881,1.7292,1.7491,1.7485,1.6489,1.5228,1.4153,1.2674,1.1273,1.046,0.9883,0.96,0.9859,0.9907,1.0166,1.0985,1.1822,1.2968,1.4597,1.649,1.8113,1.919,2.0571,2.169,2.2442,2.3141,2.3777,2.4375,2.4054,2.4136,2.4731,2.4787,2.4787,2.4778,2.4778,2.5404,2.6591,2.6232,2.5819,2.5424,2.4977,2.4615,2.4211,2.4202,2.4202,2.4202,2.4202,2.3923,2.3499,2.3499,2.327,2.2876,2.2446,2.2282,2.2227,2.1842,2.1696,2.1696,2.1696,2.1696,2.1696,2.1696,2.1961,2.2355,2.2785,2.2904,2.2904,2.2904,2.2318,2.1696,2.1696,2.1696,2.1696,2.1696,2.1696,2.1696,2.1696,2.1696,2.1696,2.1696,2.1687,2.1431,2.0659,2.0512,2.0237,1.9421,1.9301,1.9301,1.9301,1.9301,1.9301,1.9301,1.9301,1.9301,1.9301,1.9292,1.9292,1.9292,1.8926,1.8705,1.8705,1.8705,1.8705,1.8715,1.91,1.9292,1.9301,1.9301,1.9301,1.9301,1.9301,1.9301,1.5113,1.5644,1.5952,1.5221,1.4853,1.4352,1.3103,1.2149,1.1266,1.046,0.9877,0.954,0.9624,0.9636,0.9955,1.0954,1.1328,1.2041,1.3519,1.5468,1.7301,1.8822,2.1541,2.322,2.3213,2.3739,2.4114,2.4038,2.4362,2.462,2.4787,2.4778,2.5008,2.5404,2.5404,2.5798,2.6582,2.6223,2.5819,2.5414,2.4968,2.4615,2.4202,2.4202,2.4202,2.4202,2.4202,2.3923,2.3471,2.3206,2.2849,2.2437,2.2034,2.1879,2.1861,2.1742,2.1696,2.1696,2.1696,2.1696,2.1733,2.2007,2.2373,2.273,2.2867,2.2712,2.2419,2.2153,2.1897,2.1696,2.1696,2.1696,2.1696,2.1696,2.1696,2.1696,2.1696,2.1696,2.1696,2.1696,2.1696,2.1522,2.1016,2.0924,2.0649,1.9811,1.9692,1.9622,1.9338,1.9301,1.9301,1.9301,1.9301,1.9301,1.9301,1.9301,1.9301,1.9301,1.9182,1.9118,1.9118,1.9118,1.9118,1.9118,1.9237,1.9301,1.9301,1.9301,1.9301,1.9301,1.9301,1.9301,1.4014,1.4515,1.4763,1.4195,1.3954,1.3586,1.2548,1.1712,1.102,1.0418,0.9877,0.9516,0.9516,0.9594,0.9877,1.0527,1.1015,1.1771,1.3123,1.5047,1.7112,1.92,2.1624,2.3038,2.295,2.3634,2.4087,2.42,2.4676,2.5119,2.5459,2.5459,2.5553,2.5793,2.5717,2.5891,2.6353,2.5993,2.5589,2.5142,2.479,2.4459,2.4202,2.4202,2.4202,2.4202,2.4202,2.3831,0.0,2.3004,2.2574,2.2034,2.1787,2.1696,2.1696,2.1696,2.1696,2.1696,2.1696,2.1696,2.176,2.2153,2.2565,2.2876,2.2721,2.2492,2.2199,2.1806,2.1696,2.1696,2.1696,2.1696,2.1696,2.1696,2.1696,2.1696,2.1696,2.1696,2.1696,2.1696,2.1696,2.1559,2.1181,2.0979,2.0668,1.9985,1.9756,1.9595,1.9329,1.9301,1.9301,1.9301,1.9301,1.9301,1.9301,1.9301,1.9301,1.9301,1.9301,1.9301,1.9301,1.9301,1.9301,1.9301,1.9301,1.9301,1.9301,1.9301,1.9301,1.9301,1.9301,1.9301,0.0,1.3749,1.3833,1.4002,1.3519,1.2818,1.23,1.1407,0.0,1.0322,0.9865,0.9528,0.9564,0.9751,0.9937,1.0033,1.0946,1.2031,1.329,1.524,1.7507,2.0108,2.1079,2.1687,2.2051,2.2965,2.3857,2.4723,2.5055,2.5615,2.6527,2.6564,2.6362,2.6021,2.5811,2.5757,2.5975,2.558,2.5142,2.4776,2.4404,2.4202,2.4202,2.4202,2.4202,2.4202,2.4165,2.3666,2.2904,2.2876,2.24,2.1696,2.1696,2.1696,2.1696,2.1696,2.1696,2.1696,2.1696,2.1705,2.1797,2.219,2.2565,2.2794,2.24,2.2282,2.2199,2.1806,2.1696,2.1696,2.1696,2.1696,2.1696,2.1696,2.1696,2.1696,2.1696,2.1696,2.1696,2.1696,2.1696,2.1568,2.1218,2.0851,2.0457,1.9994,1.9641,1.9366,1.9311,1.9301,1.9301,1.9301,1.9301,1.9301,1.9301,1.9301,1.9301,1.9301,1.9301,1.9301,1.9301,1.9301,1.9301,1.9301,1.9301,1.9301,1.9301,1.9301,1.9301,1.9301,1.9301,1.9301,1.1685,0.0,1.2506,1.1751,1.1694,1.167,0.0,1.0569,1.031,1.0051,0.9739,0.9636,1.0039,0.9997,1.0238,1.1254,1.1636,1.2145,1.3071,1.5897,1.8525,2.0416,2.1822,2.268,2.276,2.3423,2.4072,2.4731,2.5284,2.5852,2.6537,2.6289,2.6122,2.6021,2.5651,2.5496,2.5561,2.5115,2.4876,2.4776,2.4404,2.4202,2.4202,2.4202,2.4202,2.4183,2.3822,2.3361,2.2885,2.2565,2.2135,2.1696,2.1696,2.1696,2.1696,2.1696,2.1696,2.1696,2.1696,2.1888,2.2208,2.262,2.2611,2.241,2.2309,2.2282,2.2199,2.1806,2.1696,2.1696,2.1696,2.1696,2.1696,2.1696,2.1696,2.1696,2.1696,2.1696,2.1696,2.1696,2.1696,2.1659,2.1559,2.1467,2.1165,2.0451,2.0292,2.0008,1.9384,1.9301,1.9301,1.9301,1.9301,1.9301,1.9301,1.9301,1.9301,1.9301,1.9301,1.9301,1.9301,1.9301,1.9301,1.9301,1.9301,1.9301,1.9301,1.9301,1.9301,1.9301,1.9301,1.9301,1.093,1.1393,1.1778,1.12,1.1176,1.1188,1.0755,1.037,1.0075,0.9937,0.9697,0.9636,1.0039,1.01,1.0358,1.1194,1.1645,1.2579,1.4527,1.7218,1.9539,2.1087,2.23,2.3014,2.3014,2.3697,2.4303,2.4787,2.5292,2.5811,2.6298,2.5966,2.5663,2.5479,2.5267,2.5106,2.5106,2.4886,2.4735,2.4542,2.4312,2.4202,2.4202,2.4202,2.4202,2.4183,2.3721,2.327,2.2876,2.2455,2.2053,2.1696,2.1696,2.1696,2.1696,2.1696,2.1696,2.1723,2.1897,2.2227,2.2547,2.24,2.2318,2.2245,2.2062,2.2007,2.1961,2.1751,2.1696,2.1696,2.1696,2.1696,2.1696,2.1696,2.1696,2.1696,2.1696,2.1696,2.1696,2.1696,2.1696,2.1696,2.1696,2.1531,2.13,2.0851,2.0484,2.009,1.965,1.9421,1.9301,1.9301,1.9301,1.9301,1.9301,1.9301,1.9301,1.9301,1.9301,1.9301,1.9301,1.9301,1.9301,1.9301,1.9301,1.9301,1.9301,1.9301,1.9301,1.9301,1.9301,1.9301,1.0683,1.111,1.1513,1.1351,1.1226,1.1093,1.1009,1.0442,0.9961,0.9961,0.9787,0.9727,1.0027,1.0298,1.0575,1.0875,1.1633,1.3289,1.6289,1.844,2.0226,2.161,2.253,2.3014,2.3127,2.3865,2.4454,2.482,2.518,2.5567,2.5876,2.5543,2.5133,2.4794,2.4721,2.4684,2.4684,2.4684,2.456,2.4202,2.4202,2.4202,2.4202,2.4202,2.4165,2.4082,2.3629,2.3178,2.2785,2.2364,2.1989,2.1696,2.1696,2.1696,2.1696,2.1696,2.1733,2.1833,2.2236,2.2565,2.2693,2.2007,2.1961,2.2126,2.1797,2.1696,2.1696,2.1696,2.1696,2.1696,2.1696,2.1696,2.1696,2.1696,2.1696,2.1696,2.1696,2.1696,2.1696,2.1696,2.1696,2.1696,2.1696,2.1438,2.1181,2.1117,2.0484,1.9957,1.9893,1.9567,1.9301,1.9301,1.9301,1.9301,1.9301,1.9301,1.9301,1.9301,1.9301,1.9301,1.9301,1.9301,1.9301,1.9301,1.9301,1.9301,1.9301,1.9301,1.9301,1.9301,1.9301,1.9301,1.0503,1.1242,1.1609,1.0701,1.0779,1.0997,1.0515,1.0322,1.0238,1.0238,1.0202,1.0322,1.0803,1.1122,1.1465,1.1952,1.2928,1.4244,1.618,1.8036,1.9631,2.0754,2.2126,2.3183,2.3689,2.3865,2.4288,2.501,2.5093,2.5236,2.5482,2.5087,2.4849,2.4785,2.4486,2.4293,2.4293,2.4293,2.4266,2.4202,2.4202,2.4202,2.4202,2.4202,2.396,2.3563,2.3169,2.2757,2.2346,2.1952,2.1751,2.1696,2.1696,2.1696,2.1696,2.1696,2.1906,2.2245,2.2666,2.262,2.2355,2.2227,2.2007,2.1769,2.1705,2.1696,2.1696,2.1696,2.1696,2.1696,2.1696,2.1696,2.1696,2.1696,2.1696,2.1696,2.1696,2.1696,2.1696,2.1696,2.1696,2.1696,2.1696,2.1641,2.1476,2.1163,2.0723,2.0268,1.993,1.9567,1.9301,1.9301,1.9301,1.9301,1.9301,1.9301,1.9301,1.9301,1.9301,1.9301,1.9301,1.9301,1.9301,1.9301,1.9301,1.9301,1.9301,1.9301,1.9301,1.9301,1.9301,1.9301,1.0083,1.0737,1.1116,1.0629,1.1154,1.1661,1.1242,1.093,1.0719,1.0719,1.0719,1.0833,1.123,1.1633,1.227,1.323,1.3924,1.4912,1.6588,1.8188,1.9691,2.1025,2.2355,2.3412,2.4128,2.4127,2.4373,2.5075,2.4994,2.4993,2.506,2.4716,2.4496,2.4496,2.4303,2.4202,2.4202,2.4202,2.4202,2.4202,2.4202,2.4202,2.4192,2.3923,2.3721,2.3462,2.284,2.2455,2.2245,2.1851,2.1696,2.1696,2.1696,2.1696,2.1723,2.1934,2.24,2.2904,2.2648,2.2593,2.2547,2.2108,2.1842,2.1696,2.1696,2.1696,2.1696,2.1696,2.1696,2.1696,2.1696,2.1696,2.1696,2.1696,2.1696,2.1696,2.1696,2.1696,2.1696,2.1696,2.1696,2.1696,2.1696,2.1696,2.1549,2.1172,2.0769,2.0332,1.9939,1.9567,1.9301,1.9301,1.9301,1.9301,1.9301,1.9301,1.9301,1.9301,1.9301,1.9301,1.9301,1.9301,1.9301,1.9301,1.9301,1.9301,1.9301,1.9301,1.9301,1.9301,1.9301,1.9301,0.9826,1.0382,1.0737,1.0797,1.1425,1.2029,1.2017,1.1642,1.1335,1.1461,1.1534,1.1573,1.1657,1.2198,1.3006,1.428,1.477,1.5614,1.7432,1.8726,2.0099,2.1775,2.2797,2.367,2.4357,2.4327,2.4497,2.5014,2.4866,2.4739,2.4638,2.4376,2.4202,2.4202,2.4202,2.4202,2.4202,2.4202,2.4202,2.4202,2.4202,2.4156,2.3996,2.3636,2.3389,2.3178,2.2547,2.2282,2.2245,2.1851,2.1751,2.1824,2.1733,2.1751,2.1888,2.2382,2.2904,2.327,2.2638,2.2574,2.2648,2.1925,2.1696,2.1696,2.1696,2.1696,2.1696,2.1696,2.1696,2.1696,2.1696,2.1696,2.1696,2.1696,2.1696,2.1696,2.1696,2.1696,2.1696,2.1696,2.1696,2.1659,2.1559,2.1549,2.1431,2.1154,2.0695,2.0259,2.0058,1.9613,1.9301,1.9301,1.9301,1.9301,1.9301,1.9301,1.9301,1.9301,1.9301,1.9301,1.9301,1.9301,1.9301,1.9301,1.9301,1.9301,1.9301,1.9301,1.9301,1.9301,1.9402,1.9448,1.0165,1.0653,1.0743,1.1021,1.1141,1.1389,1.2119,1.2065,1.1958,1.2487,1.2795,1.2788,1.2343,1.2898,1.3785,1.4871,1.5481,1.6575,1.8733,1.9687,2.0868,2.278,2.3336,2.3831,2.443,2.4456,2.4567,2.4793,2.4812,2.4661,2.4266,2.422,2.4202,2.4202,2.4202,2.4202,2.4202,2.4202,2.4202,2.4202,2.4202,2.395,2.3535,2.3508,2.3078,2.2364,2.2355,2.2282,2.2245,2.1851,2.1906,2.2199,2.1833,2.1916,2.2327,2.3123,2.3215,2.294,2.2885,2.262,2.2254,2.1833,2.1696,2.1696,2.1696,2.1696,2.1696,2.1696,2.1696,2.1696,2.1696,2.1696,2.1696,2.1696,2.1696,2.1696,2.1696,2.1696,2.1696,2.1696,2.1696,2.1568,2.1218,2.1154,2.1145,2.1108,2.0457,2.0058,2.0387,1.9787,1.9301,1.9301,1.9301,1.9301,1.9301,1.9301,1.9301,1.9301,1.9301,1.9301,1.9301,1.9301,1.9301,1.9301,1.9301,1.9301,1.9301,1.9301,1.9301,1.9311,1.9664,1.9847,0.9517,1.0196,1.0509,1.0767,1.1086,1.1543,1.2373,1.2741,1.3061,1.3586,1.3779,1.3743,1.3375,1.3826,1.4427,1.501,1.5528,1.6379,1.7752,1.933,2.0672,2.1691,2.296,2.4043,2.4691,2.4348,2.4307,2.4794,2.4587,2.4367,2.4211,2.4202,2.4202,2.4202,2.4202,2.4202,2.4202,2.4202,2.4202,2.4202,2.4202,2.4119,2.3904,2.3352,2.3096,2.3004,2.2501,2.2428,2.2638,2.2227,2.2144,2.2263,2.2117,2.2455,2.3041,2.3105,2.3187,2.3197,2.2693,2.241,2.2217,2.1824,2.1696,2.1696,2.1696,2.1696,2.1696,2.1696,2.1696,2.1696,2.1696,2.1696,2.1696,2.1696,2.1696,2.1696,2.1696,2.1696,2.1696,2.1696,2.1696,2.1641,2.1485,2.1458,2.141,2.1145,2.0851,2.0539,2.0159,1.9847,1.9595,1.9329,1.9301,1.9301,1.9301,1.9301,1.9301,1.9301,1.9301,1.9301,1.9301,1.9301,1.9301,1.9301,1.9301,1.9301,1.9301,1.9301,1.9301,1.9311,1.9692,1.9893,0.9248,0.9961,1.0358,1.0617,1.1233,1.2003,1.2887,1.3292,1.3734,1.4538,1.4484,1.4314,1.4397,1.4572,1.4854,1.5264,1.589,1.6637,1.7562,1.9013,2.0375,2.135,2.2647,2.3801,2.4582,2.4263,2.417,2.4583,2.4367,2.4202,2.4202,2.4202,2.4202,2.4202,2.4202,2.4202,2.4202,2.4202,2.4202,2.4202,2.4202,2.4137,2.3941,2.3343,2.3169,2.3279,2.2721,2.2712,2.3059,2.2648,2.2474,2.2474,2.2474,2.2821,2.3279,2.3004,2.2995,2.3032,2.2474,2.2199,2.2053,2.1778,2.1696,2.1696,2.1696,2.1696,2.1696,2.1696,2.1696,2.1696,2.1696,2.1696,2.1696,2.1696,2.1696,2.1696,2.1696,2.1696,2.1696,2.1696,2.1696,2.165,2.1513,2.1495,2.1438,2.1145,2.0998,2.0723,2.0149,1.9966,1.9769,1.9347,1.9301,1.9301,1.9301,1.9301,1.9301,1.9301,1.9301,1.9301,1.9301,1.9301,1.9301,1.9301,1.9301,1.9301,1.9301,1.9301,1.9301,1.9311,1.9861,2.0076,0.9593,1.0094,1.0358,1.0623,1.1531,1.2584,1.3666,1.3695,1.3893,1.5234,1.4873,1.4565,1.5346,1.5074,1.4971,1.577,1.6639,1.7589,1.8617,1.9027,2.0004,2.2215,2.2476,2.2929,2.4053,2.4202,2.4202,2.4192,2.4202,2.4202,2.4192,2.4202,2.4202,2.4202,2.4202,2.4202,2.4202,2.4202,2.4202,2.4202,2.4202,2.3941,2.3499,2.3499,2.3288,2.2922,2.2913,2.3133,2.3471,2.3068,2.2913,2.2913,2.2913,2.2913,2.2913,2.2904,2.2638,2.2282,2.2318,2.2016,2.1696,2.1696,2.1696,2.1696,2.1696,2.1696,2.1696,2.1696,2.1696,2.1696,2.1696,2.1696,2.1696,2.1696,2.1696,2.1696,2.1696,2.1696,2.1696,2.1696,2.1696,2.1559,2.1181,2.1117,2.1117,2.1117,2.0778,2.053,2.0521,2.0131,1.9769,1.9356,1.9301,1.9301,1.9301,1.9301,1.9301,1.9301,1.9301,1.9301,1.9301,1.9301,1.9301,1.9301,1.9301,1.9301,1.9301,1.9301,1.9301,1.9329,2.0145,2.0521,0.8711,0.9735,1.0707,1.1156,1.2203,1.3461,1.4738,1.4975,1.5168,1.6138,1.6132,1.5977,1.5852,1.5825,1.5918,1.6229,1.6632,1.7153,1.7864,1.8662,1.9435,2.0107,2.1548,2.2627,2.2987,2.3746,2.4082,2.3749,2.3987,2.4073,2.3739,2.3996,2.4202,2.4202,2.4202,2.4202,2.4202,2.4202,2.4202,2.4202,2.4202,2.4137,2.396,2.3627,2.3639,2.3785,2.3444,2.3602,2.3941,2.3489,2.3316,2.3316,2.3316,2.3316,2.3288,2.3004,2.2638,2.2245,2.1961,2.1787,2.1696,2.1696,2.1696,2.1696,2.1696,2.1696,2.1696,2.1696,2.1696,2.1696,2.1696,2.1696,2.1696,2.1696,2.1696,2.1696,2.1696,2.1696,2.1696,2.1696,2.1696,2.165,2.1531,2.1504,2.1504,2.1504,2.1403,2.122,2.097,2.0305,1.9838,1.9719,1.9476,1.9301,1.9301,1.9301,1.9301,1.9301,1.9301,1.9301,1.9301,1.9301,1.9301,1.9301,1.9301,1.9301,1.9301,1.9301,1.9457,1.9719,2.0283,2.0668,0.9081,1.0219,1.1279,1.1928,1.2899,1.4085,1.5632,1.6062,1.6302,1.6819,1.6743,1.6553,1.6495,1.639,1.6402,1.6665,1.6929,1.7232,1.7555,1.8146,1.8665,1.9001,2.0561,2.1728,2.209,2.3216,2.3804,2.3508,2.3923,2.4101,2.3794,2.4073,2.4202,2.4202,2.4202,2.4202,2.4202,2.4202,2.4202,2.4202,2.4202,2.4202,2.4192,2.3895,2.3923,2.4192,2.3895,2.3923,2.4183,2.3886,2.3785,2.3749,2.3389,2.3261,2.3187,2.2629,2.2263,2.2016,2.1769,2.1696,2.1696,2.1696,2.1696,2.1696,2.1696,2.1696,2.1696,2.1696,2.1696,2.1696,2.1696,2.1696,2.1696,2.1696,2.1696,2.1696,2.1696,2.1696,2.1696,2.1696,2.1696,2.1696,2.1696,2.1696,2.1696,2.1696,2.1549,2.1348,2.1135,2.0558,2.0058,1.9902,1.9664,1.9485,1.932,1.9301,1.9301,1.9301,1.9301,1.9301,1.9301,1.9301,1.9301,1.9301,1.9301,1.9301,1.9301,1.9301,1.9522,1.9902,2.0296,2.0732,1.0072,1.1114,1.2089,1.2883,1.3585,1.4572,1.6261,1.6894,1.7143,1.718,1.6793,1.6586,1.7061,1.6786,1.6592,1.7068,1.738,1.7502,1.7502,1.7502,1.7825,1.8586,1.9544,2.0481,2.1372,2.2641,2.342,2.3444,2.3868,2.411,2.4036,2.4073,2.411,2.4146,2.4146,2.4165,2.4202,2.4202,2.4183,2.4146,2.4183,2.4183,2.4146,2.4183,2.4202,2.4202,2.4202,2.4202,2.4202,2.4165,2.4146,2.4073,2.3206,2.2885,2.2757,2.2016,2.1723,2.1696,2.1696,2.1696,2.1696,2.1696,2.1696,2.1696,2.1696,2.1696,2.1696,2.1696,2.1696,2.1696,2.1696,2.1696,2.1696,2.1696,2.1696,2.1696,2.1696,2.1696,2.1696,2.1696,2.1696,2.1696,2.1696,2.1696,2.1696,2.1696,2.141,2.1163,2.1163,2.0814,2.0387,2.0031,1.9966,1.9824,1.9439,1.9412,1.9412,1.9412,1.9375,1.9356,1.9356,1.932,1.9301,1.9301,1.9301,1.9301,1.9301,1.9301,1.954,1.9948,2.0314,2.075,0.8945,1.0679,1.2616,1.3425,1.4726,1.5883,1.6293,1.6593,1.6887,1.7136,1.6903,1.6677,1.6787,1.6697,1.6677,1.6787,1.6854,1.6894,1.6894,1.6894,1.7056,1.748,1.8506,1.9628,2.0891,2.2046,2.2809,2.303,2.3398,2.3391,2.2749,2.3033,2.3306,2.3618,2.3627,2.3831,2.4202,2.4202,2.4045,2.3627,2.3996,2.3987,2.3636,2.4005,2.4202,2.4202,2.4202,2.4202,2.4183,2.3804,2.3627,2.3581,2.3096,2.2702,2.2391,2.2217,2.1961,2.1696,2.1696,2.1696,2.1696,2.1696,2.1696,2.1696,2.1696,2.1696,2.1696,2.1696,2.1696,2.1696,2.1696,2.1696,2.1696,2.1696,2.1696,2.1696,2.1696,2.1696,2.1696,2.1696,2.1696,2.1696,2.1696,2.1696,2.1696,2.1696,2.1614,2.1559,2.1559,2.1236,2.0943,2.086,2.0576,2.0356,2.0264,2.0255,2.0255,2.0255,1.9971,1.9756,1.9756,1.9476,1.9301,1.9301,1.9301,1.9301,1.9301,1.9301,1.9677,2.0351,2.0484,2.0863,0.9512,1.1083,1.2756,1.3906,1.5252,1.6321,1.6321,1.6386,1.654,1.6744,1.6714,1.6707,1.6707,1.6707,1.6707,1.6707,1.6707,1.6707,1.6707,1.6707,1.6714,1.6777,1.7711,1.8553,1.9109,2.0728,2.18,2.1928,2.2749,2.3023,2.2602,2.2785,2.3004,2.3206,2.3215,2.3316,2.3574,2.3584,2.3474,2.3215,2.3474,2.3474,2.3233,2.3877,2.4202,2.4202,2.4202,2.4202,2.4183,2.3923,2.3721,2.3453,2.3059,2.2648,2.2254,2.2062,2.187,2.1696,2.1696,2.1696,2.1696,2.1696,2.1696,2.1696,2.1696,2.1696,2.1696,2.1696,2.1696,2.1696,2.1696,2.1696,2.1696,2.1696,2.1696,2.1696,2.1696,2.1696,2.1696,2.1696,2.1696,2.1696,2.1696,2.1696,2.1696,2.1696,2.1696,2.1696,2.1696,2.1504,2.1328,2.1126,2.0924,2.0723,2.0539,2.0521,2.0521,2.0521,2.0287,2.0177,2.0177,1.9815,1.9503,1.9301,1.9301,1.9301,1.9301,1.9503,1.9916,2.0479,2.0714,2.1135,1.0123,1.1502,1.2863,1.4289,1.5405,1.6181,1.6186,1.6192,1.6192,1.6192,1.6386,1.6553,1.6553,1.6553,1.6553,1.6553,1.6553,1.6553,1.6553,1.6553,1.6486,1.6342,1.7043,1.7584,1.7745,1.9523,2.0806,2.1119,2.2182,2.2776,2.2702,2.2693,2.273,2.2794,2.2794,2.2831,2.2904,2.2904,2.2876,2.2794,2.2794,2.284,2.2931,2.3639,2.4036,2.4091,2.4027,2.4036,2.4082,2.3944,2.3639,2.3242,2.2849,2.2483,2.2144,2.1815,2.1696,2.1696,2.1696,2.1696,2.1696,2.1696,2.1696,2.1696,2.1696,2.1696,2.1696,2.1696,2.1696,2.1696,2.1696,2.1696,2.1696,2.1696,2.1696,2.1696,2.1696,2.1696,2.1696,2.1696,2.1696,2.1696,2.1696,2.1696,2.1696,2.1696,2.1696,2.1696,2.1696,2.1696,2.1559,2.1255,2.1218,2.108,2.0759,2.0732,2.0732,2.0732,2.0616,2.0622,2.0622,2.0204,1.987,1.9522,1.9375,1.9301,1.9301,1.9683,2.0095,2.053,2.0924,2.1337,0.8569,1.0882,1.34,1.4656,1.5237,1.5578,1.5832,1.5885,1.5885,1.5885,1.5919,1.5898,1.5898,1.5898,1.5898,1.5898,1.5898,1.5898,1.5898,1.5898,1.6025,1.6246,1.6419,1.7266,1.9268,1.9765,2.0539,2.2024,2.2281,2.2217,2.187,2.1851,2.2007,2.2355,2.2364,2.2538,2.2904,2.2904,2.2721,2.2364,2.2364,2.2556,2.2913,2.3014,2.3251,2.3553,2.3215,2.3261,2.3517,2.2859,2.2538,2.24,2.2007,2.1824,2.176,2.1714,2.1696,2.1696,2.1696,2.1696,2.1696,2.1696,2.1696,2.1696,2.1696,2.1696,2.1696,2.1696,2.1696,2.1696,2.1696,2.1696,2.1696,2.1696,2.1696,2.1696,2.1696,2.1696,2.1696,2.1696,2.1696,2.1696,2.1696,2.1696,2.1696,2.1696,2.1696,2.1696,2.1696,2.1696,2.1668,2.1614,2.1604,2.1586,2.1531,2.1531,2.1531,2.1531,2.1227,2.1025,2.1025,2.0649,2.0369,2.0356,1.9659,1.9301,1.9301,1.9683,2.0095,2.053,2.0924,2.1337,0.973,1.1244,1.2797,1.4173,1.4689,1.5023,1.5484,1.5585,1.5631,1.5751,1.5784,1.5784,1.5784,1.5784,1.5784,1.5784,1.5784,1.5784,1.5784,1.5784,1.5831,1.6012,1.6025,1.645,1.7474,1.8578,1.9552,2.0285,2.1345,2.1879,2.1705,2.1696,2.1769,2.1943,2.1952,2.2034,2.2227,2.2227,2.2135,2.1952,2.1952,2.2053,2.2227,2.2227,2.2574,2.316,2.2986,2.3004,2.3142,2.2776,2.2492,2.2263,2.2089,2.1888,2.1696,2.1696,2.1696,2.1696,2.1696,2.1696,2.1696,2.1696,2.1696,2.1696,2.1696,2.1696,2.1696,2.1696,2.1696,2.1696,2.1696,2.1696,2.1696,2.1696,2.1696,2.1696,2.1696,2.1696,2.1696,2.1696,2.1696,2.1696,2.1696,2.1696,2.1696,2.1696,2.1696,2.1696,2.1696,2.1696,2.1696,2.1696,2.1696,2.1696,2.1696,2.1696,2.1696,2.1696,2.1522,2.1456,2.1456,2.1071,2.0851,2.0851,2.0273,1.998,1.998,2.0393,2.0677,2.086,2.1273,2.1513,1.0367,1.1169,1.1896,1.3313,1.3968,1.4449,1.5037,1.5231,1.5364,1.5658,1.5718,1.5745,1.5764,1.5784,1.5784,1.5784,1.5784,1.5784,1.5784,1.5784,1.5784,1.5784,1.5784,1.592,1.6157,1.7777,1.8926,1.9155,2.0772,2.1696,2.1696,2.1696,2.1696,2.1696,2.1696,2.1696,2.1696,2.1696,2.1696,2.1696,2.1696,2.1696,2.1696,2.1696,2.2025,2.2602,2.2602,2.2657,2.2739,2.2638,2.241,2.2126,2.2126,2.1952,2.1696,2.1696,2.1696,2.1696,2.1696,2.1696,2.1696,2.1696,2.1696,2.1696,2.1696,2.1696,2.1696,2.1696,2.1696,2.1696,2.1696,2.1696,2.1696,2.1696,2.1696,2.1696,2.1696,2.1696,2.1696,2.1696,2.1696,2.1696,2.1696,2.1696,2.1696,2.1696,2.1696,2.1696,2.1696,2.1696,2.1696,2.1696,2.1696,2.1696,2.1696,2.1696,2.1696,2.1696,2.1696,2.1696,2.1696,2.1385,2.1264,2.1264,2.0979,2.068,2.0521,2.0915,2.1108,2.1117,2.1495,2.1696,0.8999,0.9913,1.0949,1.2104,1.3046,1.38,1.4386,1.4783,1.5115,1.5357,1.5418,1.5504,1.5731,1.5784,1.5784,1.5784,1.5784,1.5784,1.5784,1.5784,1.5784,1.5784,1.5784,1.6157,1.7138,1.8195,1.9201,2.0158,2.1132,2.1696,2.1696,2.1696,2.1696,2.1696,2.1696,2.1696,2.1696,2.1696,2.1696,2.1696,2.1696,2.1696,2.1696,2.1696,2.1714,2.1751,2.1751,2.197,2.2282,2.1906,2.1742,2.1723,2.1723,2.1705,2.1696,2.1696,2.1696,2.1696,2.1696,2.1696,2.1696,2.1696,2.1696,2.1696,2.1696,2.1696,2.1696,2.1696,2.1696,2.1696,2.1696,2.1696,2.1696,2.1696,2.1696,2.1696,2.1696,2.1696,2.1696,2.1696,2.1696,2.1696,2.1696,2.1696,2.1696,2.1696,2.1696,2.1696,2.1696,2.1696,2.1696,2.1696,2.1696,2.1696,2.1696,2.1696,2.1696,2.1696,2.1696,2.1696,2.1696,2.1668,2.1659,2.1659,2.1641,2.1248,2.0521,2.0915,2.1108,2.1117,2.1495,2.1696,0.9256,0.9618,1.0084,1.1386,1.2124,1.2712,1.35,1.4055,1.4482,1.4776,1.4983,1.515,1.5257,1.5578,1.5784,1.5784,1.5784,1.5784,1.5784,1.5784,1.5784,1.5784,1.5784,1.592,1.6298,1.7225,1.8241,1.9247,2.0257,2.1042,2.1687,2.1696,2.1696,2.1696,2.1696,2.1696,2.1696,2.1696,2.1696,2.1696,2.1696,2.1696,2.1696,2.1696,2.1696,2.1696,2.1696,2.1769,2.1888,2.1751,2.1696,2.1696,2.1696,2.1696,2.1696,2.1696,2.1696,2.1696,2.1696,2.1696,2.1696,2.1696,2.1696,2.1696,2.1696,2.1696,2.1696,2.1696,2.1696,2.1696,2.1696,2.1696,2.1696,2.1696,2.1696,2.1696,2.1696,2.1696,2.1696,2.1696,2.1696,2.1696,2.1696,2.1696,2.1696,2.1696,2.1696,2.1696,2.1696,2.1696,2.1696,2.1696,2.1696,2.1696,2.1696,2.1696,2.1696,2.1696,2.1696,2.1696,2.1696,2.1696,2.1696,2.1696,2.1696,2.1549,2.1257,2.1394,2.1511,2.1476,2.1623,2.1696,0.9248,0.9405,0.9714,1.0837,1.1283,1.1752,1.2806,1.328,1.3654,1.4255,1.4529,1.4774,1.4975,1.5277,1.5571,1.5665,1.5718,1.5784,1.5784,1.5784,1.5784,1.5784,1.5784,1.5784,1.5784,1.6723,1.7738,1.8703,1.9749,2.0709,2.1642,2.1696,2.1696,2.1696,2.1696,2.1696,2.1696,2.1696,2.1696,2.1696,2.1696,2.1696,2.1696,2.1696,2.1696,2.1696,2.1696,2.1696,2.1696,2.1696,2.1696,2.1696,2.1696,2.1696,2.1696,2.1696,2.1696,2.1696,2.1696,2.1696,2.1696,2.1696,2.1696,2.1696,2.1696,2.1696,2.1696,2.1696,2.1696,2.1696,2.1696,2.1696,2.1696,2.1696,2.1696,2.1696,2.1696,2.1696,2.1696,2.1696,2.1696,2.1696,2.1696,2.1696,2.1696,2.1696,2.1696,2.1696,2.1696,2.1696,2.1696,2.1696,2.1696,2.1696,2.1696,2.1696,2.1696,2.1696,2.1696,2.1696,2.1696,2.1696,2.1696,2.1696,2.1696,2.1696,2.1696,2.1696,2.1696,2.1696,2.1696,2.1696,0.0,0.0,0.0,1.0412,1.0559,1.0941,1.2388,1.2502,1.2599,1.3788,1.4035,1.4215,1.4861,1.4975,1.5075,1.5324,1.5611,1.5758,1.5758,1.5758,1.5758,1.5758,1.5758,1.5758,1.5764,1.6648,1.7669,1.868,1.9687,2.0647,2.1615,2.1668,2.1678,2.1696,2.1696,2.1696,2.1696,2.1696,2.1696,2.1696,2.1696,2.1696,2.1696,2.1696,2.1696,2.1696,2.1696,2.1696,2.1696,2.1696,2.1696,2.1696,2.1696,2.1696,2.1696,2.1696,2.1696,2.1696,2.1696,2.1696,2.1696,2.1696,2.1696,2.1696,2.1696,2.1696,2.1696,2.1696,2.1696,2.1696,2.1696,2.1696,2.1696,2.1696,2.1696,2.1696,2.1696,2.1696,2.1696,2.1696,2.1696,2.1696,2.1696,2.1696,2.1696,2.1696,2.1696,2.1696,2.1696,2.1696,2.1696,2.1696,2.1696,2.1696,2.1696,2.1696,2.1696,2.1696,2.1696,2.1696,2.1696,2.1696,2.1696,2.1696,2.1696,2.1696,2.1696,2.1696,2.1696,2.1696,2.1696,2.1696,0.8925,0.0,0.0,0.0,0.0,0.0,1.1008,1.1296,1.163,1.2599,1.2799,1.3046,1.3854,1.4182,1.4429,1.4716,1.501,1.5204,1.5204,1.5204,1.5204,1.5204,1.5204,1.5284,1.5498,1.5599,1.6416,1.8226,1.8685,1.9417,2.0784,2.1126,2.142,2.1678,2.1696,2.1696,2.1696,2.1696,2.1696,2.1696,2.1696,2.1696,2.1696,2.1696,2.1696,2.1696,2.1696,2.1696,2.1696,2.1696,2.1696,2.1696,2.1696,2.1696,2.1696,2.1696,2.1696,2.1696,2.1696,2.1696,2.1696,2.1696,2.1696,2.1696,2.1696,2.1696,2.1696,2.1696,2.1696,2.1696,2.1696,2.1696,2.1696,2.1696,2.1696,2.1696,2.1696,2.1696,2.1696,2.1696,2.1696,2.1696,2.1696,2.1696,2.1696,2.1696,2.1696,2.1696,2.1696,2.1696,2.1696,2.1696,2.1696,2.1696,2.1696,2.1696,2.1696,2.1696,2.1696,2.1696,2.1696,2.1696,2.1696,2.1696,2.1696,2.1696,2.1696,2.1696,2.1696,2.1696,2.1696,2.1696,0.9118,0.9419,0.9826,0.9617,0.0,0.0,1.0579,1.0681,1.0942,1.2071,1.2305,1.2538,1.328,1.3601,1.3774,1.3948,1.4222,1.4543,1.4955,1.5008,1.5008,1.5008,1.5008,1.5075,1.5197,1.5109,1.5824,1.782,1.8049,1.8777,2.0404,2.0741,2.0979,2.1174,2.1348,2.1431,2.1431,2.1604,2.1696,2.1696,2.1696,2.1696,2.1696,2.1696,2.1696,2.1696,2.1696,2.1696,2.1696,2.1696,2.1696,2.1696,2.1696,2.1696,2.1696,2.1696,2.1696,2.1696,2.1696,2.1696,2.1696,2.1696,2.1696,2.1696,2.1696,2.1696,2.1696,2.1696,2.1696,2.1696,2.1696,2.1696,2.1696,2.1696,2.1696,2.1696,2.1696,2.1696,2.1696,2.1696,2.1696,2.1696,2.1696,2.1696,2.1696,2.1696,2.1696,2.1696,2.1696,2.1785,2.183,2.1687,2.1785,2.183,2.1696,2.1696,2.1696,2.1696,2.1696,2.1696,2.1696,2.1696,2.1696,2.1696,2.1696,2.1696,2.1696,2.1696,2.1696,2.1696,2.1696,2.1696,0.9464,0.9737,1.0187,1.0094,0.9697,0.0,1.0581,1.0421,1.0448,1.1784,1.2031,1.2204,1.2846,1.2993,1.3026,1.3053,1.3293,1.38,1.474,1.4894,1.4908,1.4908,1.4908,1.4921,1.4955,1.4934,1.5618,1.7344,1.7636,1.8547,2.0385,2.0475,2.0433,2.0521,2.086,2.1062,2.1108,2.1431,2.165,2.1696,2.1696,2.1696,2.1696,2.1696,2.1696,2.1696,2.1696,2.1696,2.1696,2.1696,2.1696,2.1696,2.1696,2.1696,2.1696,2.1696,2.1696,2.1696,2.1696,2.1696,2.1696,2.1696,2.1696,2.1696,2.1696,2.1696,2.1696,2.1696,2.1696,2.1696,2.1696,2.1696,2.1696,2.1696,2.1696,2.1696,2.1696,2.1696,2.1696,2.1696,2.1696,2.1696,2.1696,2.1696,2.1696,2.1696,2.1696,2.1696,2.1696,2.1919,2.2008,2.1785,2.1963,2.2052,2.1785,2.1741,2.1731,2.1696,2.1696,2.1696,2.1696,2.1696,2.1696,2.1696,2.1696,2.1696,2.1696,2.1696,2.1696,2.1696,2.1696,2.1696,1.0077,1.0374,1.0655,0.9947,1.0033,0.0,0.9664,0.9679,0.9913,1.0441,1.0361,1.0448,1.1276,1.1617,1.185,1.2091,1.2616,1.3186,1.3808,1.4108,1.4262,1.4262,1.4262,1.4349,1.4583,1.4396,1.4814,1.6072,1.7265,1.8692,2.04,2.0177,2.0149,2.0512,2.0594,2.0787,2.1099,2.119,2.1401,2.1696,2.1696,2.1696,2.1696,2.1696,2.1696,2.1696,2.1696,2.1696,2.1696,2.1696,2.1696,2.1696,2.1696,2.1696,2.1696,2.1696,2.1696,2.1696,2.1696,2.1696,2.1696,2.1696,2.1696,2.1696,2.1696,2.1696,2.1696,2.1696,2.1696,2.1696,2.1696,2.1696,2.1696,2.1696,2.1696,2.1696,2.1696,2.1696,2.1696,2.1696,2.1696,2.1696,2.1696,2.1696,2.1696,2.1696,2.1696,2.1696,2.1696,2.1919,2.2097,2.2008,2.222,2.2264,2.2052,2.2008,2.1919,2.1687,2.1696,2.1696,2.1696,2.1696,2.1696,2.1696,2.1696,2.1696,2.1696,2.1696,2.1696,2.1696,2.1696,2.1696,1.0283,1.0541,1.0848,1.0298,1.0258,0.0,0.0,0.9537,0.9673,1.0401,1.0207,1.0167,1.1049,1.1209,1.1303,1.1597,1.2174,1.2625,1.2894,1.3367,1.3647,1.3647,1.3647,1.3768,1.4013,1.3913,1.4518,1.6145,1.7735,1.9026,1.9847,1.9723,1.9705,1.9907,2.0118,2.0278,2.0521,2.0906,2.1209,2.1385,2.1595,2.1696,2.1696,2.1696,2.1696,2.1696,2.1696,2.1696,2.1696,2.1696,2.1696,2.1696,2.1696,2.1696,2.1696,2.1696,2.1696,2.1696,2.1696,2.1696,2.1696,2.1696,2.1696,2.1696,2.1696,2.1696,2.1696,2.1696,2.1696,2.1731,2.1874,2.1785,2.1731,2.1874,2.1785,2.1696,2.1696,2.1696,2.1696,2.1696,2.1696,2.1696,2.1696,2.1696,2.1696,2.1696,2.1696,2.1696,2.1696,2.1998,2.223,2.2097,2.2407,2.2441,2.2141,2.2097,2.2008,2.1741,2.1696,2.1696,2.1696,2.1696,2.1696,2.1696,2.1696,2.1696,2.1696,2.1696,2.1696,2.1696,2.1696,2.1696,1.0661,1.0882,1.1243,1.072,1.0508,1.0347,0.0,0.0,0.0,1.0401,1.0194,1.005,1.0756,1.0775,1.0735,1.0936,1.1543,1.1971,1.1971,1.2438,1.2866,1.3093,1.3173,1.3307,1.35,1.3413,1.424,1.6347,1.7802,1.8744,1.9182,1.9256,1.9301,1.9301,1.9632,1.9802,1.9893,2.0558,2.0961,2.1108,2.1412,2.1614,2.1696,2.1696,2.1696,2.1696,2.1696,2.1696,2.1696,2.1696,2.1731,2.1776,2.1741,2.1696,2.1696,2.1696,2.1696,2.1696,2.1785,2.1741,2.1687,2.183,2.183,2.1785,2.1785,2.1741,2.1696,2.1696,2.1696,2.1785,2.2052,2.1919,2.1785,2.2052,2.1919,2.1696,2.1696,2.1696,2.1696,2.1696,2.1696,2.1696,2.1696,2.1696,2.1696,2.1696,2.1696,2.1696,2.1696,2.2087,2.2353,2.2185,2.2583,2.2715,2.2274,2.223,2.2097,2.1785,2.1785,2.1731,2.1696,2.1696,2.1696,2.1696,2.1696,2.1696,2.1696,2.1696,2.1696,2.1696,2.1696,2.1696,1.1799,1.2134,1.2261,1.0921,1.1156,1.1196,0.9372,0.0,0.9526,0.9138,0.0,0.8985,0.9085,0.0,0.0,0.9457,1.02,1.0794,1.0794,1.1069,1.1665,1.2717,1.3046,1.3227,1.326,1.2772,1.3398,1.5621,1.584,1.6694,1.8656,1.9109,1.9301,1.9301,1.9347,1.9549,1.9884,1.9976,2.0378,2.1108,2.1154,2.133,2.1696,2.1696,2.1696,2.1696,2.1696,2.1696,2.1696,2.1696,2.183,2.2052,2.1776,2.1696,2.1696,2.1696,2.1696,2.1731,2.1963,2.1919,2.1776,2.2176,2.2185,2.2052,2.2052,2.1874,2.1696,2.1696,2.1696,2.1785,2.2052,2.1919,2.1785,2.2052,2.1919,2.1696,2.1696,2.1696,2.1696,2.1696,2.1696,2.1696,2.1696,2.1696,2.1696,2.1696,2.1696,2.1696,2.1696,2.2087,2.2397,2.2353,2.2794,2.2969,2.2759,2.2715,2.2539,2.2097,2.2052,2.1963,2.1696,2.1696,2.1696,2.1696,2.1696,2.1696,2.1696,2.1696,2.1696,2.1696,2.1696,2.1696,1.169,1.2044,1.2254,1.1129,1.1122,1.1035,0.9626,0.9239,0.9198,0.9299,0.0,0.0,0.0,0.0,0.0,0.0,1.006,1.0278,1.0104,1.0479,1.1082,1.1884,1.1944,1.2124,1.2632,1.3181,1.4132,1.558,1.6043,1.6882,1.8292,1.8742,1.8962,1.8962,1.9182,1.9384,1.9567,1.9765,2.0058,2.0429,2.0888,2.12,2.1383,2.1577,2.1696,2.1696,2.1874,2.1919,2.1919,2.2043,2.2176,2.2264,2.2132,2.2043,2.1919,2.1785,2.1696,2.1741,2.2008,2.2008,2.1963,2.2309,2.2353,2.2264,2.2264,2.222,2.2087,2.2087,2.1998,2.2008,2.2407,2.223,2.2052,2.2407,2.2309,2.2087,2.2087,2.2087,2.2087,2.1963,2.1919,2.1874,2.1741,2.1696,2.1696,2.1696,2.1696,2.1785,2.1919,2.222,2.2441,2.2618,2.2916,2.3013,2.2803,2.2803,2.2583,2.2141,2.1963,2.1954,2.2087,2.182,2.1776,2.1919,2.1785,2.1696,2.1696,2.1696,2.1696,2.1696,2.1696,2.1696,1.177,1.2098,1.2278,1.1156,1.0935,1.0722,0.9679,0.9299,0.9265,0.9613,0.9539,0.0,0.0,0.0,0.9686,0.9953,0.0,0.9987,0.9613,0.9933,1.0414,1.0962,1.1089,1.1363,1.1997,1.2747,1.3812,1.5173,1.5728,1.6532,1.7862,1.844,1.8715,1.8715,1.91,1.9301,1.9301,1.9604,1.9774,1.9893,2.047,2.094,2.1204,2.1517,2.1719,2.1909,2.2097,2.2185,2.2185,2.2353,2.2441,2.2485,2.2441,2.2353,2.2274,2.1998,2.1909,2.1909,2.2185,2.2318,2.2407,2.2485,2.253,2.253,2.253,2.2441,2.2397,2.2397,2.2309,2.2274,2.2715,2.2495,2.2274,2.2715,2.2618,2.2397,2.2397,2.2397,2.2353,2.223,2.2185,2.2141,2.1909,2.1776,2.1696,2.1696,2.1785,2.1874,2.2052,2.2353,2.2574,2.2803,2.2969,2.3057,2.2882,2.2882,2.2706,2.2318,2.2052,2.2043,2.2397,2.1998,2.1919,2.2097,2.183,2.1696,2.1696,2.1696,2.1696,2.1696,2.1696,2.1696,1.2438,1.2719,1.2759,1.1042,1.0814,1.0615,0.9165,0.9479,1.0,0.974,1.0347,1.0842,1.0626,1.0566,1.0372,0.9816,0.9933,0.0,0.0,0.9244,0.9471,1.0057,1.0863,1.1389,1.1415,1.072,1.1354,1.4037,1.3852,1.4761,1.7395,1.8275,1.8715,1.8715,1.91,1.9301,1.9301,1.932,1.9522,1.9893,1.9921,2.049,2.1506,2.1515,2.1836,2.2397,2.2397,2.2397,2.2397,2.2397,2.2574,2.2759,2.2485,2.2574,2.2759,2.2485,2.2397,2.2441,2.2662,2.2925,2.3057,2.2847,2.2803,2.2803,2.2803,2.2618,2.2397,2.2397,2.2397,2.2441,2.2715,2.2618,2.2441,2.2706,2.2618,2.2397,2.2397,2.2397,2.2397,2.2397,2.2397,2.2397,2.2397,2.1998,2.1696,2.1696,2.1919,2.2097,2.2097,2.2495,2.2794,2.2803,2.2969,2.3091,2.3101,2.3101,2.3013,2.2794,2.253,2.2397,2.2397,2.2185,2.2097,2.2097,2.183,2.1696,2.1696,2.1696,2.1696,2.1696,2.1696,2.1696,1.3101,1.3416,1.3389,1.2017,1.1594,1.1152,0.9737,0.9766,1.0033,0.9746,1.0381,1.0962,1.0894,1.072,1.0526,1.0332,1.005,0.9559,0.0,0.8472,0.8638,0.9417,1.0314,1.0888,1.0888,1.1418,1.2327,1.3772,1.439,1.5445,1.7202,1.7687,1.8138,1.8667,1.8955,1.9299,1.9696,1.9548,1.9622,1.9881,2.0031,2.0531,2.1315,2.1565,2.1957,2.2397,2.2574,2.2662,2.2662,2.2794,2.2925,2.3013,2.2882,2.2925,2.2969,2.2574,2.2397,2.2441,2.2715,2.2925,2.3101,2.3013,2.3013,2.3013,2.3013,2.2925,2.2882,2.2882,2.275,2.2706,2.2925,2.2838,2.2706,2.2969,2.2925,2.2882,2.2882,2.2882,2.2828,2.2706,2.2662,2.2618,2.2432,2.2264,2.2132,2.1963,2.2176,2.2309,2.2309,2.2574,2.2847,2.2969,2.3057,2.3091,2.3091,2.2969,2.2925,2.3013,2.2618,2.253,2.2828,2.2485,2.2309,2.2309,2.2097,2.1874,2.1696,2.1696,2.1696,2.1696,2.1696,2.1696,1.4102,1.4113,1.3853,1.2776,1.2353,1.1881,1.0581,1.0667,1.0945,1.0647,1.1142,1.1686,1.1825,1.1431,1.0987,1.0742,1.0215,0.9561,0.0,0.8432,0.856,0.9295,0.9798,1.0204,1.0412,1.092,1.1896,1.3494,1.4018,1.5092,1.6945,1.7413,1.7941,1.8673,1.8939,1.9362,1.9893,1.9754,1.9754,1.9912,2.0017,2.0436,2.1097,2.1526,2.1955,2.2451,2.277,2.2925,2.2925,2.3057,2.3091,2.3091,2.3091,2.3091,2.3047,2.274,2.2662,2.2662,2.2838,2.3013,2.3091,2.3091,2.3091,2.3091,2.3091,2.3091,2.3091,2.3091,2.3013,2.2925,2.3057,2.3013,2.2925,2.3057,2.3091,2.3091,2.3091,2.3091,2.3057,2.2925,2.2925,2.2838,2.2696,2.2662,2.2574,2.2264,2.2397,2.253,2.253,2.275,2.2969,2.3101,2.3091,2.3091,2.3091,2.2969,2.2969,2.3101,2.2828,2.2784,2.3101,2.275,2.2485,2.2397,2.2185,2.1963,2.1696,2.1696,2.1696,2.1696,2.1696,2.1696]}]]